[[{"header":{"parameterUnit":"m.s-1","parameterCategory":1,"la1":30.6,"la2":29.2853,"lo1":-89.7004,"lo2":-87.6739,"dy":0.0162,"dx":0.0183,"nx":112,"ny":82,"refTime":"2024-06-22T00:00:00:Z","depth":0,"parameterNumber":2,"parameterNumberName":"U-component_of_WINDS"},"data":[0.0,0.0,0.0,0.0,0.0,0.0,0.0,0.0,0.0,0.0,0.0,0.0,0.0,0.0,0.0,0.0,0.0,0.0,0.0,0.0,0.0,0.0,0.0,0.0,0.0,0.0,0.0,0.0,0.0,0.0,0.0,0.0,0.0,0.0,0.0,0.0,0.0,0.0,0.0,0.0,0.0,0.0,0.0,0.0,0.0,0.0,0.0,0.0,0.0,0.0,0.0,0.0,0.0,0.0,0.0,0.0,0.0,0.0,0.0,0.0,0.0,0.0,0.0,0.0,0.0,0.0,0.0,0.0,0.0,0.0,0.0,0.0,0.0,0.0,0.0,0.0,0.0,0.0,0.0,0.0,0.0,0.0,0.0,0.0,0.0,0.0,0.0,0.0,0.0,0.0,0.0,-1.0274,-1.1615,-1.2468,-1.2468,-1.2355,-1.1521,-0.9665,0.0,0.0,0.0,0.0,0.0,0.0,0.0,0.0,0.0,0.0,0.0,0.0,0.0,0.0,0.0,0.0,0.0,0.0,0.0,0.0,0.0,0.0,0.0,0.0,0.0,0.0,0.0,0.0,0.0,0.0,0.0,0.0,0.0,0.0,0.0,0.0,0.0,0.0,0.0,0.0,0.0,0.0,0.0,0.0,0.0,0.0,0.0,0.0,0.0,0.0,0.0,0.0,0.0,0.0,0.0,0.0,0.0,0.0,0.0,0.0,0.0,0.0,0.0,0.0,0.0,0.0,0.0,0.0,0.0,0.0,0.0,0.0,0.0,0.0,0.0,0.0,0.0,0.0,0.0,0.0,0.0,0.0,0.0,0.0,0.0,0.0,0.0,0.0,0.0,0.0,0.0,0.0,0.0,0.0,0.0,0.0,0.0,0.0,0.0,0.0,0.0,0.0,0.0,0.0,-0.975,-1.1497,-1.2334,-1.2711,-1.2711,-1.2151,-1.1161,-0.9949,0.0,0.0,0.0,0.0,0.0,0.0,0.0,0.0,0.0,0.0,0.0,0.0,0.0,0.0,0.0,0.0,0.0,0.0,0.0,0.0,0.0,0.0,0.0,0.0,0.0,0.0,0.0,0.0,0.0,0.0,0.0,0.0,0.0,0.0,0.0,0.0,0.0,0.0,0.0,0.0,0.0,0.0,0.0,0.0,0.0,0.0,0.0,0.0,0.0,0.0,0.0,0.0,0.0,0.0,0.0,0.0,0.0,0.0,0.0,0.0,0.0,0.0,0.0,0.0,0.0,0.0,0.0,0.0,0.0,0.0,0.0,0.0,0.0,0.0,0.0,0.0,0.0,0.0,0.0,0.0,0.0,0.0,0.0,0.0,0.0,0.0,0.0,0.0,0.0,0.0,0.0,0.0,0.0,0.0,0.0,0.0,0.0,0.0,0.0,0.0,0.0,0.0,0.0,-0.8767,-0.9827,-1.1251,-1.1687,-1.1883,-1.1883,-1.1381,-1.0544,-0.9311,-0.8877,0.0,0.0,0.0,0.0,0.0,0.0,0.0,0.0,0.0,0.0,0.0,0.0,0.0,0.0,0.0,0.0,0.0,0.0,0.0,0.0,0.0,0.0,0.0,0.0,0.0,0.0,0.0,0.0,0.0,0.0,0.0,0.0,0.0,0.0,0.0,0.0,0.0,0.0,0.0,0.0,0.0,0.0,0.0,0.0,0.0,0.0,0.0,0.0,0.0,0.0,0.0,0.0,0.0,0.0,0.0,0.0,0.0,0.0,0.0,0.0,0.0,0.0,0.0,0.0,0.0,0.0,0.0,0.0,0.0,0.0,0.0,0.0,0.0,0.0,0.0,0.0,0.0,0.0,0.0,0.0,0.0,0.0,0.0,0.0,0.0,0.0,0.0,0.0,0.0,0.0,0.0,0.0,0.0,0.0,0.0,0.0,0.0,0.0,0.0,0.0,0.0,0.0,-0.9271,-0.9894,-1.0797,-1.1075,-1.1175,-1.1127,-1.065,-0.9861,-0.8703,-0.791,0.0,0.0,0.0,0.0,0.0,0.0,0.0,0.0,0.0,0.0,0.0,0.0,0.0,0.0,0.0,0.0,0.0,0.0,0.0,0.0,0.0,0.0,0.0,0.0,0.0,0.0,0.0,0.0,0.0,0.0,0.0,0.0,0.0,0.0,0.0,0.0,0.0,0.0,0.0,0.0,0.0,0.0,0.0,0.0,0.0,0.0,0.0,0.0,0.0,0.0,0.0,0.0,0.0,0.0,0.0,0.0,0.0,0.0,0.0,0.0,0.0,0.0,0.0,0.0,0.0,0.0,0.0,0.0,0.0,0.0,0.0,0.0,0.0,0.0,0.0,0.0,0.0,0.0,0.0,0.0,0.0,0.0,0.0,0.0,0.0,0.0,0.0,0.0,0.0,0.0,0.0,0.0,0.0,0.0,0.0,0.0,0.0,0.0,0.0,0.0,0.0,0.0,-0.9478,-1.0381,-1.0844,-1.1075,-1.1118,-1.0934,-1.0178,-0.9341,-0.8477,-0.7286,0.0,0.0,0.0,0.0,0.0,0.0,0.0,0.0,0.0,0.0,0.0,0.0,0.0,0.0,0.0,0.0,0.0,0.0,0.0,0.0,0.0,0.0,0.0,0.0,0.0,0.0,0.0,0.0,0.0,0.0,0.0,0.0,0.0,0.0,0.0,0.0,0.0,0.0,0.0,0.0,0.0,0.0,0.0,0.0,0.0,0.0,0.0,0.0,0.0,0.0,0.0,0.0,0.0,0.0,0.0,0.0,0.0,0.0,0.0,0.0,0.0,0.0,0.0,0.0,0.0,0.0,0.0,0.0,0.0,0.0,0.0,0.0,0.0,0.0,0.0,0.0,0.0,0.0,0.0,0.0,0.0,0.0,0.0,0.0,0.0,0.0,0.0,0.0,0.0,0.0,0.0,0.0,0.0,0.0,0.0,0.0,0.0,0.0,0.0,0.0,0.0,0.0,-0.9346,-1.0192,0.0,-1.1151,-1.1113,-1.0915,-1.0371,-0.9568,-0.8472,0.0,0.0,0.0,0.0,0.0,0.0,0.0,0.0,0.0,0.0,0.0,0.0,0.0,0.0,0.0,0.0,0.0,0.0,0.0,0.0,0.0,0.0,0.0,0.0,0.0,0.0,0.0,0.0,0.0,0.0,0.0,0.0,0.0,0.0,0.0,0.0,0.0,0.0,0.0,0.0,0.0,0.0,0.0,0.0,0.0,0.0,0.0,0.0,0.0,0.0,0.0,0.0,0.0,0.0,0.0,0.0,0.0,0.0,0.0,0.0,0.0,0.0,0.0,0.0,0.0,0.0,0.0,0.0,0.0,0.0,0.0,0.0,0.0,0.0,0.0,0.0,0.0,0.0,0.0,0.0,0.0,0.0,0.0,0.0,0.0,0.0,0.0,0.0,0.0,0.0,0.0,0.0,0.0,0.0,0.0,0.0,0.0,0.0,0.0,0.0,0.0,0.0,-0.8538,-0.9426,-1.0263,0.0,-1.1194,-1.1085,-1.0816,-1.0286,-0.9493,-0.8368,0.0,0.0,0.0,0.0,0.0,0.0,0.0,0.0,0.0,0.0,0.0,0.0,0.0,0.0,0.0,0.0,0.0,0.0,0.0,0.0,0.0,0.0,0.0,0.0,0.0,0.0,0.0,0.0,0.0,0.0,0.0,0.0,0.0,0.0,0.0,0.0,0.0,0.0,0.0,0.0,0.0,0.0,0.0,0.0,0.0,0.0,0.0,0.0,0.0,0.0,0.0,0.0,0.0,0.0,0.0,0.0,0.0,0.0,0.0,0.0,0.0,0.0,0.0,0.0,0.0,0.0,0.0,0.0,0.0,0.0,0.0,0.0,0.0,0.0,0.0,0.0,0.0,0.0,0.0,0.0,0.0,0.0,0.0,0.0,0.0,0.0,0.0,0.0,0.0,0.0,0.0,0.0,0.0,0.0,0.0,0.0,0.0,0.0,0.0,0.0,0.0,0.0,-0.8595,-0.9795,-1.0731,-1.1151,-1.1194,-1.1028,-1.0608,-0.9809,-0.8973,0.0,0.0,0.0,0.0,0.0,0.0,0.0,0.0,0.0,0.0,0.0,0.0,0.0,0.0,0.0,0.0,0.0,0.0,0.0,0.0,0.0,0.0,0.0,0.0,0.0,0.0,0.0,0.0,0.0,0.0,0.0,0.0,0.0,0.0,0.0,0.0,0.0,0.0,0.0,0.0,0.0,0.0,0.0,0.0,0.0,0.0,0.0,0.0,0.0,0.0,0.0,0.0,0.0,0.0,0.0,0.0,0.0,0.0,0.0,0.0,0.0,0.0,0.0,0.0,0.0,0.0,0.0,0.0,0.0,0.0,0.0,0.0,0.0,0.0,0.0,0.0,0.0,0.0,0.0,0.0,0.0,0.0,0.0,0.0,0.0,0.0,0.0,0.0,0.0,0.0,0.0,0.0,0.0,0.0,0.0,0.0,0.0,0.0,0.0,0.0,0.0,0.0,0.0,-0.8595,-0.9795,-1.0731,-1.1151,-1.1194,-1.1028,-1.0608,-1.0078,-0.9285,-0.8151,0.0,0.0,0.0,0.0,0.0,0.0,0.0,0.0,0.0,0.0,0.0,0.0,0.0,0.0,0.0,0.0,0.0,0.0,0.0,0.0,0.0,0.0,0.0,0.0,0.0,0.0,0.0,0.0,0.0,0.0,0.0,0.0,0.0,0.0,0.0,0.0,0.0,0.0,0.0,0.0,0.0,0.0,0.0,0.0,0.0,0.0,0.0,0.0,0.0,0.0,0.0,0.0,0.0,0.0,0.0,0.0,0.0,0.0,0.0,0.0,0.0,0.0,0.0,0.0,0.0,0.0,0.0,0.0,0.0,0.0,0.0,0.0,0.0,0.0,0.0,0.0,0.0,0.0,0.0,0.0,0.0,0.0,0.0,0.0,0.0,0.0,0.0,0.0,0.0,0.0,0.0,0.0,0.0,0.0,0.0,0.0,0.0,0.0,0.0,0.0,0.0,0.0,-0.8609,-0.9795,-1.0731,-1.1151,-1.1194,-1.1061,-1.0731,-1.0319,-0.9578,-0.8401,0.0,0.0,0.0,0.0,0.0,0.0,0.0,0.0,0.0,0.0,0.0,0.0,0.0,0.0,0.0,0.0,0.0,0.0,0.0,0.0,0.0,0.0,0.0,0.0,0.0,0.0,0.0,0.0,0.0,0.0,0.0,0.0,0.0,0.0,0.0,0.0,0.0,0.0,0.0,0.0,0.0,0.0,0.0,0.0,0.0,0.0,0.0,0.0,0.0,0.0,0.0,0.0,0.0,0.0,0.0,0.0,0.0,0.0,0.0,0.0,0.0,0.0,0.0,0.0,0.0,0.0,0.0,0.0,0.0,0.0,0.0,0.0,0.0,0.0,0.0,0.0,0.0,0.0,0.0,0.0,0.0,0.0,0.0,0.0,0.0,0.0,0.0,0.0,0.0,0.0,0.0,0.0,0.0,0.0,0.0,0.0,0.0,0.0,0.0,0.0,0.0,0.0,-0.8576,-0.9823,-1.0754,-1.1151,-1.1194,-1.1113,-1.0915,-1.0513,-0.9833,-0.8798,0.0,0.0,0.0,0.0,0.0,0.0,0.0,0.0,0.0,0.0,0.0,0.0,0.0,0.0,0.0,0.0,0.0,0.0,0.0,0.0,0.0,0.0,0.0,0.0,0.0,0.0,0.0,0.0,0.0,0.0,0.0,0.0,0.0,0.0,0.0,0.0,0.0,0.0,0.0,0.0,0.0,0.0,0.0,0.0,0.0,0.0,0.0,0.0,0.0,0.0,0.0,0.0,0.0,0.0,0.0,0.0,0.0,0.0,0.0,0.0,-0.6549,0.0,0.0,0.0,0.0,0.0,0.0,0.0,0.0,0.0,0.0,0.0,0.0,0.0,0.0,0.0,0.0,0.0,0.0,0.0,0.0,0.0,0.0,0.0,0.0,0.0,0.0,0.0,0.0,0.0,0.0,0.0,0.0,0.0,0.0,0.0,0.0,0.0,0.0,0.0,0.0,0.0,-0.8316,-0.9777,-1.092,-1.1165,-1.1194,-1.1113,-1.0915,-1.0513,-0.9899,-0.9011,-0.8174,0.0,0.0,0.0,0.0,0.0,0.0,0.0,0.0,0.0,0.0,0.0,0.0,0.0,0.0,0.0,0.0,0.0,0.0,0.0,0.0,0.0,0.0,0.0,0.0,0.0,0.0,0.0,0.0,0.0,0.0,0.0,0.0,0.0,0.0,0.0,0.0,0.0,0.0,0.0,0.0,0.0,0.0,0.0,0.0,0.0,0.0,0.0,0.0,0.0,0.0,0.0,0.0,0.0,0.0,0.0,0.0,0.0,0.0,0.0,0.0,-0.6645,0.0,0.0,0.0,0.0,0.0,0.0,0.0,0.0,0.0,0.0,0.0,0.0,0.0,0.0,0.0,0.0,0.0,0.0,0.0,0.0,0.0,0.0,0.0,0.0,0.0,0.0,0.0,0.0,0.0,0.0,0.0,0.0,0.0,0.0,0.0,0.0,0.0,0.0,0.0,0.0,-0.8679,-0.9995,-1.0972,-1.1175,-1.1194,-1.1151,-1.1047,-1.0749,-1.0258,-0.9516,-0.8784,0.0,0.0,0.0,0.0,0.0,0.0,0.0,0.0,0.0,0.0,0.0,0.0,0.0,0.0,0.0,0.0,0.0,0.0,0.0,0.0,0.0,0.0,0.0,0.0,0.0,0.0,0.0,0.0,0.0,0.0,0.0,0.0,0.0,0.0,0.0,0.0,0.0,0.0,0.0,0.0,0.0,0.0,0.0,0.0,0.0,0.0,0.0,0.0,0.0,0.0,0.0,0.0,0.0,-0.5803,-0.592,-0.5923,-0.6855,-0.7624,-0.8175,-0.7085,-0.6675,-0.6678,-0.6558,0.0,0.0,0.0,0.0,0.0,0.0,0.0,0.0,0.0,0.0,0.0,0.0,0.0,0.0,0.0,0.0,0.0,0.0,0.0,0.0,0.0,0.0,0.0,0.0,-0.9358,-0.9753,0.0,0.0,0.0,0.0,0.0,0.0,0.0,0.0,0.0,0.0,0.0,0.0,-0.9192,-1.0229,-1.1009,-1.1179,-1.1194,-1.1194,-1.1194,-1.1009,-1.0655,-1.0186,-0.9478,-0.8789,0.0,0.0,0.0,0.0,0.0,0.0,0.0,0.0,0.0,0.0,0.0,0.0,0.0,0.0,0.0,0.0,0.0,0.0,0.0,0.0,0.0,0.0,0.0,0.0,0.0,0.0,0.0,0.0,0.0,0.0,0.0,0.0,-0.5512,-0.5037,0.0,0.0,0.0,0.0,0.0,0.0,0.0,0.0,0.0,0.0,0.0,0.0,0.0,-0.5561,-0.5784,-0.6124,-0.6295,-0.6298,-0.6545,-0.6662,-0.6662,-0.7504,-0.7623,-0.7012,-0.7545,0.0,-0.8186,-0.717,0.0,0.0,0.0,0.0,0.0,0.0,0.0,0.0,0.0,0.0,0.0,0.0,0.0,0.0,0.0,0.0,0.0,0.0,0.0,0.0,0.0,0.0,-1.1133,-1.103,-1.0569,-1.0117,0.0,-0.9155,-0.8562,-0.8222,-0.7419,0.0,0.0,0.0,0.0,0.0,0.0,0.0,-0.9125,-1.0343,-1.1165,-1.1194,-1.1194,-1.1194,-1.1194,-1.1009,-1.0778,-1.0508,-0.9908,-0.9351,-0.8878,-0.8085,0.0,0.0,0.0,0.0,0.0,0.0,0.0,0.0,0.0,0.0,0.0,0.0,0.0,0.0,0.0,0.0,0.0,0.0,0.0,0.0,0.0,0.0,0.0,0.0,0.0,0.0,0.0,0.0,0.0,-0.5713,-0.5796,-0.5122,-0.5296,-0.5133,0.0,0.0,0.0,0.0,0.0,0.0,0.0,0.0,0.0,-0.5958,-0.6089,-0.6265,-0.6507,-0.6798,-0.6942,-0.6942,-0.7122,-0.7206,-0.7203,-0.8091,-0.831,-0.7976,-0.8313,-0.8536,-0.8625,-0.7534,-0.733,-0.7465,0.0,0.0,0.0,0.0,-0.7013,-0.759,-0.7327,-0.75,0.0,-0.7121,0.0,0.0,0.0,0.0,0.0,0.0,0.0,0.0,0.0,0.0,-1.0826,-1.0941,-1.1066,-1.1039,-1.0954,-1.0591,-0.987,0.0,-0.794,-0.7575,-0.7446,0.0,0.0,0.0,0.0,-0.9139,-0.9889,-1.073,-1.1194,-1.1194,-1.1194,-1.1194,-1.1194,-1.1113,-1.0976,-1.0768,-1.0386,-0.9979,-0.9563,-0.8859,-0.8184,0.0,0.0,0.0,0.0,0.0,0.0,0.0,0.0,0.0,0.0,0.0,0.0,0.0,0.0,0.0,0.0,0.0,0.0,0.0,0.0,0.0,0.0,0.0,0.0,0.0,0.0,0.0,0.0,-0.569,-0.5905,-0.5225,-0.5548,-0.5518,0.0,0.0,0.0,0.0,0.0,0.0,-0.5809,-0.6021,-0.6298,-0.6654,-0.6755,-0.6904,-0.7119,-0.7296,-0.7383,-0.7383,-0.7475,-0.7519,-0.7519,-0.8209,-0.8439,-0.8439,-0.8439,-0.8439,-0.839,-0.7651,-0.7722,-0.8268,-0.7901,-0.843,-0.9287,-0.8376,-0.8284,-0.8596,-0.8445,-0.8442,-0.8392,-0.7804,0.0,-0.7574,-0.68,0.0,0.0,0.0,0.0,-0.8011,-0.8424,-0.9305,-1.0063,-1.035,-1.0712,-1.0918,-1.0918,-1.0772,-1.0358,0.0,-0.8812,-0.8661,-0.7956,0.0,0.0,0.0,0.0,-0.9786,-1.0688,-1.1052,-1.1279,-1.1279,-1.1227,-1.1194,-1.1194,-1.1194,-1.1132,-1.0981,-1.0773,-1.0518,-1.0206,-0.9592,-0.8987,-0.8406,0.0,0.0,0.0,0.0,0.0,0.0,0.0,0.0,0.0,0.0,0.0,0.0,0.0,0.0,0.0,0.0,0.0,0.0,0.0,0.0,0.0,0.0,0.0,0.0,0.0,0.0,0.0,0.0,0.0,-0.5214,-0.5366,0.0,0.0,0.0,0.0,-0.5496,-0.5839,-0.6195,-0.6545,-0.6687,-0.6921,-0.7279,-0.7296,-0.7361,-0.7491,-0.7502,-0.7508,-0.751,-0.7516,-0.7519,-0.7519,-0.7519,-0.7516,-0.7516,-0.7516,-0.7516,-0.7505,-0.7353,-0.7665,-0.8191,-0.837,-0.8141,-0.7808,-0.8166,-0.813,-0.7725,-0.716,-0.7419,-0.7957,-0.722,-0.7293,-0.7462,-0.7406,-0.7274,0.0,0.0,-0.8792,-0.8289,-1.0172,-1.0059,-0.9574,-0.9843,-0.9226,-0.8682,-0.8682,-0.8567,-0.8789,0.0,-1.0418,-1.0382,-0.9389,0.0,-0.9473,-1.0103,-1.0102,-1.0254,-1.1039,-1.1359,-1.1501,-1.1501,-1.1316,-1.1194,-1.1194,-1.1194,-1.1189,-1.1179,-1.099,-1.0872,-1.0849,-1.0244,-0.97,-0.9271,-0.8255,0.0,0.0,0.0,0.0,0.0,0.0,0.0,0.0,0.0,0.0,0.0,0.0,0.0,0.0,0.0,0.0,0.0,0.0,0.0,0.0,0.0,0.0,0.0,0.0,0.0,0.0,0.0,0.0,-0.6505,-0.7211,0.0,-0.5822,-0.5852,-0.6029,-0.6225,-0.6502,-0.6787,-0.7065,-0.7198,-0.7323,-0.7451,-0.7529,-0.7592,-0.7635,-0.7788,-0.7864,-0.7864,-0.7943,-0.7978,-0.7978,-0.7978,-0.7978,-0.7978,-0.7978,-0.7978,-0.7975,-0.7932,-0.854,-0.9546,-0.9599,-1.0293,-1.108,-1.0028,-0.9906,-1.02,-0.9363,-0.8937,-0.8488,-0.7556,-0.7158,-0.7163,-0.712,-0.7075,-0.7258,-0.7824,-0.7724,-0.7738,-0.9033,-0.9061,-0.8965,-0.9673,-0.9578,-0.9361,-0.9361,-0.9315,-0.9243,-0.9133,-1.0008,-1.0484,-0.9774,-1.0351,-1.0681,-1.014,-1.0726,-1.1212,-1.1586,-1.1661,-1.1661,-1.1534,-1.1449,-1.1345,-1.1208,-1.1194,-1.1142,-1.1009,-1.0934,-1.0778,-1.0508,-1.0277,-0.9894,-0.9332,-0.8699,-0.7938,0.0,0.0,0.0,0.0,0.0,0.0,0.0,0.0,0.0,0.0,0.0,0.0,0.0,0.0,0.0,0.0,0.0,0.0,0.0,0.0,0.0,0.0,0.0,0.0,0.0,0.0,-0.7978,-0.6938,-0.7717,-0.7688,-0.6382,-0.6448,-0.6649,-0.6847,-0.7048,-0.7252,-0.7448,-0.7535,-0.7616,-0.7695,-0.7777,-0.7839,-0.788,-0.8035,-0.8114,-0.8117,-0.8195,-0.8236,-0.8236,-0.8236,-0.8236,-0.8236,-0.8236,-0.8236,-0.8233,-0.8617,-0.9287,-1.0144,-1.0087,-1.0586,-1.1193,-1.0259,-1.0109,-1.0178,-0.9596,-0.902,-0.8314,-0.7651,-0.7293,-0.7165,-0.7165,-0.7165,-0.7276,-0.7493,-0.7441,-0.7503,-0.8398,-0.8401,-0.8289,-0.8848,-0.9032,-0.8994,-0.8994,-0.9175,-0.9251,-0.9034,-0.9954,-1.0556,-0.9839,-1.0914,-1.1601,-1.065,-1.1289,-1.1926,-1.1926,-1.1926,-1.1874,-1.1742,-1.1605,-1.1463,-1.1316,-1.1175,-1.1066,-1.1,-1.0863,-1.0697,-1.0494,-1.0277,-0.9965,-0.9545,-0.8987,-0.8297,-0.7531,0.0,0.0,0.0,0.0,0.0,0.0,0.0,0.0,0.0,0.0,0.0,0.0,0.0,0.0,0.0,0.0,0.0,0.0,0.0,0.0,0.0,0.0,0.0,-0.6685,-0.706,-0.7105,-0.6471,-0.6705,-0.6771,-0.6654,-0.6959,-0.7217,-0.7339,-0.7462,-0.7584,-0.7706,-0.7714,-0.7823,-0.8051,-0.806,-0.8117,-0.8233,-0.8239,-0.8242,-0.8242,-0.8244,-0.8247,-0.8247,-0.8247,-0.8247,-0.8247,-0.8247,-0.8247,-0.8244,-0.9261,-0.9637,-0.9621,-0.9603,-0.8894,-0.7957,-0.8904,-0.8579,-0.7652,-0.7532,-0.7529,-0.7529,-0.7529,-0.7527,-0.7524,-0.7524,-0.7521,-0.7633,-0.8555,-0.8093,-0.7749,-0.8555,-0.8093,-0.7519,-0.7519,-0.7426,-0.7339,-0.7342,-0.7921,-0.8716,-0.9588,-1.0472,-1.0748,-0.9704,-1.0967,-1.2077,-1.1765,-1.2016,0.0,-1.2148,-1.2148,-1.2148,-1.2139,-1.1779,-1.1534,-1.152,-1.1146,-1.099,-1.1165,-1.0797,-1.0664,-1.0868,-1.0286,-1.0047,-1.0038,-0.9133,-0.8514,-0.8108,0.0,0.0,0.0,0.0,0.0,0.0,0.0,0.0,0.0,0.0,0.0,0.0,0.0,0.0,0.0,0.0,0.0,0.0,0.0,0.0,0.0,0.0,-0.8592,-0.8592,-0.8171,-0.7875,-0.7703,-0.8001,-0.7844,-0.7141,-0.7307,-0.747,-0.7592,-0.7709,-0.7828,-0.7951,-0.804,-0.8119,-0.8185,-0.8185,-0.8201,-0.8236,-0.8323,-0.8367,-0.8369,-0.8451,-0.8489,-0.8489,-0.8489,-0.8489,-0.8489,-0.8489,-0.8489,-0.8492,-0.8752,-0.8833,-0.8869,-1.0129,-1.052,-1.0326,-1.1317,-1.1456,-1.0925,-0.9372,-0.8859,-0.8738,-0.8015,-0.772,-0.7652,-0.7652,-0.7589,-0.7519,-0.7749,-0.7633,-0.7519,-0.7749,-0.7633,-0.7519,-0.7519,-0.8069,-0.8387,-0.7583,-0.8244,-0.8644,-0.8091,-0.8749,-0.9601,-1.0534,-1.1593,-1.2121,-1.1414,-1.1887,0.0,-1.2356,-1.2356,-1.2304,-1.2153,-1.2039,-1.1846,-1.1543,-1.1416,-1.1175,-1.0768,-1.0636,-1.0537,-1.0447,-1.0277,-1.0112,-1.0043,-0.9285,-0.8878,0.0,0.0,0.0,0.0,0.0,0.0,0.0,0.0,0.0,0.0,0.0,0.0,0.0,0.0,0.0,0.0,0.0,0.0,0.0,0.0,0.0,0.0,-0.9153,-0.9284,-0.953,-0.8698,-0.811,-0.7874,-0.8036,-0.7949,-0.7478,-0.7597,-0.7954,-0.8441,-0.8203,-0.8304,-0.8752,-0.845,-0.8258,-0.831,-0.8312,-0.8334,-0.838,-0.8454,-0.8489,-0.8489,-0.8557,-0.8587,-0.8587,-0.8587,-0.8587,0.0,-0.9117,-0.8984,-0.872,-0.9513,-0.9338,0.0,0.0,0.0,0.0,0.0,-1.0706,-1.0489,-0.929,-0.8895,-0.8762,-0.8212,-0.7902,-0.7839,-0.7788,-0.7722,-0.7665,-0.7665,-0.7903,-0.826,-0.826,-0.8616,-0.8732,-0.8379,-0.8688,-0.8762,-0.783,-0.802,-0.8421,-0.8571,-0.8964,0.0,-1.1487,-1.1841,-1.1673,-1.1126,-1.1891,-1.2441,-1.2441,-1.2441,-1.2394,-1.2276,-1.2191,-1.2044,-1.1798,-1.1534,0.0,0.0,0.0,-1.0485,-1.0282,-1.0272,0.0,0.0,0.0,0.0,0.0,0.0,0.0,0.0,-0.9176,-0.9256,0.0,0.0,0.0,0.0,0.0,0.0,0.0,0.0,0.0,0.0,0.0,0.0,0.0,0.0,0.0,0.0,-0.9145,-0.9473,-0.9783,-0.8951,-0.8103,-0.7556,-0.7369,-0.7467,-0.7698,-0.7944,-0.8433,-0.943,-0.8816,-0.8765,-0.9656,0.0,0.0,0.0,0.0,-0.8618,-0.8587,-0.8587,-0.8587,-0.8587,-0.8587,-0.8587,-0.8587,-0.8587,-0.8587,-0.8587,-0.9646,-0.9516,-0.872,-1.0704,-1.0306,-0.8579,-0.8475,-0.8369,-0.84,-0.8261,-0.8255,-0.8381,-0.8239,0.0,0.0,-0.8108,-0.8198,-0.8304,-0.8189,-0.8144,-0.8255,-0.8255,-0.8857,-0.9457,-0.9335,-0.9943,-1.0425,-0.9335,-0.9118,-0.891,-0.8079,-0.7872,-0.8371,-0.9982,-1.0208,-1.0545,-1.2208,-1.1811,-1.1236,-1.1236,-1.1891,-1.2441,-1.2441,-1.2441,-1.2441,-1.2441,0.0,0.0,-1.2143,-1.1624,-1.1354,-1.1472,-1.0934,-1.0532,-1.0353,-1.0367,-1.0367,-1.0343,-1.0343,-1.0433,-1.0612,-1.0825,-1.0844,-1.066,-0.9734,-0.9691,0.0,0.0,0.0,0.0,0.0,0.0,0.0,0.0,0.0,0.0,0.0,0.0,0.0,0.0,0.0,-1.0833,-1.0841,-1.0546,-1.0085,-0.9295,-0.8804,-0.8743,-0.8037,-0.7684,-0.7823,-0.8682,-0.9062,-0.8571,-0.9209,-0.9417,-0.877,-0.9383,-0.9453,-0.8554,-0.9344,-0.9489,-0.8587,-0.8587,-0.8587,-0.8587,0.0,0.0,-0.8587,-0.8587,-0.8587,-0.8587,-0.8853,-0.8853,-0.8587,-0.8984,-0.8984,-0.8584,-0.8562,-0.9068,-0.9689,-0.8677,-0.89,-0.9528,-0.8525,-0.8236,-0.8231,-0.8206,-0.8704,-0.9459,-0.9431,-0.9965,0.0,-1.0482,-1.0519,-1.0304,-0.9457,-0.9457,-0.9335,-0.836,-0.8705,-0.9176,-0.9054,-0.9633,-1.0296,-1.0521,-1.0465,-1.0477,-1.0666,-1.147,-1.2114,-1.2114,-1.2327,-1.2441,-1.2441,-1.2441,-1.2441,-1.2441,-1.2403,-1.2318,-1.2153,-1.203,-1.1756,-1.1288,-1.099,-1.0816,-1.0778,-1.0929,-1.0943,-1.0778,-1.0778,-1.0792,-1.0834,-1.1038,-1.1203,-1.1331,-1.1127,-1.1028,0.0,0.0,0.0,0.0,0.0,0.0,0.0,0.0,0.0,0.0,0.0,-0.9375,-1.0234,0.0,-1.0162,-1.0531,-1.1021,-1.1023,-1.0375,-1.036,-1.0062,-0.9248,-0.8725,-0.8489,-0.8679,-0.9315,-0.9456,-0.9086,-0.9736,-0.9811,-0.9291,-0.9877,-0.9646,-0.8587,-0.9117,-0.9117,-0.8587,-0.9183,-0.9618,-0.9618,-0.9682,-0.9983,-1.0522,-0.9847,-0.9712,-0.9706,-1.0181,-0.975,-0.8674,-0.8611,-0.8851,-0.9383,-0.8853,-0.8984,-0.9374,-0.9312,-0.9683,-1.0064,-0.999,-0.9707,-0.9308,-0.9751,-0.9861,-0.9851,-0.978,-1.0086,-1.0399,-0.9774,-0.9972,-1.0146,-0.9578,-0.9804,-1.0029,-0.9467,-0.9697,-1.0061,-1.0061,-1.0425,-1.0884,-1.1276,-1.1304,-1.1306,-1.1718,-1.2325,-1.2571,-1.1814,-1.211,-1.2441,-1.2441,-1.2441,-1.2441,-1.2441,-1.2441,-1.2398,-1.2299,-1.2195,-1.1959,-1.1534,-1.1411,-1.1354,-1.1354,-1.1453,-1.1458,-1.1359,-1.1354,-1.1354,-1.1354,-1.1458,-1.1562,-1.1671,-1.1779,-1.1713,0.0,0.0,0.0,0.0,0.0,0.0,0.0,0.0,-0.9418,-1.0101,-0.9967,-1.0072,-1.118,-1.0651,-1.004,-1.0253,-1.1143,-1.1612,-1.0969,-1.1508,-1.141,-0.9996,-0.94,-0.9274,-0.9305,-0.9687,-0.9954,-0.9742,-1.0244,-1.0309,-0.9911,-1.0044,-0.9779,-0.8987,-0.9143,-0.9288,-0.9288,-1.0364,-1.0703,-1.0571,-1.0682,-1.101,-1.1703,-1.0737,-1.0323,-1.0451,-1.1131,-1.0393,-0.8761,-0.8638,-0.9117,-0.9779,-0.8987,-0.8587,-0.872,-0.9513,-0.9911,-1.0044,-1.0836,-1.0571,-1.0025,-1.0823,-1.0527,-0.999,-0.9874,-0.9947,-0.9927,-0.9035,-0.9398,-0.9852,-0.9609,-1.0301,-1.0867,-1.0619,-1.069,-1.091,-1.1031,-1.1031,-1.139,-1.2359,-1.235,-1.2469,-1.3278,-1.3244,-1.2757,-1.1572,-1.2064,-1.2488,-1.2446,-1.2441,-1.2441,-1.2441,-1.2441,-1.2441,-1.2441,-1.2257,-1.2063,-1.1893,-1.1841,-1.1817,-1.1817,-1.1817,-1.1817,-1.1817,-1.1817,-1.1817,-1.1817,-1.186,-1.1879,-1.1883,-1.2096,-1.2082,-0.9694,-1.0,-1.0362,-1.0812,-1.0695,-1.0864,0.0,0.0,-1.1338,-1.2213,-1.1919,-1.162,-1.1983,-1.2,-1.2119,-1.2353,-1.2831,-1.2858,-1.1946,-1.1975,-1.2084,-1.1844,-1.0397,-0.9057,-0.8444,-1.0129,-1.0507,-0.8814,-1.0561,-1.0836,-0.8853,-0.9646,-1.0174,-1.0041,-1.1104,-1.1716,-1.1716,-1.2009,-1.1674,-1.0711,-1.0727,-1.0184,-0.9226,-0.9226,-0.909,-0.9082,-0.9094,-0.9041,-0.8761,-0.8638,-0.872,-0.872,-0.8587,-0.8587,-0.8587,-0.872,-0.872,-0.8853,-0.8851,-0.8853,-0.8851,-0.8837,-0.9492,-1.0151,-1.0132,-1.0695,-1.1239,-1.111,-1.1005,-1.076,-0.9859,-1.0385,-1.0769,-0.9888,-1.0278,-1.1031,-1.1872,-1.1993,-1.2359,-1.3324,-1.3545,-1.3475,-1.3419,-1.3372,-1.3211,-1.2683,-1.2729,-1.2658,-1.2465,-1.2441,-1.2441,-1.2441,-1.2441,-1.2441,-1.2441,-1.2257,-1.2129,-1.2106,-1.1926,-1.1817,-1.1817,-1.1817,-1.1817,-1.1817,-1.1817,-1.1817,-1.1817,-1.2011,-1.2101,-1.2106,-1.2313,-1.2299,-1.1594,-1.1642,0.0,0.0,-1.2464,-1.2553,-1.321,-1.2683,-1.2268,-1.323,-1.2631,-1.2173,-1.271,-1.2707,-1.2474,0.0,-1.2841,-1.3071,-1.2222,-1.2667,-1.2795,-1.2082,-1.1447,-1.067,-0.9979,-1.064,-1.051,-0.8701,-1.0571,-1.1101,-0.9646,-1.1097,-1.1806,-1.1372,-1.1843,-1.2195,-1.2289,-1.2455,-1.226,-1.1838,-1.1228,-1.0989,-1.1137,-1.0429,-1.0103,-1.0025,-0.9279,-0.8902,-0.8766,-0.8715,-0.8652,-0.8587,-0.8587,-0.8587,-0.872,-0.925,-0.9516,-0.9646,-1.0306,-1.0044,-0.9646,-1.0306,-1.0836,-1.1101,-1.1101,-1.1845,-1.2449,-1.1796,-1.1612,-1.1405,-1.0923,-1.1104,-1.1385,-1.1313,-1.1464,-1.2,-1.2866,-1.3084,-1.3204,-1.3569,-1.3688,-1.366,-1.358,-1.3566,-1.3466,-1.3173,-1.3022,-1.2866,-1.2658,-1.263,-1.2583,-1.245,-1.2441,-1.2441,-1.2441,-1.2361,-1.2313,-1.2313,-1.2228,-1.2176,-1.2176,-1.2176,-1.2176,-1.2176,-1.2176,-1.2176,-1.2181,-1.2271,-1.2313,-1.2318,-1.2398,-1.2394,-1.2711,0.0,0.0,-1.3568,-1.3844,-1.405,-1.4028,-1.3485,-1.3217,-1.4046,-1.3285,-1.2588,-1.3176,-1.3062,0.0,-1.2109,-1.278,-1.3221,-1.2693,-1.3159,-1.3328,-1.2513,-1.2469,-1.2306,-1.1549,-1.1244,-1.0493,-0.905,-1.068,-1.1497,-1.0704,-1.2025,-1.2769,-1.255,-1.233,-1.2566,-1.3421,-1.3184,-1.2993,-1.2574,-1.1834,-1.1603,-1.1746,-1.1172,-1.0827,-1.0303,-0.9847,-0.931,-0.8867,-0.8799,-0.8853,-0.9032,-0.8998,-0.925,-0.9513,-1.0306,-1.0439,-1.0306,-1.1365,-1.1233,-1.0836,-1.1497,-1.1762,-1.1762,-1.1762,-1.2289,-1.2684,-1.2025,-1.1762,-1.1732,-1.1743,-1.1804,-1.2098,-1.2474,-1.2832,-1.3092,-1.3686,-1.3731,-1.3688,-1.3688,-1.3688,-1.3688,-1.3688,-1.3688,-1.3641,-1.3495,-1.3339,-1.3145,-1.2885,-1.28,-1.2682,-1.246,-1.2441,-1.2441,-1.2441,-1.2441,-1.2441,-1.2441,-1.2441,-1.2441,-1.2441,-1.2441,-1.2441,-1.2441,-1.2441,-1.2441,-1.2441,-1.2441,-1.2441,-1.2441,-1.2502,-1.2531,0.0,0.0,-1.3924,-1.4201,-1.4684,-1.5149,-1.5403,-1.4949,-1.4611,-1.4866,-1.4062,-1.331,-1.3315,-1.3062,-1.2833,-1.3036,-1.3249,-1.3457,-1.366,-1.3518,-1.3471,-1.3655,-1.3514,-1.3081,0.0,-1.1686,-1.0966,-0.9967,-1.1151,-1.1762,-1.1762,-1.1762,-1.2371,-1.3629,-1.271,-1.3425,-1.5709,-1.4921,-1.388,-1.2742,-1.2602,-1.1459,-0.9449,-1.0452,-1.0449,-0.9435,-1.0306,-1.0106,-0.9106,-0.887,-0.9443,-1.0373,-1.0232,-1.0836,-1.1762,-1.1762,-1.1101,-1.0306,-1.1365,-1.1762,-1.1762,-1.1762,-1.1762,-1.1762,-1.1762,-1.1762,-1.1894,-1.1762,-1.1762,-1.1758,-1.1754,-1.2425,-1.2942,-1.2934,-1.3416,-1.401,-1.4005,-1.384,-1.3688,-1.3688,-1.3688,-1.3688,-1.3688,-1.3688,-1.3688,-1.3679,-1.3674,-1.3523,-1.3112,-1.2885,-1.2682,-1.246,-1.2441,-1.2441,-1.2441,-1.2441,-1.2441,-1.2441,-1.2441,-1.2441,-1.2441,-1.2441,-1.2441,-1.2441,-1.2441,-1.2441,-1.2441,-1.2441,-1.2441,-1.2446,-1.2658,-1.2758,0.0,0.0,-1.4316,-1.4938,-1.5234,-1.5439,-1.5698,-1.5335,-1.4993,-1.5229,-1.4467,-1.3678,-1.3832,-1.349,-1.3167,-1.3374,-1.3385,-1.3462,-1.366,-1.3632,-1.3566,-1.3499,-1.3551,0.0,0.0,0.0,0.0,-1.0987,-1.1965,-1.2698,-1.2812,-1.3592,-1.429,-1.4905,-1.4817,-1.5153,-1.6075,-1.4995,-1.4315,-1.3888,-1.3031,-1.232,-1.1603,-1.189,-1.1459,-1.0449,-1.0833,-1.0618,-1.0103,-0.9321,-1.0019,-1.1472,-1.0607,-1.0929,-1.1894,-1.2553,-1.2553,-1.2157,-1.1894,-1.1762,-1.1762,-1.1762,-1.2289,-1.2816,-1.2816,-1.3346,-1.3875,-1.3875,-1.3875,-1.3875,-1.3875,-1.4092,-1.4271,-1.4143,-1.427,-1.4345,-1.4071,-1.3953,-1.3859,-1.3717,-1.3688,-1.3688,-1.3688,-1.3688,-1.3688,-1.3688,-1.3575,-1.3438,-1.3301,-1.298,-1.2739,-1.2663,-1.2526,-1.2441,-1.2441,-1.2441,-1.2441,-1.2441,-1.2441,-1.2441,-1.2441,-1.2441,-1.2441,-1.2441,-1.2441,-1.2441,-1.2441,-1.2441,-1.2517,-1.2658,-1.2734,-1.2838,-1.4165,-1.4515,-1.4757,-1.5463,-1.5638,-1.568,-1.5849,-1.55,-1.5282,-1.5431,-1.4619,-1.3854,-1.3885,-1.333,-1.2889,-1.3231,-1.3211,-1.3291,-1.3641,-1.3627,-1.3589,-1.3608,-1.3655,-1.3449,0.0,0.0,0.0,-1.2063,-1.2709,-1.3353,-1.3866,-1.4718,-1.5333,-1.5555,-1.5339,-1.5542,-1.6178,-1.503,-1.4457,-1.4457,-1.3317,-1.2749,-1.2749,-1.3178,-1.2745,-1.1603,-1.2029,-1.1973,-1.145,-1.07,-1.1236,-1.2636,-1.1902,-1.2178,-1.2951,-1.3608,-1.3875,-1.3739,-1.3083,-1.2951,-1.2951,-1.2951,-1.3346,-1.3875,-1.3875,-1.4403,-1.4931,-1.4931,-1.4931,-1.4931,-1.4931,-1.4931,-1.4903,-1.477,-1.4685,-1.4558,-1.4293,-1.4175,-1.4057,-1.3844,-1.3802,-1.3778,-1.3703,-1.3688,-1.3688,-1.3688,-1.358,-1.3471,-1.34,-1.3154,-1.2961,-1.288,-1.2748,-1.2663,-1.2663,-1.2597,-1.2554,-1.2554,-1.2484,-1.2441,-1.2441,-1.2441,-1.2441,-1.2441,-1.2517,-1.2554,-1.2559,-1.263,-1.2734,-1.2876,-1.2956,-1.306,-1.4588,-1.4938,-1.527,-1.5765,-1.5891,-1.5885,-1.5873,-1.568,-1.5481,-1.5427,-1.4607,-1.3729,0.0,0.0,-1.2382,-1.2698,-1.2758,-1.2999,-1.3618,-1.3542,-1.357,0.0,0.0,0.0,0.0,0.0,0.0,-1.3065,0.0,-1.3866,-1.4814,-1.5139,-1.5347,-1.5569,-1.4661,-1.485,-1.6178,-1.5172,-1.46,-1.46,-1.346,-1.2892,-1.2892,-1.403,-1.3888,-1.2892,-1.403,-1.3888,-1.2738,-1.2719,-1.311,-1.3895,-1.3718,-1.4201,-1.4945,-1.4936,-1.4931,-1.4931,-1.4931,-1.4931,-1.4931,-1.4931,-1.4931,-1.4931,-1.4931,-1.4931,-1.4931,-1.4931,-1.4931,-1.4931,-1.4931,-1.4931,-1.4931,-1.4931,-1.4789,-1.4648,-1.4638,-1.4473,-1.427,-1.4066,-1.4019,-1.3944,-1.3726,-1.3688,-1.3688,-1.3688,-1.3688,-1.3618,-1.3429,-1.3395,-1.331,-1.3102,-1.3074,-1.3065,-1.3065,-1.2895,-1.2781,-1.2781,-1.2587,-1.2474,-1.2474,-1.2474,-1.2474,-1.2474,-1.2677,-1.2781,-1.2781,-1.2975,-1.3074,-1.3088,-1.3291,-1.3395,-1.4859,-1.5342,-1.5722,-1.5855,-1.5891,-1.5837,-1.5644,-1.5547,-1.5276,-1.4473,-1.4106,-1.3567,-1.2604,0.0,0.0,-1.2601,-1.2913,0.0,-1.384,-1.3887,0.0,0.0,0.0,-1.4194,-1.4303,-1.4459,0.0,0.0,-1.4258,-1.4577,-1.5139,-1.5356,-1.5574,-1.5777,-1.571,-1.5839,-1.6183,-1.5895,-1.5753,-1.5749,-1.5465,-1.5323,-1.5323,-1.5607,-1.5177,-1.403,-1.4315,-1.4315,-1.4026,-1.2986,-1.3717,-1.5201,-1.4177,-1.4392,-1.5139,-1.4988,-1.4931,-1.4931,-1.4931,-1.4931,-1.4931,-1.4931,-1.4931,-1.4931,-1.4931,-1.4931,-1.4931,-1.4931,-1.4931,-1.4931,-1.4931,-1.4931,-1.4931,-1.4931,-1.4893,-1.4818,-1.4666,-1.4591,-1.4487,-1.4274,-1.4114,-1.3944,-1.3726,-1.3688,-1.3688,-1.3688,-1.3688,-1.367,-1.3618,-1.348,-1.3367,-1.331,-1.3164,-1.3065,-1.3065,-1.3017,-1.2989,-1.2989,-1.2937,-1.2904,-1.2904,-1.2904,-1.2904,-1.2904,-1.2961,-1.2989,-1.2989,-1.3041,-1.315,-1.3306,-1.3367,-1.3471,-1.5167,-1.5578,-1.5891,-1.5891,-1.5801,-1.562,-1.524,-1.4974,-1.4527,-1.3574,-1.3106,0.0,-1.1629,0.0,0.0,0.0,0.0,0.0,-1.3769,-1.3953,-1.4123,0.0,-1.4454,0.0,-1.4572,-1.4695,-1.4766,0.0,-1.4846,-1.4997,-1.5219,-1.5526,-1.5744,-1.5857,-1.607,-1.6183,-1.6183,-1.6183,-1.6183,-1.6183,-1.6183,-1.6183,-1.6183,-1.6183,-1.5895,-1.5319,0.0,-1.5319,-1.5177,-1.4466,-1.4916,-1.5838,-1.4941,-1.4878,-1.5205,-1.5007,-1.4931,-1.4931,-1.4931,-1.4931,-1.4931,-1.4931,-1.4931,-1.4931,-1.4931,-1.4931,-1.4931,-1.4931,-1.4931,-1.4931,-1.4931,-1.4931,-1.4931,-1.4931,-1.4931,-1.4903,-1.4789,-1.4766,-1.4704,-1.4492,-1.4213,-1.3972,-1.3849,-1.375,-1.3688,-1.3688,-1.3688,-1.3688,-1.3688,-1.3589,-1.3523,-1.3523,-1.3414,-1.3339,-1.3339,-1.3258,-1.3206,-1.3206,-1.3121,-1.3065,-1.3065,-1.3065,-1.3065,-1.3065,-1.3159,-1.3206,-1.3206,-1.3296,-1.34,-1.3523,-1.3523,-1.358,-1.5481,-1.5716,-1.5891,-1.5891,-1.5692,-1.5354,-1.4787,-1.4244,-1.3604,-1.2729,0.0,-1.1345,-1.0616,0.0,-1.1036,-1.1149,0.0,-1.2701,-1.3566,-1.3873,-1.4166,-1.4581,-1.4657,-1.4742,-1.4917,-1.4931,-1.4931,-1.4931,-1.512,-1.5243,-1.5276,-1.5621,-1.5843,-1.59,-1.6084,-1.6183,-1.6183,-1.6183,-1.6183,-1.6183,-1.6183,-1.6183,-1.6183,-1.6183,-1.6183,-1.6183,-1.6183,0.0,-1.6183,-1.6183,-1.6056,-1.5838,-1.564,-1.5427,-1.5205,-1.5007,-1.4931,-1.4931,-1.4931,-1.4931,-1.4931,-1.4931,-1.4931,-1.4931,-1.4931,-1.4931,-1.4931,-1.4931,-1.4931,-1.4931,-1.4931,-1.4931,-1.4931,-1.4931,-1.4931,-1.4931,-1.4931,-1.4931,-1.4874,-1.4671,-1.434,-1.4076,-1.4019,-1.3854,-1.3721,-1.3693,-1.3688,-1.3688,-1.3688,-1.3688,-1.3688,-1.3688,-1.3688,-1.3688,-1.3688,-1.3528,-1.3429,-1.3429,-1.3254,-1.315,-1.315,-1.315,-1.315,-1.315,-1.3334,-1.3429,-1.3429,-1.3603,-1.3688,-1.3688,-1.3688,-1.3688,-1.5753,-1.5855,-1.5891,-1.5891,-1.5692,-1.53,-1.4545,-1.396,0.0,0.0,0.0,-1.0866,-0.9873,-1.0343,0.0,-1.0915,0.0,0.0,0.0,0.0,-1.4166,0.0,0.0,0.0,0.0,0.0,0.0,0.0,0.0,-1.5309,-1.5493,-1.5574,-1.5767,-1.6117,-1.6164,-1.6183,-1.6183,-1.6183,-1.6183,-1.6183,-1.6183,-1.6183,-1.6183,-1.6183,-1.6183,-1.6183,-1.6183,0.0,-1.6183,-1.6183,-1.6056,-1.5838,-1.564,-1.5427,-1.5205,-1.5007,-1.4931,-1.4931,-1.4931,-1.4931,-1.4931,-1.4931,-1.4931,-1.4931,-1.4931,-1.4931,-1.4931,-1.4931,-1.4931,-1.4931,-1.4931,-1.4931,-1.4931,-1.4931,-1.4931,-1.4931,-1.4931,-1.4931,-1.4874,-1.4671,-1.4577,-1.4416,-1.4071,-1.3981,-1.3896,-1.3717,-1.3688,-1.3688,-1.3688,-1.3688,-1.3688,-1.3688,-1.3688,-1.3688,-1.3688,-1.3655,-1.3636,-1.3636,-1.3603,-1.358,-1.358,-1.358,-1.358,-1.358,-1.3618,-1.3636,-1.3636,-1.367,-1.3688,-1.3688,-1.3688,-1.3688,-1.5819,-1.5891,-1.5855,-1.5722,-1.539,-1.4805,-1.3713,0.0,0.0,0.0,0.0,-0.9962,-0.9169,0.0,0.0,0.0,0.0,0.0,0.0,0.0,0.0,0.0,0.0,0.0,0.0,0.0,0.0,0.0,0.0,-1.5167,-1.538,-1.5597,-1.5857,-1.6174,-1.6183,-1.6183,-1.6183,-1.6183,-1.6183,-1.6183,-1.6183,-1.6183,-1.6183,-1.6183,-1.6183,-1.6183,-1.6183,0.0,-1.6174,-1.606,-1.5956,-1.5829,-1.5512,-1.5323,-1.5205,-1.5007,-1.4931,-1.4931,-1.4931,-1.4931,-1.4931,-1.4931,-1.4931,-1.4931,-1.4931,-1.4931,-1.4931,-1.4931,-1.4931,-1.4931,-1.4931,-1.4931,-1.4931,-1.4931,-1.4931,-1.4931,-1.4931,-1.4931,-1.4907,-1.4808,-1.4704,-1.4534,-1.4222,-1.4081,-1.3939,-1.3721,-1.3688,-1.3688,-1.3688,-1.3688,-1.3688,-1.3688,-1.3688,-1.3688,-1.3688,-1.3688,-1.3688,-1.3688,-1.3688,-1.3688,-1.3688,-1.3688,-1.3688,-1.3688,-1.3688,-1.3688,-1.3688,-1.3688,-1.3688,-1.3688,-1.3688,-1.3688,-1.5753,-1.5849,-1.5831,-1.5565,-1.5107,-1.4364,-1.2925,-1.1972,0.0,0.0,-0.9208,-0.8941,-0.8543,0.0,0.0,0.0,0.0,0.0,0.0,0.0,0.0,0.0,0.0,0.0,0.0,0.0,0.0,0.0,0.0,0.0,-1.5224,-1.5593,-1.5895,-1.6108,-1.6112,-1.6136,-1.6183,-1.6183,-1.6183,-1.6183,-1.6183,-1.6183,-1.6183,-1.6183,-1.616,-1.6112,-1.6112,0.0,0.0,-1.5867,-1.5767,-1.5692,-1.5361,-1.5205,-1.5148,-1.4993,-1.4931,-1.4931,-1.4931,-1.4931,-1.4931,-1.4931,-1.4931,-1.4931,-1.4931,-1.4931,-1.4931,-1.4931,-1.4931,-1.4931,-1.4931,-1.4931,-1.4931,-1.4931,-1.4931,-1.4931,-1.4931,-1.4931,-1.4931,-1.4931,-1.4804,-1.4629,-1.4416,-1.4213,-1.4005,-1.3792,-1.3717,-1.3688,-1.3688,-1.3688,-1.3688,-1.3688,-1.3688,-1.3688,-1.3688,-1.3688,-1.3688,-1.3688,-1.3688,-1.3688,-1.3688,-1.3688,-1.3688,-1.3688,-1.3688,-1.3688,-1.3688,-1.3688,-1.3688,-1.3688,-1.3688,-1.3688,-1.5529,-1.5704,-1.5831,-1.5565,-1.5107,-1.4268,-1.2581,0.0,0.0,-0.8964,-0.8471,-0.8264,-0.812,-0.8386,0.0,0.0,0.0,0.0,0.0,0.0,0.0,0.0,0.0,0.0,0.0,0.0,0.0,0.0,0.0,0.0,-1.5224,-1.546,-1.5682,-1.5881,-1.589,-1.5985,-1.6178,-1.6183,-1.6183,-1.6183,-1.6183,-1.6183,-1.6183,-1.6183,-1.6075,-1.589,-1.589,0.0,0.0,-1.5597,-1.547,-1.5285,-1.5248,-1.512,-1.4959,-1.4941,-1.4931,-1.4931,-1.4931,-1.4931,-1.4931,-1.4931,-1.4931,-1.4931,-1.4931,-1.4931,-1.4931,-1.4931,-1.4931,-1.4931,-1.4931,-1.4931,-1.4931,-1.4931,-1.4931,-1.4931,-1.4931,-1.4931,-1.4931,-1.4931,-1.4917,-1.4841,-1.4638,-1.4426,-1.4213,-1.401,-1.3816,-1.3688,-1.3688,-1.3688,-1.3688,-1.3688,-1.3688,-1.3688,-1.3688,-1.3688,-1.3688,-1.3688,-1.3688,-1.3688,-1.3688,-1.3688,-1.3688,-1.3688,-1.3688,-1.3688,-1.3688,-1.3688,-1.3688,-1.3688,-1.3688,-1.3688,-1.5324,-1.5572,-1.559,-1.533,-1.466,-1.3596,-1.2059,0.0,-0.9502,-0.8337,-0.8066,-0.7968,-0.788,-0.8184,-0.8609,0.0,0.0,0.0,0.0,0.0,0.0,0.0,0.0,0.0,0.0,0.0,0.0,0.0,0.0,0.0,-1.5049,-1.5252,-1.546,-1.5673,-1.5682,-1.572,-1.5805,-1.581,-1.581,-1.581,-1.581,-1.581,-1.581,-1.581,-1.5763,-1.5682,-1.5682,0.0,0.0,-1.5418,-1.5309,-1.5219,-1.5101,-1.5002,-1.4931,-1.4931,-1.4931,-1.4931,-1.4931,-1.4931,-1.4931,-1.4931,-1.4931,-1.4931,-1.4931,-1.4931,-1.4931,-1.4931,-1.4931,-1.4931,-1.4931,-1.4931,-1.4931,-1.4931,-1.4931,-1.4931,-1.4931,-1.4931,-1.4931,-1.4931,-1.4931,-1.487,-1.4666,-1.4454,-1.4241,-1.4043,-1.383,-1.3688,-1.3688,-1.3688,-1.3688,-1.3688,-1.3688,-1.3688,-1.3688,-1.3688,-1.3688,-1.3688,-1.3688,-1.3688,-1.3688,-1.3688,-1.3688,-1.3688,-1.3688,-1.3688,-1.3688,-1.3688,-1.3688,-1.3688,-1.3688,-1.3688,-1.4495,-1.4847,-1.49,-1.4642,-1.3837,-1.2755,0.0,0.0,-0.8737,-0.7824,-0.755,-0.7524,-0.7592,-0.785,-0.824,-0.8674,0.0,-0.9233,0.0,0.0,0.0,0.0,0.0,0.0,0.0,0.0,0.0,0.0,0.0,0.0,0.0,-1.5068,-1.5243,-1.5456,-1.5465,-1.5493,-1.556,-1.556,-1.556,-1.556,-1.556,-1.556,-1.556,-1.556,-1.5526,-1.5465,-1.5465,0.0,0.0,-1.521,-1.5144,-1.513,-1.4988,-1.4931,-1.4931,-1.4931,-1.4931,-1.4931,-1.4931,-1.4931,-1.4931,-1.4931,-1.4931,-1.4931,-1.4931,-1.4931,-1.4931,-1.4931,-1.4931,-1.4931,-1.4931,-1.4931,-1.4931,-1.4931,-1.4931,-1.4931,-1.4931,-1.4931,-1.4931,-1.4931,-1.4931,-1.4889,-1.4747,-1.4548,-1.4336,-1.4133,-1.392,-1.3759,-1.3698,-1.3688,-1.3688,-1.3688,-1.3688,-1.3688,-1.3688,-1.3688,-1.3688,-1.3688,-1.3688,-1.3688,-1.3688,-1.3688,-1.3688,-1.3688,-1.3688,-1.3688,-1.3688,-1.3688,-1.3688,-1.3688,-1.3688,-1.3721,-1.2833,-1.3209,-1.3502,-1.3274,-1.2677,-1.1806,0.0,-0.9268,-0.8261,-0.737,-0.6993,-0.6913,-0.7178,-0.7388,-0.7736,-0.8302,-0.8751,0.0,0.0,0.0,0.0,0.0,0.0,0.0,0.0,0.0,0.0,0.0,0.0,0.0,0.0,-1.4936,-1.5026,-1.5229,-1.5233,-1.5342,-1.556,-1.556,-1.556,-1.556,-1.556,-1.556,-1.556,-1.556,-1.5441,0.0,0.0,0.0,0.0,-1.4936,-1.4936,-1.4936,-1.4931,-1.4931,-1.4931,-1.4931,-1.4931,-1.4931,-1.4931,-1.4931,-1.4931,-1.4931,-1.4931,-1.4931,-1.4931,-1.4931,-1.4931,-1.4931,-1.4931,-1.4931,-1.4931,-1.4931,-1.4931,-1.4931,-1.4931,-1.4931,-1.4931,-1.4931,-1.4931,-1.4931,-1.4931,-1.4931,-1.4931,-1.4761,-1.4558,-1.434,-1.4137,-1.3929,-1.3717,-1.3688,-1.3688,-1.3688,-1.3688,-1.3688,-1.3688,-1.3688,-1.3688,-1.3688,-1.3688,-1.3688,-1.3688,-1.3688,-1.3688,-1.3688,-1.3688,-1.3688,-1.3688,-1.3688,-1.3688,-1.3688,-1.3688,-1.3802,-1.198,-1.2137,-1.2139,-1.1982,-1.1483,-1.0726,-0.9741,-0.8724,-0.786,-0.7307,-0.6998,-0.6857,-0.7121,-0.7388,-0.7758,-0.868,-0.8935,0.0,0.0,0.0,0.0,0.0,0.0,0.0,0.0,0.0,0.0,0.0,0.0,0.0,0.0,-1.4931,-1.4964,-1.5026,-1.5026,-1.5059,-1.513,-1.513,-1.513,-1.513,-1.513,-1.513,-1.513,-1.513,-1.5092,0.0,0.0,0.0,0.0,-1.4931,-1.4931,-1.4931,-1.4931,-1.4931,-1.4931,-1.4931,-1.4931,-1.4931,-1.4931,-1.4931,-1.4931,-1.4931,-1.4931,-1.4931,-1.4931,-1.4931,-1.4931,-1.4931,-1.4931,-1.4931,-1.4931,-1.4931,-1.4931,-1.4931,-1.4931,-1.4931,-1.4931,-1.4931,-1.4931,-1.4931,-1.4931,-1.4931,-1.4931,-1.4766,-1.461,-1.4544,-1.435,-1.4142,-1.3934,-1.391,-1.3854,-1.3703,-1.3688,-1.3688,-1.3688,-1.3688,-1.3688,-1.3688,-1.3688,-1.3688,-1.3688,-1.3688,-1.3688,-1.3688,-1.3688,-1.3688,-1.3688,-1.3688,-1.3764,-1.391,-1.391,-1.4099,0.0,-1.068,-1.0596,-1.0528,-1.0218,-0.9662,-0.895,-0.8176,-0.7447,-0.7116,-0.6941,-0.6857,-0.7121,-0.7388,-0.7725,-0.8538,-0.8803,0.0,0.0,0.0,0.0,0.0,0.0,0.0,0.0,0.0,0.0,0.0,0.0,0.0,0.0,-1.4931,-1.4931,-1.4931,-1.4931,-1.4931,-1.4931,-1.4931,-1.4931,-1.4931,-1.4931,-1.4931,-1.4931,-1.4931,-1.4931,0.0,0.0,0.0,0.0,-1.4931,-1.4931,-1.4931,-1.4931,-1.4931,-1.4931,-1.4931,-1.4931,-1.4931,-1.4931,-1.4931,-1.4931,-1.4931,-1.4931,-1.4931,-1.4931,-1.4931,-1.4931,-1.4931,-1.4931,-1.4931,-1.4931,-1.4931,-1.4931,-1.4931,-1.4931,-1.4931,-1.4931,-1.4931,-1.4931,-1.4931,-1.4931,-1.4931,-1.4931,-1.4827,-1.4723,-1.4648,-1.452,-1.4331,-1.4048,-1.401,-1.3929,-1.3712,-1.3688,-1.3688,-1.3688,-1.3688,-1.3688,-1.3688,-1.3688,-1.3688,-1.3688,-1.3688,-1.3688,-1.3688,-1.3688,-1.3688,-1.3688,-1.3769,-1.3882,-1.4014,-1.409,-1.4307,0.0,-0.8946,-0.893,-0.9105,-0.8869,-0.8486,-0.8085,-0.7551,0.0,-0.6829,-0.6791,-0.6866,-0.7177,-0.7431,-0.7712,-0.8155,0.0,0.0,0.0,0.0,0.0,0.0,0.0,0.0,0.0,0.0,0.0,0.0,0.0,0.0,0.0,-1.4931,-1.4931,-1.4931,-1.4931,-1.4931,-1.4931,-1.4931,-1.4931,-1.4931,-1.4931,-1.4931,-1.4931,-1.4931,-1.4931,0.0,0.0,0.0,0.0,-1.4931,-1.4931,-1.4931,-1.4931,-1.4931,-1.4931,-1.4931,-1.4931,-1.4931,-1.4931,-1.4931,-1.4931,-1.4931,-1.4931,-1.4931,-1.4931,-1.4931,-1.4931,-1.4931,-1.4931,-1.4931,-1.4931,-1.4931,-1.4931,-1.4931,-1.4931,-1.4931,-1.4931,-1.4931,-1.4931,-1.4931,-1.4931,-1.4931,-1.4931,-1.4931,-1.487,-1.4685,-1.4657,-1.4511,-1.4109,-1.4043,-1.3948,-1.3736,-1.3698,-1.3688,-1.3688,-1.3688,-1.3688,-1.3688,-1.3688,-1.3688,-1.3688,-1.3688,-1.3688,-1.3688,-1.3688,-1.3698,-1.3712,-1.3915,-1.4024,-1.4062,-1.4246,-1.4449,-0.7406,0.0,-0.7569,-0.7396,-0.7475,-0.7451,0.0,-0.6969,-0.6852,-0.6805,0.0,-0.6997,-0.774,-0.7777,-0.8155,0.0,0.0,0.0,0.0,0.0,0.0,0.0,0.0,0.0,0.0,0.0,0.0,0.0,0.0,0.0,0.0,-1.4931,-1.4931,-1.4931,-1.4931,-1.4931,-1.4931,-1.4931,-1.4931,-1.4931,-1.4931,-1.4931,-1.4931,-1.4931,-1.4931,0.0,0.0,0.0,-1.4931,-1.4931,-1.4931,-1.4931,-1.4931,-1.4931,-1.4931,-1.4931,-1.4931,-1.4931,-1.4931,-1.4931,-1.4931,-1.4931,-1.4931,-1.4931,-1.4931,-1.4931,-1.4931,-1.4931,-1.4931,-1.4931,-1.4931,-1.4931,-1.4931,-1.4931,-1.4931,-1.4931,-1.4931,-1.4931,-1.4931,-1.4931,-1.4931,-1.4931,-1.4931,-1.4931,-1.4917,-1.487,-1.4865,-1.477,-1.452,-1.434,-1.4161,-1.3958,-1.3788,-1.3688,-1.3688,-1.3688,-1.3688,-1.3688,-1.3688,-1.3688,-1.3688,-1.3688,-1.3688,-1.3688,-1.3688,-1.3769,-1.3934,-1.3986,-1.4175,-1.4487,-1.4539,-1.4666,-0.6643,-0.6962,-0.73,-0.7281,-0.7362,-0.739,-0.7187,0.0,0.0,0.0,0.0,0.0,-0.7688,0.0,0.0,0.0,0.0,0.0,0.0,0.0,0.0,0.0,0.0,0.0,0.0,0.0,0.0,0.0,0.0,0.0,0.0,-1.4931,-1.4931,-1.4931,-1.4931,-1.4931,-1.4931,-1.4931,-1.4931,-1.4931,-1.4931,-1.4931,-1.4931,-1.4931,-1.4931,0.0,0.0,0.0,-1.4931,-1.4931,-1.4931,-1.4931,-1.4931,-1.4931,-1.4931,-1.4931,-1.4931,-1.4931,-1.4931,-1.4931,-1.4931,-1.4931,-1.4931,-1.4931,-1.4931,-1.4931,-1.4931,-1.4931,-1.4931,-1.4931,-1.4931,-1.4931,-1.4931,-1.4931,-1.4931,-1.4931,-1.4931,-1.4931,-1.4931,-1.4931,-1.4931,-1.4931,-1.4931,-1.4931,-1.4931,-1.4931,-1.4931,-1.486,-1.4657,-1.4529,-1.4378,-1.417,-1.4043,-1.3939,-1.3844,-1.384,-1.3797,-1.3698,-1.3688,-1.3688,-1.3688,-1.3688,-1.3688,-1.3688,-1.3788,-1.3896,-1.401,-1.4203,-1.4411,-1.4638,-1.4728,-1.4827,-0.6401,-0.696,-0.7574,-0.7584,-0.7659,-0.7678,-0.7475,0.0,0.0,0.0,0.0,0.0,0.0,0.0,0.0,0.0,0.0,0.0,0.0,0.0,0.0,0.0,0.0,0.0,0.0,0.0,0.0,0.0,0.0,0.0,0.0,-1.4931,-1.4931,-1.4931,-1.4931,-1.4931,-1.4931,-1.4931,-1.4931,-1.4931,-1.4931,-1.4931,-1.4931,-1.4931,-1.4931,-1.4931,0.0,0.0,-1.4931,-1.4931,-1.4931,-1.4931,-1.4931,-1.4931,-1.4931,-1.4931,-1.4931,-1.4931,-1.4931,-1.4931,-1.4931,-1.4931,-1.4931,-1.4931,-1.4931,-1.4931,-1.4931,-1.4931,-1.4931,-1.4931,-1.4931,-1.4931,-1.4931,-1.4931,-1.4931,-1.4931,-1.4931,-1.4931,-1.4931,-1.4931,-1.4931,-1.4931,-1.4931,-1.4931,-1.4931,-1.4931,-1.4931,-1.487,-1.47,-1.4652,-1.4563,-1.4378,-1.4331,-1.4241,-1.4071,-1.4057,-1.3981,-1.3797,-1.3755,-1.375,-1.3783,-1.3783,-1.3783,-1.3783,-1.3962,-1.4076,-1.4104,-1.4463,-1.4648,-1.4685,-1.4851,-1.4931,-0.6935,-0.7489,-0.7787,-0.6936,-0.7121,-0.7521,-0.7316,0.0,0.0,0.0,0.0,0.0,0.0,0.0,0.0,0.0,0.0,0.0,0.0,0.0,0.0,0.0,0.0,0.0,0.0,0.0,0.0,0.0,0.0,0.0,0.0,-1.4931,-1.4931,-1.4931,-1.4931,-1.4931,-1.4931,-1.4931,-1.4931,-1.4931,-1.4931,-1.4931,-1.4931,-1.4931,-1.4931,-1.4931,0.0,-1.4931,-1.4931,-1.4931,-1.4931,-1.4931,-1.4931,-1.4931,-1.4931,-1.4931,-1.4931,-1.4931,-1.4931,-1.4931,-1.4931,-1.4931,-1.4931,-1.4931,-1.4931,-1.4931,-1.4931,-1.4931,-1.4931,-1.4931,-1.4931,-1.4931,-1.4931,-1.4931,-1.4931,-1.4931,-1.4931,-1.4931,-1.4931,-1.4931,-1.4931,-1.4931,-1.4931,-1.4931,-1.4931,-1.4931,-1.4931,-1.4922,-1.4889,-1.4737,-1.4619,-1.4586,-1.4421,-1.4298,-1.427,-1.4265,-1.4251,-1.4218,-1.4057,-1.4038,-1.4208,-1.4218,-1.4218,-1.4218,-1.4251,-1.4355,-1.4539,-1.46,-1.4723,-1.4889,-1.4917,-1.4931,-0.6577,-0.7111,-0.7499,-0.7135,-0.7678,-0.825,-0.8037,0.0,0.0,0.0,0.0,0.0,0.0,0.0,0.0,0.0,0.0,0.0,0.0,0.0,0.0,0.0,0.0,0.0,0.0,0.0,0.0,0.0,0.0,0.0,0.0,0.0,-1.4648,-1.4766,-1.477,-1.4822,-1.4931,-1.4931,-1.4931,-1.4931,-1.4931,-1.4931,-1.4931,-1.4931,-1.4931,-1.4931,0.0,-1.4931,-1.4931,-1.4931,-1.4931,-1.4931,-1.4931,-1.4931,-1.4931,-1.4931,-1.4931,-1.4931,-1.4931,-1.4931,-1.4931,-1.4931,-1.4931,-1.4931,-1.4931,-1.4931,-1.4931,-1.4931,-1.4931,-1.4931,-1.4931,-1.4931,-1.4931,-1.4931,-1.4931,-1.4931,-1.4931,-1.4931,-1.4931,-1.4931,-1.4931,-1.4931,-1.4931,-1.4931,-1.4931,-1.4931,-1.4931,-1.4931,-1.4931,-1.4851,-1.4794,-1.4794,-1.4704,-1.46,-1.4496,-1.4482,-1.4435,-1.4317,-1.4222,-1.4213,-1.4307,-1.4312,-1.4312,-1.4312,-1.4426,-1.4534,-1.4633,-1.4742,-1.4841,-1.4931,-1.4931,-1.4931,-0.6407,-0.6828,-0.7354,-0.7555,-0.8217,-0.8812,-0.8841,0.0,0.0,0.0,0.0,0.0,0.0,0.0,0.0,0.0,0.0,0.0,0.0,0.0,0.0,0.0,0.0,0.0,0.0,0.0,0.0,0.0,0.0,0.0,0.0,0.0,-1.4388,-1.4553,-1.4558,-1.4633,-1.4785,-1.4785,-1.4837,-1.4931,-1.4931,-1.4931,-1.4931,-1.4931,-1.4931,-1.4931,-1.4931,-1.4931,-1.4931,-1.4931,-1.4931,-1.4931,-1.4931,-1.4931,-1.4931,-1.4931,-1.4931,-1.4931,-1.4931,-1.4931,-1.4931,-1.4931,-1.4931,-1.4931,-1.4931,-1.4931,-1.4931,-1.4931,-1.4931,-1.4931,-1.4931,-1.4931,-1.4931,-1.4931,-1.4931,-1.4931,-1.4931,-1.4931,-1.4931,-1.4931,-1.4931,-1.4931,-1.4931,-1.4931,-1.4931,-1.4931,-1.4931,-1.4931,-1.4931,-1.4931,-1.4931,-1.4931,-1.4931,-1.487,-1.4714,-1.4704,-1.4633,-1.4468,-1.4459,-1.4459,-1.4459,-1.4459,-1.4459,-1.4459,-1.4619,-1.4704,-1.4704,-1.4855,-1.4931,-1.4931,-1.4931,-1.4931,-0.6936,-0.7326,-0.7598,-0.7933,-0.8094,0.0,-0.9105,-0.911,0.0,0.0,0.0,0.0,0.0,0.0,0.0,0.0,0.0,0.0,0.0,0.0,0.0,0.0,0.0,0.0,0.0,0.0,0.0,0.0,0.0,0.0,0.0,0.0,0.0,-1.4331,-1.4331,-1.434,-1.4355,-1.4355,-1.4548,-1.4931,-1.4931,-1.4931,-1.4931,-1.4931,-1.4931,-1.4931,-1.4931,-1.4931,-1.4931,-1.4931,-1.4931,-1.4931,-1.4931,-1.4931,-1.4931,-1.4931,-1.4931,-1.4931,-1.4931,-1.4931,-1.4931,-1.4931,-1.4931,-1.4931,-1.4931,-1.4931,-1.4931,-1.4931,-1.4931,-1.4931,-1.4931,-1.4931,-1.4931,-1.4931,-1.4931,-1.4931,-1.4931,-1.4931,-1.4931,-1.4931,-1.4931,-1.4931,-1.4931,-1.4931,-1.4931,-1.4931,-1.4931,-1.4931,-1.4931,-1.4931,-1.4931,-1.4931,-1.4931,-1.4926,-1.4912,-1.4912,-1.4907,-1.4889,-1.4889,-1.4889,-1.4889,-1.4889,-1.4889,-1.4889,-1.4903,-1.4912,-1.4912,-1.4926,-1.4931,-1.4931,-1.4931,-1.4931,-0.6516,-0.7017,-0.7541,-0.7825,-0.8179,0.0,0.0,-0.9667,-1.0093,0.0,0.0,0.0,0.0,0.0,0.0,0.0,0.0,0.0,0.0,0.0,0.0,0.0,0.0,0.0,0.0,0.0,0.0,0.0,0.0,0.0,0.0,0.0,0.0,-1.4123,-1.4123,-1.4185,-1.4312,-1.4312,-1.4392,-1.4548,-1.4548,-1.4548,-1.4548,-1.4548,-1.4548,-1.4548,-1.4548,-1.4548,-1.4558,-1.469,-1.4747,-1.4756,-1.4884,-1.4931,-1.4931,-1.4931,-1.4931,-1.4931,-1.4931,-1.4931,-1.4931,-1.4931,-1.4931,-1.4931,-1.4931,-1.4931,-1.4931,-1.4931,-1.4931,-1.4931,-1.4931,-1.4931,-1.4931,-1.4931,-1.4931,-1.4931,-1.4931,-1.4931,-1.4931,-1.4931,-1.4931,-1.4931,-1.4931,-1.4931,-1.4931,-1.4931,-1.4931,-1.4931,-1.4931,-1.4931,-1.4931,-1.4931,-1.4931,-1.4931,-1.4931,-1.4931,-1.4931,-1.4931,-1.4931,-1.4931,-1.4931,-1.4931,-1.4931,-1.4931,-1.4931,-1.4931,-1.4931,-1.4931,-1.4931,-1.4931,-1.4931,-1.4931,-0.6271,-0.6842,-0.7442,-0.7711,0.0,0.0,-0.9497,-1.0064,-1.0594,0.0,0.0,0.0,0.0,0.0,0.0,0.0,0.0,0.0,0.0,0.0,0.0,0.0,0.0,0.0,0.0,0.0,0.0,0.0,0.0,0.0,0.0,0.0,0.0,0.0,-1.391,-1.3977,-1.4114,-1.4114,-1.4114,-1.4114,-1.4114,-1.4185,-1.4312,-1.4312,-1.4312,-1.4312,-1.4312,-1.4312,-1.4322,-1.4468,-1.4534,-1.4544,-1.4685,-1.4737,-1.4742,-1.4813,-1.4837,-1.4846,-1.4912,-1.4931,-1.4931,-1.4931,-1.4931,-1.4931,-1.4931,-1.4931,-1.4931,-1.4931,-1.4931,-1.4931,-1.4931,-1.4931,-1.4931,-1.4931,-1.4931,-1.4931,-1.4931,-1.4931,-1.4931,-1.4931,-1.4931,-1.4931,-1.4931,-1.4931,-1.4931,-1.4931,-1.4931,-1.4931,-1.4931,-1.4931,-1.4931,-1.4931,-1.4931,-1.4931,-1.4931,-1.4931,-1.4931,-1.4931,-1.4931,-1.4931,-1.4931,-1.4931,-1.4931,-1.4931,-1.4931,-1.4931,-1.4931,-1.4931,-1.4931,-1.4931,-1.4931,-1.4931,-0.6473,-0.6842,-0.7331,0.0,0.0,0.0,0.0,-1.0282,0.0,0.0,0.0,0.0,0.0,0.0,0.0,0.0,0.0,0.0,0.0,0.0,0.0,0.0,0.0,0.0,0.0,0.0,0.0,0.0,0.0,0.0,0.0,0.0,0.0,-1.3688,-1.3688,-1.3688,-1.3688,-1.3688,-1.3688,-1.3688,-1.3688,-1.3906,-1.4307,-1.4307,-1.4307,-1.4307,-1.4307,-1.4307,-1.4307,-1.4307,-1.4307,-1.4312,-1.4312,-1.4312,-1.4336,-1.4553,-1.4633,-1.4657,-1.486,-1.4926,-1.4926,-1.4926,-1.4926,-1.4931,-1.4931,-1.4931,-1.4931,-1.4931,-1.4931,-1.4931,-1.4931,-1.4931,-1.4931,-1.4931,-1.4931,-1.4931,-1.4931,-1.4931,-1.4931,-1.4931,-1.4931,-1.4931,-1.4931,-1.4931,-1.4931,-1.4931,-1.4931,-1.4931,-1.4931,-1.4931,-1.4931,-1.4931,-1.4931,-1.4931,-1.4931,-1.4931,-1.4931,-1.4931,-1.4931,-1.4931,-1.4931,-1.4931,-1.4931,-1.4931,-1.4931,-1.4931,-1.4931,-1.4931,-1.4931,-1.4931,-1.4931,-1.4931,-0.6473,-0.705,0.0,0.0,0.0,0.0,0.0,0.0,0.0,0.0,0.0,0.0,0.0,0.0,0.0,0.0,0.0,0.0,0.0,0.0,0.0,0.0,0.0,0.0,0.0,0.0,0.0,0.0,0.0,0.0,0.0,0.0,0.0,-1.3688,-1.3688,-1.3688,-1.3688,-1.3688,-1.3688,-1.3688,-1.3688,-1.3755,-1.3873,-1.3873,-1.3873,-1.3873,-1.3873,-1.3873,-1.3887,-1.4038,-1.4185,-1.4312,-1.4312,-1.4312,-1.4317,-1.4383,-1.4407,-1.4416,-1.4473,-1.4496,-1.4496,-1.4496,-1.46,-1.4723,-1.4723,-1.4822,-1.4931,-1.4931,-1.4931,-1.4931,-1.4931,-1.4931,-1.4931,-1.4931,-1.4931,-1.4931,-1.4931,-1.4931,-1.4931,-1.4931,-1.4931,-1.4931,-1.4931,-1.4931,-1.4931,-1.4931,-1.4931,-1.4931,-1.4931,-1.4931,-1.4931,-1.4931,-1.4931,-1.4931,-1.4931,-1.4931,-1.4931,-1.4931,-1.4931,-1.4931,-1.4931,-1.4931,-1.4931,-1.4931,-1.4931,-1.4931,-1.4931,-1.4931,-1.4931,-1.4931,-1.4931,-1.4931,-0.6837,0.0,0.0,0.0,0.0,0.0,0.0,0.0,0.0,0.0,0.0,0.0,0.0,0.0,0.0,0.0,0.0,0.0,0.0,0.0,0.0,0.0,0.0,0.0,0.0,0.0,0.0,0.0,0.0,0.0,0.0,0.0,-1.357,-1.357,-1.3646,-1.3688,-1.3688,-1.3688,-1.3688,-1.3688,-1.3688,-1.3688,-1.3688,-1.3688,-1.3688,-1.3688,-1.3688,-1.3688,-1.3698,-1.383,-1.3953,-1.4066,-1.4066,-1.4066,-1.4076,-1.4161,-1.4189,-1.4203,-1.4284,-1.4312,-1.4312,-1.4312,-1.4402,-1.4506,-1.4506,-1.4591,-1.4685,-1.4685,-1.4685,-1.4685,-1.4685,-1.4747,-1.4832,-1.4912,-1.4931,-1.4931,-1.4931,-1.4931,-1.4931,-1.4931,-1.4931,-1.4931,-1.4931,-1.4931,-1.4931,-1.4931,-1.4931,-1.4931,-1.4931,-1.4931,-1.4931,-1.4931,-1.4931,-1.4931,-1.4931,-1.4931,-1.4931,-1.4931,-1.4931,-1.4931,-1.4931,-1.4931,-1.4931,-1.4931,-1.4931,-1.4931,-1.4931,-1.4931,-1.4931,-1.4931,-1.4931,-1.4931,-0.7305,0.0,0.0,0.0,0.0,0.0,0.0,0.0,0.0,0.0,0.0,0.0,0.0,0.0,0.0,0.0,0.0,0.0,0.0,0.0,0.0,0.0,0.0,0.0,0.0,0.0,0.0,0.0,0.0,0.0,0.0,0.0,-1.3358,-1.3358,-1.3537,-1.3632,-1.3632,-1.3632,-1.3632,-1.3632,-1.3632,-1.3641,-1.366,-1.3679,-1.3688,-1.3688,-1.3688,-1.3688,-1.3688,-1.3688,-1.3688,-1.3688,-1.3688,-1.3688,-1.3712,-1.391,-1.3981,-1.401,-1.4189,-1.4255,-1.4255,-1.4255,-1.427,-1.4284,-1.4284,-1.4298,-1.4312,-1.4312,-1.4312,-1.4312,-1.4312,-1.4459,-1.4652,-1.4832,-1.4889,-1.4907,-1.4907,-1.4907,-1.4912,-1.4931,-1.4931,-1.4931,-1.4931,-1.4931,-1.4931,-1.4931,-1.4931,-1.4931,-1.4931,-1.4931,-1.4931,-1.4931,-1.4931,-1.4931,-1.4931,-1.4931,-1.4931,-1.4931,-1.4931,-1.4931,-1.4931,-1.4931,-1.4931,-1.4931,-1.4931,-1.4931,-1.4931,-1.4931,-1.4931,-1.4931,-1.4931,-1.4931,0.0,0.0,0.0,0.0,0.0,0.0,0.0,0.0,0.0,0.0,0.0,0.0,0.0,0.0,0.0,0.0,0.0,0.0,0.0,0.0,0.0,0.0,0.0,0.0,0.0,0.0,0.0,0.0,0.0,0.0,0.0,-1.3112,-1.3136,-1.3136,-1.3178,-1.3202,-1.3202,-1.3202,-1.3202,0.0,-1.3202,-1.3291,-1.3462,-1.3618,-1.3688,-1.3688,-1.3688,-1.3688,-1.3688,-1.3688,-1.3688,-1.3688,-1.3688,-1.3688,-1.3693,-1.374,-1.3759,-1.3764,-1.3807,-1.3825,-1.3825,-1.3825,-1.3939,-1.4076,-1.4076,-1.4185,-1.4312,-1.4312,-1.4312,-1.4312,-1.4312,-1.4345,-1.4392,-1.4435,-1.4572,-1.47,-1.47,-1.47,-1.4742,-1.4903,-1.4931,-1.4931,-1.4931,-1.4931,-1.4931,-1.4931,-1.4931,-1.4931,-1.4931,-1.4931,-1.4931,-1.4931,-1.4931,-1.4931,-1.4931,-1.4931,-1.4931,-1.4931,-1.4931,-1.4931,-1.4931,-1.4931,-1.4931,-1.4931,-1.4931,-1.4931,-1.4931,-1.4931,-1.4931,-1.4931,-1.4931,-1.4931,0.0,0.0,0.0,0.0,0.0,0.0,0.0,0.0,0.0,0.0,0.0,0.0,0.0,0.0,0.0,0.0,0.0,0.0,0.0,0.0,0.0,0.0,0.0,0.0,0.0,0.0,0.0,0.0,0.0,0.0,0.0,-1.2866,-1.2923,-1.2923,-1.3017,-1.3065,-1.3065,-1.3065,-1.3065,-1.3065,-1.3065,-1.3126,-1.3244,-1.3551,-1.3688,-1.3688,-1.3688,-1.3688,-1.3688,-1.3688,-1.3688,-1.3688,-1.3688,-1.3688,-1.3688,-1.3688,-1.3688,-1.3688,-1.3688,-1.3688,-1.3688,-1.3688,-1.3764,-1.3859,-1.3859,-1.3929,-1.4014,-1.4014,-1.4014,-1.4014,-1.4014,-1.409,-1.4142,-1.4038,-1.4251,-1.4477,-1.4477,-1.4477,-1.4511,-1.4615,-1.4718,-1.4789,-1.4789,-1.487,-1.4931,-1.4931,-1.4931,-1.4931,-1.4931,-1.4931,-1.4931,-1.4931,-1.4931,-1.4931,-1.4931,-1.4931,-1.4931,-1.4931,-1.4931,-1.4931,-1.4931,-1.4931,-1.4931,-1.4931,-1.4931,-1.4931,-1.4931,-1.4931,-1.4931,-1.4931,-1.4931,-1.4931,0.0,0.0,0.0,0.0,0.0,0.0,0.0,0.0,0.0,0.0,0.0,0.0,0.0,0.0,0.0,0.0,0.0,0.0,0.0,0.0,0.0,0.0,0.0,0.0,0.0,0.0,0.0,0.0,0.0,0.0,-1.2441,-1.2611,-1.271,-1.271,-1.2871,-1.2961,-1.2961,-1.2961,-1.2961,-1.2961,-1.2999,-1.3013,-1.3027,-1.341,-1.3603,-1.3636,-1.3636,-1.3655,-1.3688,-1.3688,-1.3688,-1.3688,-1.3688,-1.3688,-1.3688,-1.3688,-1.3688,-1.3688,-1.3688,-1.3688,-1.3688,-1.3688,-1.3688,-1.3688,-1.3688,-1.3688,-1.3688,-1.3688,-1.3688,-1.3688,-1.3688,-1.3821,-1.391,-1.3731,-1.3953,-1.4213,-1.4251,-1.426,-1.427,-1.4303,-1.4482,-1.4643,-1.4681,-1.4822,-1.4931,-1.4931,-1.4931,-1.4931,-1.4931,-1.4931,-1.4931,-1.4931,-1.4931,-1.4931,-1.4931,-1.4931,-1.4931,-1.4931,-1.4931,-1.4931,-1.4931,-1.4931,-1.4931,-1.4931,-1.4931,-1.4931,-1.4931,-1.4931,-1.4931,-1.4931,-1.4931,-1.4931,0.0,0.0,0.0,0.0,0.0,0.0,0.0,0.0,0.0,0.0,0.0,0.0,0.0,0.0,0.0,0.0,0.0,0.0,0.0,0.0,0.0,0.0,0.0,0.0,0.0,0.0,0.0,0.0,0.0,0.0,-1.2441,-1.2465,-1.2484,-1.2484,-1.2507,-1.2521,-1.2521,-1.2521,-1.2521,-1.2526,-1.2715,-1.281,-1.2814,-1.3046,-1.3254,-1.3429,-1.3429,-1.3528,-1.3688,-1.3688,-1.3688,-1.3688,-1.3688,-1.3688,-1.3688,-1.3688,-1.3688,-1.3688,-1.3688,-1.3688,-1.3688,-1.3688,-1.3688,-1.3688,-1.3688,-1.3688,-1.3688,-1.3688,-1.3688,-1.3688,-1.3688,-1.3712,-1.3721,-1.3698,-1.3731,-1.3825,-1.401,-1.4052,-1.4104,-1.4274,-1.4482,-1.469,-1.4865,-1.4917,-1.4931,-1.4931,-1.4931,-1.4931,-1.4931,-1.4931,-1.4931,-1.4931,-1.4931,-1.4931,-1.4931,-1.4931,-1.4931,-1.4931,-1.4931,-1.4931,-1.4931,-1.4931,-1.4931,-1.4931,-1.4931,-1.4931,-1.4931,-1.4931,-1.4931,-1.4931,-1.4931,-1.4931,0.0,0.0,0.0,0.0,0.0,0.0,0.0,0.0,0.0,0.0,0.0,0.0,0.0,0.0,0.0,0.0,0.0,0.0,0.0,0.0,0.0,0.0,0.0,0.0,0.0,0.0,0.0,0.0,0.0,-1.2441,-1.2441,-1.2441,-1.2441,-1.2441,-1.2441,-1.2441,-1.2441,-1.2441,-1.2441,-1.2441,-1.2535,-1.2583,-1.2587,-1.2677,-1.2895,-1.3206,-1.3206,-1.3258,-1.3348,-1.3471,-1.3523,-1.3532,-1.3646,-1.3688,-1.3688,-1.3688,-1.3688,-1.3688,-1.3688,-1.3688,-1.3688,-1.3688,-1.3688,-1.3688,-1.3688,-1.3688,-1.3688,-1.3688,-1.3688,-1.3688,-1.3688,-1.3688,-1.3688,-1.3688,-1.3688,-1.3712,-1.3811,-1.383,-1.3892,-1.4099,-1.4222,-1.435,-1.4548,-1.4685,-1.4766,-1.4766,-1.486,-1.4931,-1.4931,-1.4931,-1.4931,-1.4931,-1.4931,-1.4931,-1.4931,-1.4931,-1.4931,-1.4931,-1.4931,-1.4931,-1.4931,-1.4931,-1.4931,-1.4931,-1.4931,-1.4931,-1.4931,-1.4931,-1.4931,-1.4931,-1.4931,-1.4931,0.0,0.0,0.0,0.0,0.0,0.0,0.0,0.0,0.0,0.0,0.0,0.0,0.0,0.0,0.0,0.0,0.0,0.0,0.0,0.0,0.0,0.0,0.0,0.0,0.0,0.0,0.0,0.0,0.0,-1.2441,-1.2441,-1.2441,-1.2441,-1.2441,-1.2441,-1.2441,-1.2441,-1.2441,-1.2441,-1.2441,-1.2441,-1.2441,-1.2441,-1.2441,-1.2611,-1.2913,-1.2965,-1.3017,-1.3079,-1.324,-1.3339,-1.3405,-1.3556,-1.3646,-1.3688,-1.3688,-1.3688,-1.3688,-1.3688,-1.3688,-1.3688,-1.3688,-1.3688,-1.3688,-1.3688,-1.3688,-1.3688,-1.3688,-1.3688,-1.3688,-1.3688,-1.3688,-1.3688,-1.3688,-1.3688,-1.3688,-1.3688,-1.3688,-1.3755,-1.3967,-1.401,-1.4076,-1.4274,-1.4444,-1.4567,-1.4624,-1.4761,-1.4874,-1.4926,-1.4931,-1.4931,-1.4931,-1.4931,-1.4931,-1.4931,-1.4931,-1.4931,-1.4931,-1.4931,-1.4931,-1.4931,-1.4931,-1.4931,-1.4931,-1.4931,-1.4931,-1.4931,-1.4931,-1.4931,-1.4931,-1.4931,-1.4931,0.0,0.0,0.0,0.0,0.0,0.0,0.0,0.0,0.0,0.0,0.0,0.0,0.0,0.0,0.0,0.0,0.0,0.0,0.0,0.0,0.0,0.0,0.0,0.0,0.0,0.0,0.0,0.0,0.0,-1.2441,-1.2441,-1.2441,-1.2441,-1.2441,-1.2441,-1.2441,-1.2441,-1.2441,-1.2441,-1.2441,-1.2441,-1.2441,-1.2441,-1.2441,-1.245,-1.2484,-1.2691,-1.289,-1.3065,-1.3079,-1.3202,-1.3391,-1.34,-1.3523,-1.3688,-1.3688,-1.3688,-1.3688,-1.3688,-1.3688,-1.3688,-1.3688,-1.3688,-1.3688,-1.3688,-1.3688,-1.3688,-1.3688,-1.3688,-1.3688,-1.3688,-1.3688,-1.3688,-1.3688,-1.3688,-1.3688,-1.3688,-1.3688,-1.3755,-1.3967,-1.401,-1.4076,-1.4274,-1.4322,-1.4397,-1.4605,-1.4643,-1.4718,-1.4907,-1.4931,-1.4931,-1.4931,-1.4931,-1.4931,-1.4931,-1.4931,-1.4931,-1.4931,-1.4931,-1.4931,-1.4931,-1.4931,-1.4931,-1.4931,-1.4931,-1.4931,-1.4931,-1.4931,-1.4931,-1.4931,-1.4931,-1.4931,0.0,0.0,0.0,0.0,0.0,0.0,0.0,0.0,0.0,0.0,0.0,0.0,0.0,0.0,0.0,0.0,0.0,0.0,0.0,0.0,0.0,0.0,0.0,0.0,0.0,0.0,0.0,0.0,0.0,0.0,-1.2441,-1.2441,-1.2441,-1.2441,-1.2441,-1.2441,-1.2441,-1.2441,-1.2441,-1.2441,-1.2441,-1.2441,-1.2441,-1.2441,-1.2441,-1.2446,-1.2521,-1.2597,-1.2673,-1.2819,-1.2918,-1.3017,-1.3287,-1.3433,-1.3514,-1.3641,-1.3688,-1.3688,-1.3688,-1.3688,-1.3688,-1.3688,-1.3688,-1.3688,-1.3688,-1.3688,-1.3688,-1.3688,-1.3688,-1.3688,-1.3688,-1.3688,-1.3688,-1.3688,-1.3688,-1.3688,-1.3688,-1.3688,-1.3712,-1.3792,-1.3807,-1.383,-1.3901,-1.4029,-1.4147,-1.4222,-1.434,-1.4501,-1.4714,-1.4742,-1.4789,-1.4917,-1.4931,-1.4931,-1.4931,-1.4931,-1.4931,-1.4931,-1.4931,-1.4931,-1.4931,-1.4808,-1.4742,-1.4742,-1.4605,-1.4662,-1.4931,-1.4931,-1.4931,-1.4931,-1.4931,-1.4931,0.0,0.0,0.0,0.0,0.0,0.0,0.0,0.0,0.0,0.0,0.0,0.0,0.0,0.0,0.0,0.0,0.0,0.0,0.0,0.0,0.0,0.0,0.0,0.0,0.0,0.0,0.0,0.0,0.0,0.0,-1.2228,-1.2299,-1.237,-1.2436,-1.2441,-1.2441,-1.2441,-1.2441,-1.2441,-1.2441,-1.2441,-1.2441,-1.2441,-1.2441,-1.2441,-1.2441,-1.2441,-1.2441,-1.245,-1.2597,-1.2701,-1.2795,-1.3074,-1.3221,-1.3296,-1.3429,-1.3528,-1.3589,-1.3589,-1.3632,-1.3688,-1.3688,-1.3688,-1.3688,-1.3688,-1.3688,-1.3688,-1.3688,-1.3688,-1.3688,-1.3688,-1.3688,-1.3688,-1.3688,-1.3688,-1.3688,-1.3688,-1.3688,-1.3688,-1.3688,-1.3688,-1.3688,-1.3688,-1.3807,-1.3925,-1.4,-1.4123,-1.4284,-1.4496,-1.4525,-1.4605,-1.4813,-1.4832,-1.486,-1.4926,-1.487,-1.4832,-1.4832,-1.4766,-1.4723,-1.4723,-1.4596,-1.4525,-1.4525,-1.4383,-1.4482,-1.4832,-1.4832,-1.487,-1.4931,-1.4931,-1.4931,0.0,0.0,0.0,0.0,0.0,0.0,0.0,0.0,0.0,0.0,0.0,0.0,0.0,0.0,0.0,0.0,0.0,0.0,0.0,0.0,0.0,0.0,0.0,0.0,0.0,0.0,0.0,0.0,0.0,-1.1817,-1.1817,-1.2016,-1.2219,-1.2413,-1.2427,-1.2427,-1.2427,-1.2436,-1.2441,-1.2441,-1.2441,-1.2441,-1.2441,-1.2441,-1.2441,-1.2441,-1.2441,-1.2441,-1.2441,-1.2441,-1.2564,-1.2758,-1.2767,-1.2885,-1.306,-1.3065,-1.3202,-1.3381,-1.3381,-1.3514,-1.3679,-1.3679,-1.3684,-1.3688,-1.3688,-1.3688,-1.3688,-1.3688,-1.3688,-1.3688,-1.3688,-1.3688,-1.3688,-1.3688,-1.3688,-1.3688,-1.3688,-1.3688,-1.3688,-1.3688,-1.3688,-1.3688,-1.3688,-1.3688,-1.3759,-1.3967,-1.4,-1.4076,-1.4274,-1.4303,-1.4383,-1.46,-1.4624,-1.4704,-1.4898,-1.4737,-1.4624,-1.4624,-1.4426,-1.4312,-1.4312,-1.4307,-1.4303,-1.4303,-1.4298,-1.4402,-1.4615,-1.4629,-1.4737,-1.4931,-1.4931,-1.4931,-0.5561,0.0,0.0,0.0,0.0,0.0,0.0,0.0,0.0,0.0,0.0,0.0,0.0,0.0,0.0,0.0,0.0,0.0,0.0,0.0,0.0,0.0,0.0,0.0,0.0,0.0,0.0,0.0,-1.1737,-1.1817,-1.1817,-1.1874,-1.1931,-1.1987,-1.2139,-1.2224,-1.2224,-1.2365,-1.2441,-1.2441,-1.2441,-1.2441,-1.2441,-1.2441,-1.2441,-1.2441,-1.2441,-1.2441,-1.2441,-1.2441,-1.2474,-1.2545,-1.2706,-1.28,-1.2866,-1.3013,-1.3102,-1.3154,-1.3154,-1.3296,-1.3471,-1.3471,-1.357,-1.3688,-1.3688,-1.3688,-1.3688,-1.3688,-1.3688,-1.3688,-1.3688,-1.3688,-1.3688,-1.3688,-1.3688,-1.3688,-1.3688,-1.3688,-1.3688,-1.3688,-1.3688,-1.3688,-1.3688,-1.3688,-1.3707,-1.3769,-1.3778,-1.3854,-1.4066,-1.4095,-1.4175,-1.4378,-1.4402,-1.4421,-1.4477,-1.443,-1.4402,-1.4402,-1.4345,-1.4312,-1.4312,-1.417,-1.4095,-1.4095,-1.3939,-1.3967,-1.4185,-1.4487,-1.4737,-1.4931,-1.4931,-1.4931,-0.5793,0.0,0.0,0.0,0.0,0.0,0.0,0.0,0.0,0.0,0.0,0.0,0.0,0.0,0.0,0.0,0.0,0.0,0.0,0.0,0.0,0.0,0.0,0.0,0.0,0.0,0.0,-1.1969,-1.1687,-1.16,-1.169,-1.1694,-1.1933,-1.2427,-1.2144,-1.2211,-1.2626,-1.2327,-1.2224,-1.2313,-1.2313,-1.2361,-1.2441,-1.2441,-1.2441,-1.2441,-1.2441,-1.2441,-1.2441,-1.2441,-1.2441,-1.245,-1.2583,-1.263,-1.2644,-1.2762,-1.2862,-1.2942,-1.2942,-1.3079,-1.3254,-1.3254,-1.3395,-1.3566,-1.3566,-1.3622,-1.3688,-1.3688,-1.3688,-1.3688,-1.3688,-1.3688,-1.3688,-1.3688,-1.3688,-1.3688,-1.3688,-1.3688,-1.3688,-1.3688,-1.3688,-1.3688,-1.3688,-1.3688,-1.3688,-1.3688,-1.3688,-1.3736,-1.3859,-1.3877,-1.3958,-1.4166,-1.4185,-1.4222,-1.4303,-1.4232,-1.4185,-1.4185,-1.4104,-1.4052,-1.4052,-1.3939,-1.3877,-1.3877,-1.3755,-1.3797,-1.401,-1.434,-1.4648,-1.4931,-1.4931,-1.4931,-0.61,-0.6317,0.0,0.0,0.0,0.0,-0.7466,-0.7513,0.0,0.0,0.0,0.0,0.0,0.0,0.0,0.0,0.0,0.0,0.0,0.0,0.0,0.0,0.0,0.0,0.0,-1.1868,-1.177,-1.263,-1.1868,-1.1471,-1.1668,-1.1482,-1.2062,-1.3255,-1.2377,-1.2495,-1.3507,-1.2515,-1.212,-1.2207,-1.2106,-1.2209,-1.2408,-1.2408,-1.2417,-1.2441,-1.2441,-1.2441,-1.2441,-1.2441,-1.2441,-1.2441,-1.2441,-1.2441,-1.2441,-1.2441,-1.2564,-1.2734,-1.2734,-1.2866,-1.3036,-1.3036,-1.3178,-1.3353,-1.3353,-1.348,-1.3622,-1.3651,-1.3655,-1.366,-1.3684,-1.3688,-1.3688,-1.3688,-1.3688,-1.3688,-1.3688,-1.3688,-1.3688,-1.3688,-1.3688,-1.3688,-1.3688,-1.3688,-1.3688,-1.3688,-1.3688,-1.3688,-1.3688,-1.3688,-1.3764,-1.3953,-1.3977,-1.4048,-1.4227,-1.4081,-1.3977,-1.3977,-1.3797,-1.3688,-1.3688,-1.3688,-1.3688,-1.3688,-1.3688,-1.3797,-1.401,-1.4237,-1.4539,-1.4903,-1.4922,-1.4931,-0.6987,-0.7035,-0.7007,-0.6824,0.0,0.0,0.0,-0.6889,0.0,0.0,0.0,0.0,0.0,0.0,0.0,0.0,0.0,0.0,0.0,0.0,0.0,0.0,0.0,0.0,0.0,-1.2058,-1.2538,-1.2727,-1.2538,-1.2462,-1.2412,-1.1742,-1.1762,-1.2769,-1.2762,-1.3263,-1.4354,-1.3554,-1.3059,-1.3106,-1.2289,-1.1992,-1.2195,-1.2195,-1.2285,-1.2441,-1.2441,-1.2441,-1.2441,-1.2441,-1.2441,-1.2441,-1.2441,-1.2441,-1.2441,-1.2441,-1.2465,-1.2502,-1.2502,-1.2644,-1.2824,-1.2824,-1.2965,-1.3131,-1.3131,-1.3154,-1.3225,-1.34,-1.3447,-1.3485,-1.3646,-1.3688,-1.3688,-1.3688,-1.3688,-1.3688,-1.3688,-1.3688,-1.3688,-1.3688,-1.3688,-1.3688,-1.3688,-1.3688,-1.3688,-1.3688,-1.3688,-1.3688,-1.3688,-1.3688,-1.3707,-1.375,-1.375,-1.3769,-1.3807,-1.3773,-1.375,-1.375,-1.3712,-1.3688,-1.3688,-1.3688,-1.3688,-1.3688,-1.3688,-1.3797,-1.401,-1.4388,-1.461,-1.4695,-1.4855,-1.4931,-0.7651,-0.7545,-0.735,-0.7191,0.0,0.0,0.0,0.0,-0.7578,0.0,0.0,0.0,0.0,0.0,0.0,0.0,0.0,0.0,0.0,0.0,0.0,0.0,0.0,0.0,0.0,-1.256,-1.2794,-1.3488,-1.3499,-1.3499,-1.3499,-1.3119,-1.3403,-1.4459,-1.4195,-1.4461,-1.5351,-1.4502,-1.3746,-1.3169,-1.2669,-1.2284,-1.1983,-1.2091,-1.2195,-1.2295,-1.2398,-1.2441,-1.2441,-1.2441,-1.2441,-1.2441,-1.2441,-1.2441,-1.2441,-1.2441,-1.2441,-1.2441,-1.2441,-1.2512,-1.2602,-1.2602,-1.2748,-1.2918,-1.2918,-1.2989,-1.3088,-1.3197,-1.3306,-1.341,-1.3514,-1.3613,-1.3688,-1.3688,-1.3688,-1.3688,-1.3688,-1.3688,-1.3688,-1.3688,-1.3688,-1.3688,-1.3688,-1.3688,-1.3688,-1.3688,-1.3688,-1.3688,-1.3688,-1.3688,-1.3688,-1.3688,-1.3688,-1.3688,-1.3688,-1.3688,-1.3688,-1.3688,-1.3688,-1.3688,-1.3688,-1.3688,-1.3688,-1.3688,-1.3688,-1.3745,-1.3849,-1.417,-1.443,-1.4638,-1.4737,-1.4837,0.0,0.0,0.0,0.0,0.0,-0.8148,0.0,0.0,0.0,-0.8489,0.0,0.0,0.0,0.0,0.0,0.0,0.0,0.0,0.0,0.0,0.0,0.0,0.0,0.0,0.0,-1.2992,-1.3171,-1.4559,-1.4396,-1.4315,-1.4469,-1.4524,-1.5134,-1.619,-1.5596,-1.569,-1.6567,-1.5514,-1.4569,-1.3616,-1.3221,-1.2651,-1.2069,-1.2045,-1.2063,-1.2148,-1.2416,-1.2512,-1.255,-1.255,-1.255,-1.255,-1.2441,-1.2441,-1.2441,-1.2441,-1.2441,-1.2441,-1.2441,-1.2441,-1.2441,-1.2441,-1.2559,-1.2706,-1.2706,-1.2819,-1.2956,-1.2999,-1.3136,-1.3287,-1.3372,-1.3509,-1.3641,-1.3679,-1.3688,-1.3688,-1.3688,-1.3688,-1.3688,-1.3688,-1.3688,-1.3688,-1.3688,-1.3688,-1.3688,-1.3688,-1.3688,-1.3688,-1.3688,-1.3688,-1.3688,-1.3688,-1.3688,-1.3688,-1.3688,-1.3688,-1.3688,-1.3688,-1.3688,-1.3688,-1.3688,-1.3688,-1.3688,-1.3688,-1.3688,-1.3688,-1.3688,-1.3863,-1.4142,-1.4515,-1.4553,-1.4681,0.0,0.0,0.0,0.0,-1.0367,0.0,0.0,0.0,-0.8385,-0.7301,0.0,0.0,0.0,0.0,0.0,0.0,0.0,0.0,0.0,0.0,0.0,0.0,0.0,0.0,0.0,0.0,-1.407,-1.6049,-1.4817,-1.4333,-1.5173,-1.4804,-1.5134,-1.619,-1.6365,-1.6929,-1.7893,-1.6842,-1.619,-1.5858,-1.3931,-1.2997,-1.2841,-1.1971,-1.1789,-1.2143,-1.2684,-1.3016,-1.3207,-1.3207,-1.3207,-1.3098,-1.2659,-1.2441,-1.2441,-1.2441,-1.2441,-1.2441,-1.2441,-1.2441,-1.2441,-1.2441,-1.2455,-1.2479,-1.2479,-1.2493,-1.2554,-1.2748,-1.2819,-1.2923,-1.3291,-1.3405,-1.3471,-1.3646,-1.3688,-1.3688,-1.3688,-1.3688,-1.3688,-1.3688,-1.3688,-1.3688,-1.3688,-1.3688,-1.3688,-1.3688,-1.3688,-1.3688,-1.3688,-1.3688,-1.3688,-1.3688,-1.3688,-1.3688,-1.3688,-1.3688,-1.3688,-1.3688,-1.3688,-1.3688,-1.3688,-1.3688,-1.3688,-1.3688,-1.3688,-1.3688,-1.3688,-1.3712,-1.3849,-1.4085,-1.4265,-1.4463,0.0,0.0,0.0,0.0,0.0,0.0,-0.8296,0.0,-0.8879,0.0,0.0,0.0,0.0,0.0,0.0,0.0,0.0,0.0,0.0,0.0,0.0,0.0,0.0,0.0,0.0,0.0,0.0,0.0,0.0,-1.4958,-1.6067,-1.631,-1.675,-1.752,-1.7792,-1.7986,-1.8288,-1.7419,-1.656,-1.5697,-1.4082,-1.3368,-1.347,-1.2149,-1.201,-1.2792,-1.2546,-1.2505,-1.2598,-1.2719,-1.2767,-1.2767,-1.255,-1.2441,-1.2441,-1.2441,-1.2441,-1.2441,-1.2441,-1.2441,-1.2441,-1.2441,-1.2441,-1.2441,-1.2441,-1.2441,-1.246,-1.255,-1.2668,-1.281,-1.2984,-1.3117,-1.3254,-1.3466,-1.3514,-1.3547,-1.3665,-1.3688,-1.3688,-1.3688,-1.3688,-1.3688,-1.3688,-1.3688,-1.3688,-1.3688,-1.3688,-1.3688,-1.3688,-1.3688,-1.3688,-1.3688,-1.3688,-1.3688,-1.3688,-1.3688,-1.3688,-1.3688,-1.3688,-1.3688,-1.3688,-1.3688,-1.3688,-1.3688,-1.3688,-1.3688,-1.3688,-1.3688,-1.3736,-1.383,-1.4038,-1.4246,-1.1272,0.0,0.0,0.0,0.0,0.0,0.0,0.0,0.0,0.0,0.0,0.0,0.0,0.0,0.0,0.0,0.0,0.0,0.0,0.0,0.0,0.0,0.0,0.0,0.0,0.0,0.0,0.0,0.0,-1.4976,-1.6399,-1.712,-1.7689,-1.8325,-1.8596,-1.8743,-1.8566,-1.78,-1.6936,-1.5886,-1.4465,-1.3794,-1.3692,-1.2335,-1.2149,-1.3109,-1.255,-1.2556,-1.2785,-1.2939,-1.2925,-1.2871,-1.2654,-1.255,-1.2441,-1.2441,-1.2441,-1.2441,-1.2441,-1.2441,-1.2441,-1.2441,-1.2441,-1.2441,-1.2441,-1.2441,-1.2441,-1.2441,-1.2554,-1.2691,-1.2753,-1.2876,-1.3041,-1.3249,-1.3301,-1.3358,-1.3561,-1.3608,-1.3622,-1.3679,-1.3688,-1.3688,-1.3688,-1.3688,-1.3688,-1.3688,-1.3688,-1.3688,-1.3688,-1.3688,-1.3688,-1.3688,-1.3688,-1.3688,-1.3688,-1.3688,-1.3688,-1.3688,-1.3688,-1.3688,-1.3688,-1.3688,-1.3688,-1.3688,-1.3688,-1.3688,-1.3688,-1.3688,-1.3688,-1.3693,-1.3849,-1.4033,0.0,0.0,0.0,-1.313,0.0,0.0,0.0,0.0,-1.1154,0.0,0.0,0.0,0.0,0.0,-0.9959,-0.9315,0.0,0.0,0.0,0.0,0.0,0.0,0.0,0.0,0.0,0.0,0.0,0.0,0.0,0.0,-1.5666,-1.6642,-1.7336,-1.7869,-1.847,-1.8827,-1.8827,-1.8071,-1.7505,-1.7232,-1.552,-1.428,-1.3511,-1.2467,-1.2112,-1.2324,-1.2931,-1.3705,-1.4565,-1.4571,-1.4395,-1.4062,-1.3527,-1.2881,-1.2441,-1.2441,-1.2441,-1.2441,-1.2441,-1.2441,-1.2441,-1.2441,-1.2441,-1.2441,-1.2441,-1.2441,-1.2441,-1.2441,-1.2446,-1.2498,-1.271,-1.2772,-1.2828,-1.3032,-1.3079,-1.3136,-1.3353,-1.34,-1.3457,-1.3651,-1.3688,-1.3688,-1.3688,-1.3688,-1.3688,-1.3688,-1.3688,-1.3688,-1.3688,-1.3688,-1.3688,-1.3688,-1.3688,-1.3688,-1.3688,-1.3688,-1.3688,-1.3688,-1.3688,-1.3688,-1.3688,-1.3688,-1.3688,-1.3688,-1.3688,-1.3688,-1.3688,-1.3688,-1.3688,-1.3688,-1.3698,-1.3816,0.0,0.0,-1.4583,-1.294,0.0,0.0,0.0,0.0,0.0,0.0,0.0,0.0,0.0,0.0,-1.1238,-1.0829,-1.0608,0.0,0.0,0.0,0.0,0.0,0.0,0.0,0.0,0.0,0.0,0.0,-1.3046,0.0,0.0,-1.6769,-1.7593,-1.8116,-1.8553,-1.8827,-1.8827,-1.8071,-1.7412,-1.6864,-1.5425,-1.4758,-1.4669,-1.3232,-1.2797,-1.335,-1.284,-1.2803,-1.3062,-1.3372,-1.344,-1.3306,-1.3362,-1.2876,-1.2441,-1.2441,-1.2441,-1.2441,-1.2441,-1.2441,-1.2441,-1.2441,-1.2441,-1.2441,-1.2441,-1.2441,-1.2441,-1.2441,-1.2441,-1.2455,-1.2531,-1.255,-1.2602,-1.2819,-1.2871,-1.2923,-1.3131,-1.3287,-1.341,-1.3476,-1.3599,-1.3688,-1.3688,-1.3688,-1.3688,-1.3688,-1.3688,-1.3688,-1.3688,-1.3688,-1.3688,-1.3688,-1.3688,-1.3688,-1.3688,-1.3688,-1.3688,-1.3688,-1.3688,-1.3688,-1.3688,-1.3688,-1.3688,-1.3688,-1.3688,-1.3688,-1.3688,-1.3688,-1.3688,-1.3688,-1.3688,-1.3731,-1.4784,-1.5152,0.0,-1.3825,-1.3968,0.0,-1.2389,0.0,0.0,0.0,0.0,0.0,0.0,0.0,-1.2439,-1.1992,-1.1368,-1.0736,0.0,0.0,0.0,0.0,0.0,0.0,0.0,0.0,-1.1361,-1.227,0.0,0.0,0.0,0.0,-1.7329,-1.8089,-1.8454,-1.87,-1.8827,-1.8071,-1.7505,-1.6951,-1.5615,-1.5045,-1.5146,-1.3721,-1.3335,-1.3709,-1.3019,-1.294,-1.323,-1.3437,-1.3455,-1.3193,-1.3459,-1.3023,-1.2441,-1.2441,-1.2441,-1.2441,-1.2441,-1.2441,-1.2441,-1.2441,-1.2441,-1.2441,-1.2441,-1.2441,-1.2441,-1.2441,-1.2441,-1.2441,-1.2441,-1.2441,-1.2474,-1.2616,-1.2654,-1.2706,-1.2913,-1.3069,-1.3192,-1.3258,-1.3443,-1.358,-1.358,-1.3641,-1.3688,-1.3688,-1.3688,-1.3688,-1.3688,-1.3688,-1.3688,-1.3688,-1.3688,-1.3688,-1.3688,-1.3688,-1.3688,-1.3688,-1.3688,-1.3688,-1.3688,-1.3688,-1.3688,-1.3688,-1.3688,-1.3688,-1.3688,-1.3688,-1.3688,-1.3688,-1.3688,-1.3688]},{"header":{"parameterUnit":"m.s-1","parameterCategory":1,"la1":30.6,"la2":29.2853,"lo1":-89.7004,"lo2":-87.6739,"dy":0.0162,"dx":0.0183,"nx":112,"ny":82,"refTime":"2024-06-22T00:00:00:Z","depth":0,"parameterNumber":3,"parameterNumberName":"V-component_of_WINDS"},"data":[0.0,0.0,0.0,0.0,0.0,0.0,0.0,0.0,0.0,0.0,0.0,0.0,0.0,0.0,0.0,0.0,0.0,0.0,0.0,0.0,0.0,0.0,0.0,0.0,0.0,0.0,0.0,0.0,0.0,0.0,0.0,0.0,0.0,0.0,0.0,0.0,0.0,0.0,0.0,0.0,0.0,0.0,0.0,0.0,0.0,0.0,0.0,0.0,0.0,0.0,0.0,0.0,0.0,0.0,0.0,0.0,0.0,0.0,0.0,0.0,0.0,0.0,0.0,0.0,0.0,0.0,0.0,0.0,0.0,0.0,0.0,0.0,0.0,0.0,0.0,0.0,0.0,0.0,0.0,0.0,0.0,0.0,0.0,0.0,0.0,0.0,0.0,0.0,0.0,0.0,0.0,-3.643,-4.0841,-4.3482,-4.3482,-4.3088,-4.0178,-3.3984,0.0,0.0,0.0,0.0,0.0,0.0,0.0,0.0,0.0,0.0,0.0,0.0,0.0,0.0,0.0,0.0,0.0,0.0,0.0,0.0,0.0,0.0,0.0,0.0,0.0,0.0,0.0,0.0,0.0,0.0,0.0,0.0,0.0,0.0,0.0,0.0,0.0,0.0,0.0,0.0,0.0,0.0,0.0,0.0,0.0,0.0,0.0,0.0,0.0,0.0,0.0,0.0,0.0,0.0,0.0,0.0,0.0,0.0,0.0,0.0,0.0,0.0,0.0,0.0,0.0,0.0,0.0,0.0,0.0,0.0,0.0,0.0,0.0,0.0,0.0,0.0,0.0,0.0,0.0,0.0,0.0,0.0,0.0,0.0,0.0,0.0,0.0,0.0,0.0,0.0,0.0,0.0,0.0,0.0,0.0,0.0,0.0,0.0,0.0,0.0,0.0,0.0,0.0,0.0,-3.4285,-4.0428,-4.3013,-4.4327,-4.4327,-4.2374,-3.9245,-3.4695,0.0,0.0,0.0,0.0,0.0,0.0,0.0,0.0,0.0,0.0,0.0,0.0,0.0,0.0,0.0,0.0,0.0,0.0,0.0,0.0,0.0,0.0,0.0,0.0,0.0,0.0,0.0,0.0,0.0,0.0,0.0,0.0,0.0,0.0,0.0,0.0,0.0,0.0,0.0,0.0,0.0,0.0,0.0,0.0,0.0,0.0,0.0,0.0,0.0,0.0,0.0,0.0,0.0,0.0,0.0,0.0,0.0,0.0,0.0,0.0,0.0,0.0,0.0,0.0,0.0,0.0,0.0,0.0,0.0,0.0,0.0,0.0,0.0,0.0,0.0,0.0,0.0,0.0,0.0,0.0,0.0,0.0,0.0,0.0,0.0,0.0,0.0,0.0,0.0,0.0,0.0,0.0,0.0,0.0,0.0,0.0,0.0,0.0,0.0,0.0,0.0,0.0,0.0,-3.3299,-3.6998,-4.2359,-4.4002,-4.4738,-4.4738,-4.285,-3.9698,-3.5054,-3.3128,0.0,0.0,0.0,0.0,0.0,0.0,0.0,0.0,0.0,0.0,0.0,0.0,0.0,0.0,0.0,0.0,0.0,0.0,0.0,0.0,0.0,0.0,0.0,0.0,0.0,0.0,0.0,0.0,0.0,0.0,0.0,0.0,0.0,0.0,0.0,0.0,0.0,0.0,0.0,0.0,0.0,0.0,0.0,0.0,0.0,0.0,0.0,0.0,0.0,0.0,0.0,0.0,0.0,0.0,0.0,0.0,0.0,0.0,0.0,0.0,0.0,0.0,0.0,0.0,0.0,0.0,0.0,0.0,0.0,0.0,0.0,0.0,0.0,0.0,0.0,0.0,0.0,0.0,0.0,0.0,0.0,0.0,0.0,0.0,0.0,0.0,0.0,0.0,0.0,0.0,0.0,0.0,0.0,0.0,0.0,0.0,0.0,0.0,0.0,0.0,0.0,0.0,-3.7182,-3.9683,-4.3303,-4.4421,-4.4819,-4.463,-4.2716,-3.9551,-3.4908,-3.1724,0.0,0.0,0.0,0.0,0.0,0.0,0.0,0.0,0.0,0.0,0.0,0.0,0.0,0.0,0.0,0.0,0.0,0.0,0.0,0.0,0.0,0.0,0.0,0.0,0.0,0.0,0.0,0.0,0.0,0.0,0.0,0.0,0.0,0.0,0.0,0.0,0.0,0.0,0.0,0.0,0.0,0.0,0.0,0.0,0.0,0.0,0.0,0.0,0.0,0.0,0.0,0.0,0.0,0.0,0.0,0.0,0.0,0.0,0.0,0.0,0.0,0.0,0.0,0.0,0.0,0.0,0.0,0.0,0.0,0.0,0.0,0.0,0.0,0.0,0.0,0.0,0.0,0.0,0.0,0.0,0.0,0.0,0.0,0.0,0.0,0.0,0.0,0.0,0.0,0.0,0.0,0.0,0.0,0.0,0.0,0.0,0.0,0.0,0.0,0.0,0.0,0.0,-3.8016,-4.1635,-4.3493,-4.4421,-4.4592,-4.3853,-4.0821,-3.7466,-3.3998,-2.9223,0.0,0.0,0.0,0.0,0.0,0.0,0.0,0.0,0.0,0.0,0.0,0.0,0.0,0.0,0.0,0.0,0.0,0.0,0.0,0.0,0.0,0.0,0.0,0.0,0.0,0.0,0.0,0.0,0.0,0.0,0.0,0.0,0.0,0.0,0.0,0.0,0.0,0.0,0.0,0.0,0.0,0.0,0.0,0.0,0.0,0.0,0.0,0.0,0.0,0.0,0.0,0.0,0.0,0.0,0.0,0.0,0.0,0.0,0.0,0.0,0.0,0.0,0.0,0.0,0.0,0.0,0.0,0.0,0.0,0.0,0.0,0.0,0.0,0.0,0.0,0.0,0.0,0.0,0.0,0.0,0.0,0.0,0.0,0.0,0.0,0.0,0.0,0.0,0.0,0.0,0.0,0.0,0.0,0.0,0.0,0.0,0.0,0.0,0.0,0.0,0.0,0.0,-3.7485,-4.0877,0.0,-4.4724,-4.4573,-4.3777,-4.1598,-3.8376,-3.3979,0.0,0.0,0.0,0.0,0.0,0.0,0.0,0.0,0.0,0.0,0.0,0.0,0.0,0.0,0.0,0.0,0.0,0.0,0.0,0.0,0.0,0.0,0.0,0.0,0.0,0.0,0.0,0.0,0.0,0.0,0.0,0.0,0.0,0.0,0.0,0.0,0.0,0.0,0.0,0.0,0.0,0.0,0.0,0.0,0.0,0.0,0.0,0.0,0.0,0.0,0.0,0.0,0.0,0.0,0.0,0.0,0.0,0.0,0.0,0.0,0.0,0.0,0.0,0.0,0.0,0.0,0.0,0.0,0.0,0.0,0.0,0.0,0.0,0.0,0.0,0.0,0.0,0.0,0.0,0.0,0.0,0.0,0.0,0.0,0.0,0.0,0.0,0.0,0.0,0.0,0.0,0.0,0.0,0.0,0.0,0.0,0.0,0.0,0.0,0.0,0.0,0.0,-3.4245,-3.7807,-4.1162,0.0,-4.4895,-4.4459,-4.3379,-4.1256,-3.8073,-3.3562,0.0,0.0,0.0,0.0,0.0,0.0,0.0,0.0,0.0,0.0,0.0,0.0,0.0,0.0,0.0,0.0,0.0,0.0,0.0,0.0,0.0,0.0,0.0,0.0,0.0,0.0,0.0,0.0,0.0,0.0,0.0,0.0,0.0,0.0,0.0,0.0,0.0,0.0,0.0,0.0,0.0,0.0,0.0,0.0,0.0,0.0,0.0,0.0,0.0,0.0,0.0,0.0,0.0,0.0,0.0,0.0,0.0,0.0,0.0,0.0,0.0,0.0,0.0,0.0,0.0,0.0,0.0,0.0,0.0,0.0,0.0,0.0,0.0,0.0,0.0,0.0,0.0,0.0,0.0,0.0,0.0,0.0,0.0,0.0,0.0,0.0,0.0,0.0,0.0,0.0,0.0,0.0,0.0,0.0,0.0,0.0,0.0,0.0,0.0,0.0,0.0,0.0,-3.4472,-3.9286,-4.3038,-4.4724,-4.4895,-4.4232,-4.2545,-3.9342,-3.5988,0.0,0.0,0.0,0.0,0.0,0.0,0.0,0.0,0.0,0.0,0.0,0.0,0.0,0.0,0.0,0.0,0.0,0.0,0.0,0.0,0.0,0.0,0.0,0.0,0.0,0.0,0.0,0.0,0.0,0.0,0.0,0.0,0.0,0.0,0.0,0.0,0.0,0.0,0.0,0.0,0.0,0.0,0.0,0.0,0.0,0.0,0.0,0.0,0.0,0.0,0.0,0.0,0.0,0.0,0.0,0.0,0.0,0.0,0.0,0.0,0.0,0.0,0.0,0.0,0.0,0.0,0.0,0.0,0.0,0.0,0.0,0.0,0.0,0.0,0.0,0.0,0.0,0.0,0.0,0.0,0.0,0.0,0.0,0.0,0.0,0.0,0.0,0.0,0.0,0.0,0.0,0.0,0.0,0.0,0.0,0.0,0.0,0.0,0.0,0.0,0.0,0.0,0.0,-3.4472,-3.9286,-4.3038,-4.4724,-4.4895,-4.4232,-4.2545,-4.0423,-3.7239,-3.2691,0.0,0.0,0.0,0.0,0.0,0.0,0.0,0.0,0.0,0.0,0.0,0.0,0.0,0.0,0.0,0.0,0.0,0.0,0.0,0.0,0.0,0.0,0.0,0.0,0.0,0.0,0.0,0.0,0.0,0.0,0.0,0.0,0.0,0.0,0.0,0.0,0.0,0.0,0.0,0.0,0.0,0.0,0.0,0.0,0.0,0.0,0.0,0.0,0.0,0.0,0.0,0.0,0.0,0.0,0.0,0.0,0.0,0.0,0.0,0.0,0.0,0.0,0.0,0.0,0.0,0.0,0.0,0.0,0.0,0.0,0.0,0.0,0.0,0.0,0.0,0.0,0.0,0.0,0.0,0.0,0.0,0.0,0.0,0.0,0.0,0.0,0.0,0.0,0.0,0.0,0.0,0.0,0.0,0.0,0.0,0.0,0.0,0.0,0.0,0.0,0.0,0.0,-3.4529,-3.9286,-4.3038,-4.4724,-4.4895,-4.4364,-4.3038,-4.1389,-3.8414,-3.3695,0.0,0.0,0.0,0.0,0.0,0.0,0.0,0.0,0.0,0.0,0.0,0.0,0.0,0.0,0.0,0.0,0.0,0.0,0.0,0.0,0.0,0.0,0.0,0.0,0.0,0.0,0.0,0.0,0.0,0.0,0.0,0.0,0.0,0.0,0.0,0.0,0.0,0.0,0.0,0.0,0.0,0.0,0.0,0.0,0.0,0.0,0.0,0.0,0.0,0.0,0.0,0.0,0.0,0.0,0.0,0.0,0.0,0.0,0.0,0.0,0.0,0.0,0.0,0.0,0.0,0.0,0.0,0.0,0.0,0.0,0.0,0.0,0.0,0.0,0.0,0.0,0.0,0.0,0.0,0.0,0.0,0.0,0.0,0.0,0.0,0.0,0.0,0.0,0.0,0.0,0.0,0.0,0.0,0.0,0.0,0.0,0.0,0.0,0.0,0.0,0.0,0.0,-3.4718,-3.9399,-4.3133,-4.4724,-4.4895,-4.4573,-4.3777,-4.2166,-3.9437,-3.5287,0.0,0.0,0.0,0.0,0.0,0.0,0.0,0.0,0.0,0.0,0.0,0.0,0.0,0.0,0.0,0.0,0.0,0.0,0.0,0.0,0.0,0.0,0.0,0.0,0.0,0.0,0.0,0.0,0.0,0.0,0.0,0.0,0.0,0.0,0.0,0.0,0.0,0.0,0.0,0.0,0.0,0.0,0.0,0.0,0.0,0.0,0.0,0.0,0.0,0.0,0.0,0.0,0.0,0.0,0.0,0.0,0.0,0.0,0.0,0.0,-3.1833,0.0,0.0,0.0,0.0,0.0,0.0,0.0,0.0,0.0,0.0,0.0,0.0,0.0,0.0,0.0,0.0,0.0,0.0,0.0,0.0,0.0,0.0,0.0,0.0,0.0,0.0,0.0,0.0,0.0,0.0,0.0,0.0,0.0,0.0,0.0,0.0,0.0,0.0,0.0,0.0,0.0,-3.5664,-4.0336,-4.3796,-4.4781,-4.4895,-4.4573,-4.3777,-4.2166,-3.9702,-3.614,-3.2785,0.0,0.0,0.0,0.0,0.0,0.0,0.0,0.0,0.0,0.0,0.0,0.0,0.0,0.0,0.0,0.0,0.0,0.0,0.0,0.0,0.0,0.0,0.0,0.0,0.0,0.0,0.0,0.0,0.0,0.0,0.0,0.0,0.0,0.0,0.0,0.0,0.0,0.0,0.0,0.0,0.0,0.0,0.0,0.0,0.0,0.0,0.0,0.0,0.0,0.0,0.0,0.0,0.0,0.0,0.0,0.0,0.0,0.0,0.0,0.0,-3.4184,0.0,0.0,0.0,0.0,0.0,0.0,0.0,0.0,0.0,0.0,0.0,0.0,0.0,0.0,0.0,0.0,0.0,0.0,0.0,0.0,0.0,0.0,0.0,0.0,0.0,0.0,0.0,0.0,0.0,0.0,0.0,0.0,0.0,0.0,0.0,0.0,0.0,0.0,0.0,0.0,-3.6502,-4.0846,-4.4004,-4.4819,-4.4895,-4.4724,-4.4308,-4.3114,-4.1143,-3.8167,-3.523,0.0,0.0,0.0,0.0,0.0,0.0,0.0,0.0,0.0,0.0,0.0,0.0,0.0,0.0,0.0,0.0,0.0,0.0,0.0,0.0,0.0,0.0,0.0,0.0,0.0,0.0,0.0,0.0,0.0,0.0,0.0,0.0,0.0,0.0,0.0,0.0,0.0,0.0,0.0,0.0,0.0,0.0,0.0,0.0,0.0,0.0,0.0,0.0,0.0,0.0,0.0,0.0,0.0,-4.1293,-4.2125,-4.2144,-4.2676,-4.3239,-4.3576,-4.0181,-3.8845,-3.8864,-3.6267,0.0,0.0,0.0,0.0,0.0,0.0,0.0,0.0,0.0,0.0,0.0,0.0,0.0,0.0,0.0,0.0,0.0,0.0,0.0,0.0,0.0,0.0,0.0,0.0,-4.0134,-3.9859,0.0,0.0,0.0,0.0,0.0,0.0,0.0,0.0,0.0,0.0,0.0,0.0,-3.7564,-4.1411,-4.4156,-4.4838,-4.4895,-4.4895,-4.4895,-4.4156,-4.2735,-4.0476,-3.8016,-3.5249,0.0,0.0,0.0,0.0,0.0,0.0,0.0,0.0,0.0,0.0,0.0,0.0,0.0,0.0,0.0,0.0,0.0,0.0,0.0,0.0,0.0,0.0,0.0,0.0,0.0,0.0,0.0,0.0,0.0,0.0,0.0,0.0,-2.74,-2.9316,0.0,0.0,0.0,0.0,0.0,0.0,0.0,0.0,0.0,0.0,0.0,0.0,0.0,-3.9572,-4.1158,-4.3576,-4.4794,-4.4813,-4.6573,-4.7405,-4.7405,-4.7378,-4.7458,-4.7631,-4.6976,0.0,-4.3116,-4.0662,0.0,0.0,0.0,0.0,0.0,0.0,0.0,0.0,0.0,0.0,0.0,0.0,0.0,0.0,0.0,0.0,0.0,0.0,0.0,0.0,0.0,0.0,-4.5071,-4.5076,-4.5327,-4.517,0.0,-3.8878,-3.4339,-3.2975,-3.12,0.0,0.0,0.0,0.0,0.0,0.0,0.0,-3.9527,-4.2671,-4.4781,-4.4895,-4.4895,-4.4895,-4.4895,-4.4156,-4.3227,-4.2147,-3.974,-3.7504,-3.5609,-3.2425,0.0,0.0,0.0,0.0,0.0,0.0,0.0,0.0,0.0,0.0,0.0,0.0,0.0,0.0,0.0,0.0,0.0,0.0,0.0,0.0,0.0,0.0,0.0,0.0,0.0,0.0,0.0,0.0,0.0,-2.688,-3.0171,-3.1025,-3.165,-3.1518,0.0,0.0,0.0,0.0,0.0,0.0,0.0,0.0,0.0,-4.2396,-4.3324,-4.4581,-4.6303,-4.8372,-4.9397,-4.9397,-5.0674,-5.1273,-5.1254,-5.1082,-5.1027,-5.108,-5.1046,-5.0336,-4.8913,-4.5018,-4.2656,-4.1283,0.0,0.0,0.0,0.0,-3.8785,-3.8597,-4.103,-4.1476,0.0,-3.9877,0.0,0.0,0.0,0.0,0.0,0.0,0.0,0.0,0.0,0.0,-4.643,-4.6925,-4.6996,-4.6882,-4.6521,-4.3696,-4.0333,0.0,-3.619,-3.489,-3.1936,0.0,0.0,0.0,0.0,-3.9584,-4.1193,-4.344,-4.4895,-4.4895,-4.4895,-4.4895,-4.4895,-4.4573,-4.4023,-4.3189,-4.1654,-4.0025,-3.8357,-3.5533,-3.2823,0.0,0.0,0.0,0.0,0.0,0.0,0.0,0.0,0.0,0.0,0.0,0.0,0.0,0.0,0.0,0.0,0.0,0.0,0.0,0.0,0.0,0.0,0.0,0.0,0.0,0.0,0.0,0.0,-2.9972,-3.2654,-3.2987,-3.4538,-3.4839,0.0,0.0,0.0,0.0,0.0,0.0,-4.1332,-4.2841,-4.4813,-4.7347,-4.8063,-4.9126,-5.0654,-5.1912,-5.2531,-5.2531,-5.3188,-5.3498,-5.3498,-5.3337,-5.3281,-5.3281,-5.3281,-5.3281,-5.2972,-4.8996,-4.6769,-4.5723,-4.4241,-4.287,-4.1893,-4.3597,-4.3635,-4.3216,-4.6128,-4.6684,-4.584,-4.4259,0.0,-4.2415,-3.9061,0.0,0.0,0.0,0.0,-4.4301,-4.6012,-4.6779,-4.7341,-4.8178,-4.8319,-4.8253,-4.8253,-4.7605,-4.5776,0.0,-4.1017,-3.9891,-3.5886,0.0,0.0,0.0,0.0,-4.1559,-4.2867,-4.4326,-4.5236,-4.5236,-4.5028,-4.4895,-4.4895,-4.4895,-4.4649,-4.4042,-4.3208,-4.2185,-4.0934,-3.8471,-3.6045,-3.3714,0.0,0.0,0.0,0.0,0.0,0.0,0.0,0.0,0.0,0.0,0.0,0.0,0.0,0.0,0.0,0.0,0.0,0.0,0.0,0.0,0.0,0.0,0.0,0.0,0.0,0.0,0.0,0.0,0.0,-3.6524,-3.8179,0.0,0.0,0.0,0.0,-3.9108,-4.1545,-4.4078,-4.6573,-4.7579,-4.9243,-5.1796,-5.1912,-5.2376,-5.3304,-5.3382,-5.342,-5.344,-5.3478,-5.3498,-5.3498,-5.3498,-5.3478,-5.3478,-5.3478,-5.3478,-5.3401,-5.2318,-5.1286,-5.0294,-4.9354,-4.8006,-4.6656,-4.7526,-4.7314,-4.6788,-4.7905,-4.8202,-4.8195,-4.9042,-4.8083,-4.6455,-4.5475,-4.4665,0.0,0.0,-4.5765,-4.7009,-4.8376,-4.8898,-4.9254,-5.0057,-5.0393,-5.0529,-5.0529,-4.9855,-4.8606,0.0,-4.468,-4.3244,-4.2351,0.0,-4.103,-4.09,-4.2487,-4.3977,-4.4692,-4.5558,-4.6127,-4.6127,-4.5388,-4.4895,-4.4895,-4.4895,-4.4876,-4.4838,-4.408,-4.3606,-4.3512,-4.1086,-3.8906,-3.7182,-3.3107,0.0,0.0,0.0,0.0,0.0,0.0,0.0,0.0,0.0,0.0,0.0,0.0,0.0,0.0,0.0,0.0,0.0,0.0,0.0,0.0,0.0,0.0,0.0,0.0,0.0,0.0,0.0,0.0,-3.9942,-4.1963,0.0,-4.0778,-4.1641,-4.2899,-4.4291,-4.6264,-4.8295,-5.0268,-5.1215,-5.2105,-5.3014,-5.3575,-5.402,-5.4329,-5.5412,-5.5954,-5.5954,-5.6515,-5.6766,-5.6766,-5.6766,-5.6766,-5.6766,-5.6766,-5.6766,-5.6747,-5.6437,-5.4689,-5.2141,-5.1794,-5.1162,-5.0498,-5.0996,-5.096,-5.0703,-5.1142,-5.1337,-5.1413,-5.1322,-5.0136,-4.8655,-4.8365,-4.8056,-4.7851,-4.8039,-4.8767,-4.9556,-4.9951,-5.0105,-5.0202,-5.0349,-5.0446,-5.0507,-5.0507,-5.0257,-4.9873,-4.9278,-4.7592,-4.5868,-4.4546,-4.4836,-4.4919,-4.3923,-4.5109,-4.6258,-4.6468,-4.6771,-4.6771,-4.6259,-4.5918,-4.5501,-4.4952,-4.4895,-4.4687,-4.4156,-4.3853,-4.3227,-4.2147,-4.1219,-3.9683,-3.7428,-3.4889,-3.1838,0.0,0.0,0.0,0.0,0.0,0.0,0.0,0.0,0.0,0.0,0.0,0.0,0.0,0.0,0.0,0.0,0.0,0.0,0.0,0.0,0.0,0.0,0.0,0.0,0.0,0.0,-4.1526,-4.2603,-4.4908,-4.5943,-4.4703,-4.5877,-4.7308,-4.872,-5.0152,-5.1602,-5.2995,-5.3614,-5.4194,-5.4755,-5.5335,-5.578,-5.607,-5.7172,-5.7733,-5.7753,-5.8314,-5.8604,-5.8604,-5.8604,-5.8604,-5.8604,-5.8604,-5.8604,-5.8584,-5.8529,-5.7022,-5.4732,-5.4425,-5.3832,-5.323,-5.3398,-5.3248,-5.2976,-5.3065,-5.3186,-5.3241,-5.2768,-5.1892,-5.0983,-5.0983,-5.0983,-5.0967,-5.0897,-5.1319,-5.1744,-5.1567,-5.1586,-5.1604,-5.1491,-5.1221,-5.101,-5.101,-5.0739,-5.0527,-5.0586,-4.9477,-4.8113,-4.6789,-4.7272,-4.741,-4.613,-4.7023,-4.7832,-4.7832,-4.7832,-4.7624,-4.7093,-4.6544,-4.5975,-4.5388,-4.4819,-4.4383,-4.4118,-4.3568,-4.2905,-4.209,-4.1219,-3.9968,-3.8281,-3.6045,-3.3278,-2.9926,0.0,0.0,0.0,0.0,0.0,0.0,0.0,0.0,0.0,0.0,0.0,0.0,0.0,0.0,0.0,0.0,0.0,0.0,0.0,0.0,0.0,0.0,0.0,-3.9418,-4.1632,-4.3624,-4.4631,-4.6965,-4.8179,-4.7347,-4.9513,-5.1351,-5.2221,-5.3091,-5.3962,-5.4832,-5.489,-5.5664,-5.7288,-5.7346,-5.7753,-5.8584,-5.8623,-5.8642,-5.8642,-5.8662,-5.8681,-5.8681,-5.8681,-5.8681,-5.8681,-5.8681,-5.8681,-5.8662,-5.847,-5.837,-5.8273,-5.7386,-5.6155,-5.4875,-5.467,-5.4168,-5.3597,-5.3594,-5.3575,-5.3575,-5.3575,-5.3556,-5.3536,-5.3536,-5.3517,-5.3462,-5.3262,-5.3354,-5.3445,-5.3262,-5.3354,-5.3498,-5.3498,-5.284,-5.2221,-5.224,-5.1464,-5.0721,-5.0504,-5.0348,-5.003,-4.9348,-4.8962,-4.8439,-4.7631,-4.8193,0.0,-4.8723,-4.8723,-4.8723,-4.8685,-4.7245,-4.6259,-4.6203,-4.4706,-4.408,-4.4781,-4.3303,-4.2773,-4.3587,-4.1256,-3.9927,-3.9889,-3.6632,-3.415,-3.252,0.0,0.0,0.0,0.0,0.0,0.0,0.0,0.0,0.0,0.0,0.0,0.0,0.0,0.0,0.0,0.0,0.0,0.0,0.0,0.0,0.0,0.0,-4.1762,-4.1762,-4.4629,-4.706,-4.7959,-4.9811,-5.0962,-5.0809,-5.1989,-5.3149,-5.402,-5.4851,-5.5702,-5.6573,-5.7211,-5.7772,-5.8236,-5.8236,-5.8352,-5.8604,-5.9223,-5.9532,-5.9551,-6.0132,-6.0402,-6.0402,-6.0402,-6.0402,-6.0402,-6.0402,-6.0402,-6.0422,-6.0365,-5.9998,-5.9341,-5.8187,-5.7463,-5.7101,-5.6893,-5.6307,-5.5557,-5.5265,-5.5152,-5.5172,-5.5281,-5.4929,-5.4445,-5.4445,-5.4,-5.3498,-5.3445,-5.3462,-5.3498,-5.3445,-5.3462,-5.3498,-5.3498,-5.32,-5.2953,-5.3114,-5.2798,-5.2357,-5.1813,-5.1588,-5.1177,-5.0096,-4.9721,-4.9535,-4.9442,-4.9511,0.0,-4.9557,-4.9557,-4.9349,-4.8742,-4.8287,-4.751,-4.6297,-4.5786,-4.4819,-4.3189,-4.2659,-4.2261,-4.1901,-4.1219,-4.0555,-3.9908,-3.7239,-3.5609,0.0,0.0,0.0,0.0,0.0,0.0,0.0,0.0,0.0,0.0,0.0,0.0,0.0,0.0,0.0,0.0,0.0,0.0,0.0,0.0,0.0,0.0,-4.2602,-4.5129,-4.5816,-4.7511,-4.912,-5.0424,-5.1466,-5.2408,-5.3207,-5.4058,-5.4856,-5.5652,-5.6576,-5.7272,-5.7699,-5.8277,-5.8758,-5.9126,-5.9145,-5.93,-5.9629,-6.0151,-6.0402,-6.0402,-6.0886,-6.1099,-6.1099,-6.1099,-6.1099,0.0,-6.1002,-6.1022,-6.108,-6.0922,-6.0672,0.0,0.0,0.0,0.0,0.0,-5.7766,-5.729,-5.7041,-5.6966,-5.6927,-5.6634,-5.6225,-5.578,-5.5412,-5.4948,-5.4542,-5.4542,-5.4508,-5.4455,-5.4455,-5.44,-5.4362,-5.4437,-5.4092,-5.3803,-5.4005,-5.3662,-5.3165,-5.2627,-5.2165,0.0,-5.0767,-5.0285,-5.0063,-5.0188,-5.0012,-4.9898,-4.9898,-4.9898,-4.9709,-4.9235,-4.8894,-4.8306,-4.7321,-4.6259,0.0,0.0,0.0,-4.2052,-4.1237,-4.12,0.0,0.0,0.0,0.0,0.0,0.0,0.0,0.0,-3.6803,-3.7125,0.0,0.0,0.0,0.0,0.0,0.0,0.0,0.0,0.0,0.0,0.0,0.0,0.0,0.0,0.0,0.0,-4.5974,-4.8736,-5.0327,-5.0125,-5.0447,-5.2111,-5.2434,-5.313,-5.4774,-5.5647,-5.6424,-5.7117,-5.8124,-5.8645,-5.8485,0.0,0.0,0.0,0.0,-6.0364,-6.1099,-6.1099,-6.1099,-6.1099,-6.1099,-6.1099,-6.1099,-6.1099,-6.1099,-6.1099,-6.0901,-6.0941,-6.108,-6.0704,-6.0773,-6.1041,-6.0306,-5.9551,-5.8837,-5.8778,-5.8739,-5.8702,-5.8623,0.0,0.0,-5.7695,-5.7425,-5.7272,-5.648,-5.617,-5.6075,-5.6075,-5.5924,-5.5766,-5.5787,-5.5682,-5.5573,-5.5787,-5.5229,-5.4709,-5.4877,-5.4295,-5.3608,-5.3212,-5.2513,-5.1829,-5.1342,-5.0653,-5.0163,-5.0163,-5.0012,-4.9898,-4.9898,-4.9898,-4.9898,-4.9898,0.0,0.0,-4.8704,-4.662,-4.5539,-4.6013,-4.3853,-4.2242,-4.1522,-4.1579,-4.1579,-4.1484,-4.1484,-4.1844,-4.2564,-4.3417,-4.3493,-4.2754,-3.9039,-3.8869,0.0,0.0,0.0,0.0,0.0,0.0,0.0,0.0,0.0,0.0,0.0,0.0,0.0,0.0,0.0,-4.5124,-4.791,-5.0153,-5.1283,-5.2048,-5.2608,-5.2955,-5.3778,-5.4677,-5.5664,-5.6406,-5.7216,-5.822,-5.8973,-5.9454,-5.9573,-6.0092,-6.0536,-6.0867,-6.0711,-6.0767,-6.1099,-6.1099,-6.1099,-6.1099,0.0,0.0,-6.1099,-6.1099,-6.1099,-6.1099,-6.1061,-6.1061,-6.1099,-6.1022,-6.1022,-6.1079,-6.0925,-6.0674,-6.032,-5.9843,-5.9553,-5.9318,-5.8799,-5.8604,-5.8565,-5.8391,-5.824,-5.8082,-5.7909,-5.7244,0.0,-5.6556,-5.6073,-5.5596,-5.5766,-5.5766,-5.5787,-5.5941,-5.575,-5.5576,-5.5596,-5.534,-5.4882,-5.4124,-5.3836,-5.3276,-5.1844,-5.0691,-4.9978,-4.9978,-4.9906,-4.9898,-4.9898,-4.9898,-4.9898,-4.9898,-4.9746,-4.9405,-4.8742,-4.8249,-4.715,-4.5274,-4.408,-4.3379,-4.3227,-4.3834,-4.3891,-4.3227,-4.3227,-4.3284,-4.3455,-4.427,-4.4933,-4.5445,-4.463,-4.4232,0.0,0.0,0.0,0.0,0.0,0.0,0.0,0.0,0.0,0.0,0.0,-3.9428,-4.143,0.0,-4.584,-4.7999,-4.9711,-5.131,-5.2759,-5.3299,-5.3635,-5.382,-5.4323,-5.5151,-5.6387,-5.7196,-5.8063,-5.9031,-5.9779,-6.0241,-6.0363,-6.0646,-6.0901,-6.1099,-6.1002,-6.1002,-6.1099,-6.1446,-6.1597,-6.1597,-6.2002,-6.2152,-6.2044,-6.2174,-6.2195,-6.2157,-6.1665,-6.1557,-6.1718,-6.1273,-6.1041,-6.0962,-6.1061,-6.1022,-6.0904,-6.0498,-6.0282,-6.014,-5.9697,-5.9605,-5.961,-5.9064,-5.8927,-5.8869,-5.8445,-5.7937,-5.7505,-5.7634,-5.7283,-5.6816,-5.6479,-5.6321,-5.6162,-5.5824,-5.5705,-5.564,-5.564,-5.5573,-5.5346,-5.4809,-5.4345,-5.3765,-5.2857,-5.1836,-5.0892,-5.0171,-4.9959,-4.9898,-4.9898,-4.9898,-4.9898,-4.9898,-4.9898,-4.9728,-4.933,-4.8913,-4.7965,-4.6259,-4.5767,-4.5539,-4.5539,-4.5937,-4.5956,-4.5558,-4.5539,-4.5539,-4.5539,-4.5956,-4.6373,-4.6809,-4.7245,-4.698,0.0,0.0,0.0,0.0,0.0,0.0,0.0,0.0,-3.7084,-3.9772,-4.1516,-4.3197,-4.5261,-4.7072,-4.8802,-5.0393,-5.1324,-5.238,-5.3915,-5.4142,-5.4262,-5.46,-5.4706,-5.5421,-5.7138,-5.7886,-5.8693,-5.9817,-6.0407,-6.0792,-6.0858,-6.0836,-6.088,-6.1041,-6.1176,-6.1233,-6.1233,-6.1932,-6.229,-6.2333,-6.2987,-6.3248,-6.3143,-6.3315,-6.3384,-6.3303,-6.2334,-6.2105,-6.2336,-6.1466,-6.1002,-6.088,-6.1041,-6.1099,-6.108,-6.0922,-6.0858,-6.0836,-6.0681,-6.0727,-6.0721,-5.985,-5.9704,-5.9697,-5.9004,-5.8655,-5.8539,-5.8703,-5.8508,-5.8096,-5.7424,-5.6967,-5.6563,-5.5934,-5.5642,-5.548,-5.5456,-5.5456,-5.5364,-5.5176,-5.4577,-5.4009,-5.3755,-5.312,-5.2134,-5.0628,-5.0252,-5.0088,-4.9917,-4.9898,-4.9898,-4.9898,-4.9898,-4.9898,-4.9898,-4.9159,-4.8382,-4.77,-4.7491,-4.7397,-4.7397,-4.7397,-4.7397,-4.7397,-4.7397,-4.7397,-4.7397,-4.7567,-4.7643,-4.7662,-4.8515,-4.8458,-3.0057,-3.1477,-3.337,-3.5642,-3.582,-3.6972,0.0,0.0,-4.2316,-4.558,-4.6505,-4.7043,-4.806,-4.9041,-4.9997,-5.0965,-5.2437,-5.3556,-5.3887,-5.458,-5.5076,-5.5129,-5.542,-5.6387,-5.8239,-5.8187,-5.8835,-6.079,-6.067,-6.0681,-6.1061,-6.0901,-6.0795,-6.0817,-6.1406,-6.171,-6.171,-6.2509,-6.299,-6.3161,-6.3257,-6.3406,-6.3631,-6.3631,-6.3671,-6.3613,-6.2723,-6.2356,-6.2336,-6.1466,-6.108,-6.108,-6.1099,-6.1099,-6.1099,-6.108,-6.108,-6.1061,-6.1041,-6.1061,-6.1041,-6.0945,-6.0787,-6.066,-6.0545,-5.9892,-5.9196,-5.9221,-5.8664,-5.8054,-5.8135,-5.7428,-5.6721,-5.6802,-5.6137,-5.5456,-5.5262,-5.5236,-5.5176,-5.4971,-5.4836,-5.4552,-5.3821,-5.3631,-5.2987,-5.1347,-5.1054,-5.077,-4.9993,-4.9898,-4.9898,-4.9898,-4.9898,-4.9898,-4.9898,-4.9159,-4.8647,-4.8553,-4.7832,-4.7397,-4.7397,-4.7397,-4.7397,-4.7397,-4.7397,-4.7397,-4.7397,-4.8174,-4.8534,-4.8553,-4.9386,-4.933,-3.5683,-3.6099,0.0,0.0,-4.0141,-4.138,-4.4242,-4.4599,-4.4998,-4.7306,-4.7974,-4.8375,-4.9145,-5.0033,-5.0976,0.0,-5.2978,-5.3927,-5.4566,-5.4865,-5.4876,-5.4497,-5.5033,-5.6203,-5.8075,-5.8116,-5.8854,-6.0944,-6.0727,-6.0633,-6.0901,-6.0613,-6.0738,-6.1357,-6.1646,-6.2015,-6.2494,-6.3338,-6.3813,-6.3873,-6.4499,-6.4797,-6.4812,-6.4929,-6.4704,-6.4202,-6.3999,-6.3342,-6.2375,-6.2008,-6.1563,-6.1099,-6.1099,-6.1099,-6.108,-6.0982,-6.0941,-6.0901,-6.0773,-6.0836,-6.0901,-6.0773,-6.0681,-6.0633,-6.0633,-6.0233,-5.9852,-5.9984,-5.9741,-5.9363,-5.8938,-5.8486,-5.7895,-5.6874,-5.6346,-5.5854,-5.518,-5.5028,-5.5,-5.4931,-5.4901,-5.4787,-5.4465,-5.4408,-5.401,-5.2836,-5.2229,-5.1604,-5.077,-5.0656,-5.0467,-4.9936,-4.9898,-4.9898,-4.9898,-4.9576,-4.9386,-4.9386,-4.9045,-4.8837,-4.8837,-4.8837,-4.8837,-4.8837,-4.8837,-4.8837,-4.8856,-4.9216,-4.9386,-4.9405,-4.9728,-4.9709,-3.912,0.0,0.0,-4.1757,-4.3576,-4.4904,-4.5177,-4.5892,-4.6863,-4.819,-4.8729,-4.9116,-4.9608,-5.0506,0.0,-5.2448,-5.3233,-5.4031,-5.4979,-5.481,-5.4467,-5.4199,-5.455,-5.5508,-5.7404,-5.7843,-5.8758,-6.0558,-6.0569,-6.0559,-6.0704,-6.0456,-6.0723,-6.1685,-6.1989,-6.2459,-6.314,-6.4087,-6.4585,-6.4688,-6.5442,-6.5801,-6.5776,-6.5876,-6.5577,-6.5048,-6.4921,-6.4211,-6.3091,-6.2607,-6.2008,-6.135,-6.1118,-6.0982,-6.0922,-6.0773,-6.075,-6.0773,-6.0584,-6.0608,-6.0681,-6.0559,-6.0508,-6.0508,-6.0508,-6.0403,-6.0321,-6.0456,-6.0508,-6.0355,-5.9716,-5.9345,-5.8807,-5.745,-5.6711,-5.615,-5.5405,-5.5072,-5.4901,-5.4901,-5.4901,-5.4901,-5.4901,-5.4901,-5.4712,-5.4124,-5.3499,-5.2722,-5.1679,-5.1338,-5.0865,-4.9974,-4.9898,-4.9898,-4.9898,-4.9898,-4.9898,-4.9898,-4.9898,-4.9898,-4.9898,-4.9898,-4.9898,-4.9898,-4.9898,-4.9898,-4.9898,-4.9898,-4.9898,-4.9898,-5.0144,-5.0258,0.0,0.0,-4.2853,-4.3708,-4.5194,-4.6624,-4.7404,-4.7774,-4.8165,-4.9006,-4.9446,-4.9673,-4.9692,-5.0506,-5.1471,-5.2286,-5.3139,-5.3973,-5.4787,-5.4219,-5.4029,-5.4769,-5.42,-5.4487,0.0,-5.7436,-5.8453,-5.9562,-6.0167,-6.0508,-6.0508,-6.0508,-6.0805,-6.1476,-6.247,-6.3159,-6.3596,-6.4628,-6.5299,-6.555,-6.5597,-6.5826,-6.6184,-6.5994,-6.5974,-6.6088,-6.5068,-6.4723,-6.4793,-6.311,-6.2256,-6.1989,-6.1142,-6.0681,-6.0508,-6.0508,-6.0633,-6.0773,-6.0584,-6.0508,-6.0508,-6.0508,-6.0508,-6.0508,-6.0508,-6.0508,-6.0482,-6.0508,-6.0508,-6.0489,-6.047,-5.9737,-5.8987,-5.8949,-5.7538,-5.619,-5.6171,-5.5508,-5.4901,-5.4901,-5.4901,-5.4901,-5.4901,-5.4901,-5.4901,-5.4863,-5.4844,-5.4238,-5.2589,-5.1679,-5.0865,-4.9974,-4.9898,-4.9898,-4.9898,-4.9898,-4.9898,-4.9898,-4.9898,-4.9898,-4.9898,-4.9898,-4.9898,-4.9898,-4.9898,-4.9898,-4.9898,-4.9898,-4.9898,-4.9917,-5.077,-5.1168,0.0,0.0,-4.4061,-4.5974,-4.6884,-4.7516,-4.8314,-4.8636,-4.866,-4.83,-4.8453,-4.8499,-4.7845,-4.9058,-5.0459,-5.1252,-5.2702,-5.3992,-5.4787,-5.4674,-5.4408,-5.4143,-5.4352,0.0,0.0,0.0,0.0,-5.9283,-5.9472,-5.9739,-6.0274,-6.0684,-6.1286,-6.2083,-6.2927,-6.3731,-6.4471,-6.4952,-6.5245,-6.5337,-6.5513,-6.5671,-6.5801,-6.575,-6.5826,-6.5974,-6.5615,-6.5196,-6.4704,-6.4289,-6.3254,-6.1895,-6.1732,-6.12,-6.0482,-6.0349,-6.0349,-6.043,-6.0482,-6.0508,-6.0508,-6.0508,-6.0403,-6.0293,-6.0293,-6.0198,-6.0099,-6.0099,-6.0099,-6.0099,-6.0099,-5.9847,-5.9444,-5.8912,-5.8318,-5.7535,-5.6436,-5.5962,-5.5583,-5.5015,-5.4901,-5.4901,-5.4901,-5.4901,-5.4901,-5.4901,-5.4446,-5.3897,-5.3347,-5.2059,-5.1092,-5.0789,-5.0239,-4.9898,-4.9898,-4.9898,-4.9898,-4.9898,-4.9898,-4.9898,-4.9898,-4.9898,-4.9898,-4.9898,-4.9898,-4.9898,-4.9898,-4.9898,-5.0201,-5.077,-5.1073,-5.149,-4.3596,-4.4674,-4.5417,-4.759,-4.8129,-4.8259,-4.8779,-4.8788,-4.8468,-4.7847,-4.7447,-4.7147,-4.6873,-4.7663,-4.8957,-5.0704,-5.202,-5.3309,-5.4712,-5.4655,-5.4503,-5.4579,-5.4769,-5.496,0.0,0.0,0.0,-5.8635,-5.9158,-5.9616,-6.0061,-6.0722,-6.1496,-6.2387,-6.3285,-6.412,-6.4888,-6.5104,-6.5213,-6.5213,-6.5456,-6.5589,-6.5589,-6.5504,-6.5569,-6.5801,-6.5705,-6.5397,-6.4936,-6.4806,-6.3724,-6.2106,-6.1953,-6.1222,-6.0284,-6.014,-6.0099,-6.011,-6.0256,-6.0284,-6.0284,-6.0284,-6.0198,-6.0099,-6.0099,-5.9994,-5.9885,-5.9885,-5.9885,-5.9885,-5.9885,-5.9885,-5.9772,-5.9241,-5.89,-5.8388,-5.7327,-5.6853,-5.6379,-5.5527,-5.5356,-5.5261,-5.4958,-5.4901,-5.4901,-5.4901,-5.4465,-5.4029,-5.3745,-5.276,-5.1983,-5.1661,-5.113,-5.0789,-5.0789,-5.0523,-5.0353,-5.0353,-5.0069,-4.9898,-4.9898,-4.9898,-4.9898,-4.9898,-5.0201,-5.0353,-5.0372,-5.0656,-5.1073,-5.1642,-5.1964,-5.2381,-4.4896,-4.5974,-4.6995,-4.8519,-4.8909,-4.889,-4.8853,-4.8259,-4.7646,-4.7478,-4.6326,-4.5615,0.0,0.0,-4.703,-5.0458,-5.1168,-5.2134,-5.4617,-5.4314,-5.4427,0.0,0.0,0.0,0.0,0.0,0.0,-5.7739,0.0,-6.0061,-5.9975,-6.0719,-6.1553,-6.2444,-6.3505,-6.4324,-6.4888,-6.5071,-6.5182,-6.5182,-6.5427,-6.5561,-6.5561,-6.5307,-6.5337,-6.5561,-6.5307,-6.5337,-6.5531,-6.4679,-6.3724,-6.2677,-6.1876,-6.0905,-5.9942,-5.9904,-5.9885,-5.9885,-5.9885,-5.9885,-5.9885,-5.9885,-5.9885,-5.9885,-5.9885,-5.9885,-5.9885,-5.9885,-5.9885,-5.9885,-5.9885,-5.9885,-5.9885,-5.9885,-5.9317,-5.8748,-5.871,-5.8047,-5.7232,-5.6417,-5.6228,-5.5925,-5.5053,-5.4901,-5.4901,-5.4901,-5.4901,-5.4617,-5.3859,-5.3726,-5.3385,-5.2551,-5.2438,-5.24,-5.24,-5.1717,-5.1263,-5.1263,-5.0486,-5.0031,-5.0031,-5.0031,-5.0031,-5.0031,-5.0846,-5.1263,-5.1263,-5.204,-5.2438,-5.2494,-5.3309,-5.3726,-4.5732,-4.7218,-4.8389,-4.8797,-4.8909,-4.8742,-4.8147,-4.785,-4.7014,-4.4544,-4.3739,-4.3029,-4.1548,0.0,0.0,-4.7861,-5.0383,0.0,-5.5508,-5.5697,0.0,0.0,0.0,-5.6929,-5.7365,-5.799,0.0,0.0,-5.8824,-5.957,-6.0719,-6.1591,-6.2463,-6.3278,-6.4199,-6.4731,-6.4907,-6.4958,-6.4993,-6.4974,-6.5042,-6.5076,-6.5076,-6.5008,-6.509,-6.5307,-6.5245,-6.5245,-6.5288,-6.5283,-6.4535,-6.3318,-6.2654,-6.1723,-6.0719,-6.0113,-5.9885,-5.9885,-5.9885,-5.9885,-5.9885,-5.9885,-5.9885,-5.9885,-5.9885,-5.9885,-5.9885,-5.9885,-5.9885,-5.9885,-5.9885,-5.9885,-5.9885,-5.9885,-5.9734,-5.943,-5.8824,-5.8521,-5.8104,-5.7251,-5.6607,-5.5925,-5.5053,-5.4901,-5.4901,-5.4901,-5.4901,-5.4825,-5.4617,-5.4067,-5.3613,-5.3385,-5.2798,-5.24,-5.24,-5.221,-5.2096,-5.2096,-5.1888,-5.1755,-5.1755,-5.1755,-5.1755,-5.1755,-5.1983,-5.2096,-5.2096,-5.2305,-5.2741,-5.3366,-5.3613,-5.4029,-4.668,-4.7943,-4.8909,-4.8909,-4.863,-4.8073,-4.6903,-4.6085,-4.4711,-4.1776,-4.0942,0.0,-3.8639,0.0,0.0,0.0,0.0,0.0,-5.5223,-5.5962,-5.6645,0.0,-5.7971,0.0,-5.8445,-5.8938,-5.9222,0.0,-5.9544,-6.0151,-6.1041,-6.2273,-6.3145,-6.36,-6.4453,-6.4907,-6.4907,-6.4907,-6.4907,-6.4907,-6.4907,-6.4907,-6.4907,-6.4907,-6.4958,-6.5057,0.0,-6.5057,-6.509,-6.5252,-6.4609,-6.3524,-6.2838,-6.1969,-6.0984,-6.0189,-5.9885,-5.9885,-5.9885,-5.9885,-5.9885,-5.9885,-5.9885,-5.9885,-5.9885,-5.9885,-5.9885,-5.9885,-5.9885,-5.9885,-5.9885,-5.9885,-5.9885,-5.9885,-5.9885,-5.9772,-5.9317,-5.9222,-5.8976,-5.8123,-5.7005,-5.6038,-5.5546,-5.5148,-5.4901,-5.4901,-5.4901,-5.4901,-5.4901,-5.4503,-5.4238,-5.4238,-5.3802,-5.3499,-5.3499,-5.3177,-5.2968,-5.2968,-5.2627,-5.24,-5.24,-5.24,-5.24,-5.24,-5.2779,-5.2968,-5.2968,-5.3328,-5.3745,-5.4238,-5.4238,-5.4465,-4.7646,-4.837,-4.8909,-4.8909,-4.8296,-4.7256,-4.5509,-4.3838,-4.1869,-3.9175,0.0,-3.7399,-3.6719,0.0,-4.1548,-4.4302,0.0,-5.094,-5.4408,-5.564,-5.6815,-5.8483,-5.8786,-5.9127,-5.9828,-5.9885,-5.9885,-5.9885,-6.0643,-6.1136,-6.1269,-6.2652,-6.3543,-6.377,-6.4509,-6.4907,-6.4907,-6.4907,-6.4907,-6.4907,-6.4907,-6.4907,-6.4907,-6.4907,-6.4907,-6.4907,-6.4907,0.0,-6.4907,-6.4907,-6.4396,-6.3524,-6.2728,-6.1875,-6.0984,-6.0189,-5.9885,-5.9885,-5.9885,-5.9885,-5.9885,-5.9885,-5.9885,-5.9885,-5.9885,-5.9885,-5.9885,-5.9885,-5.9885,-5.9885,-5.9885,-5.9885,-5.9885,-5.9885,-5.9885,-5.9885,-5.9885,-5.9885,-5.9658,-5.8843,-5.7516,-5.6455,-5.6228,-5.5564,-5.5034,-5.492,-5.4901,-5.4901,-5.4901,-5.4901,-5.4901,-5.4901,-5.4901,-5.4901,-5.4901,-5.4257,-5.3859,-5.3859,-5.3158,-5.2741,-5.2741,-5.2741,-5.2741,-5.2741,-5.348,-5.3859,-5.3859,-5.456,-5.4901,-5.4901,-5.4901,-5.4901,-4.8481,-4.8797,-4.8909,-4.8909,-4.8296,-4.7088,-4.4766,-4.2965,0.0,0.0,0.0,-3.4726,-3.4148,-3.6675,0.0,-4.3374,0.0,0.0,0.0,0.0,-5.6815,0.0,0.0,0.0,0.0,0.0,0.0,0.0,0.0,-6.1401,-6.214,-6.2463,-6.324,-6.4642,-6.4832,-6.4907,-6.4907,-6.4907,-6.4907,-6.4907,-6.4907,-6.4907,-6.4907,-6.4907,-6.4907,-6.4907,-6.4907,0.0,-6.4907,-6.4907,-6.4396,-6.3524,-6.2728,-6.1875,-6.0984,-6.0189,-5.9885,-5.9885,-5.9885,-5.9885,-5.9885,-5.9885,-5.9885,-5.9885,-5.9885,-5.9885,-5.9885,-5.9885,-5.9885,-5.9885,-5.9885,-5.9885,-5.9885,-5.9885,-5.9885,-5.9885,-5.9885,-5.9885,-5.9658,-5.8843,-5.8464,-5.782,-5.6436,-5.6076,-5.5735,-5.5015,-5.4901,-5.4901,-5.4901,-5.4901,-5.4901,-5.4901,-5.4901,-5.4901,-5.4901,-5.4769,-5.4693,-5.4693,-5.456,-5.4465,-5.4465,-5.4465,-5.4465,-5.4465,-5.4617,-5.4693,-5.4693,-5.4825,-5.4901,-5.4901,-5.4901,-5.4901,-4.8686,-4.8909,-4.8797,-4.8389,-4.7367,-4.5565,-4.2203,0.0,0.0,0.0,0.0,-3.2083,-3.0956,0.0,0.0,0.0,0.0,0.0,0.0,0.0,0.0,0.0,0.0,0.0,0.0,0.0,0.0,0.0,0.0,-6.0833,-6.1686,-6.2557,-6.36,-6.4869,-6.4907,-6.4907,-6.4907,-6.4907,-6.4907,-6.4907,-6.4907,-6.4907,-6.4907,-6.4907,-6.4907,-6.4907,-6.4907,0.0,-6.4869,-6.4415,-6.3998,-6.3486,-6.2216,-6.1458,-6.0984,-6.0189,-5.9885,-5.9885,-5.9885,-5.9885,-5.9885,-5.9885,-5.9885,-5.9885,-5.9885,-5.9885,-5.9885,-5.9885,-5.9885,-5.9885,-5.9885,-5.9885,-5.9885,-5.9885,-5.9885,-5.9885,-5.9885,-5.9885,-5.9791,-5.9393,-5.8976,-5.8293,-5.7043,-5.6474,-5.5906,-5.5034,-5.4901,-5.4901,-5.4901,-5.4901,-5.4901,-5.4901,-5.4901,-5.4901,-5.4901,-5.4901,-5.4901,-5.4901,-5.4901,-5.4901,-5.4901,-5.4901,-5.4901,-5.4901,-5.4901,-5.4901,-5.4901,-5.4901,-5.4901,-5.4901,-5.4901,-5.4901,-4.8481,-4.8779,-4.8723,-4.7906,-4.6494,-4.4209,-4.0077,-3.7121,0.0,0.0,-2.9883,-2.9944,-2.8839,0.0,0.0,0.0,0.0,0.0,0.0,0.0,0.0,0.0,0.0,0.0,0.0,0.0,0.0,0.0,0.0,0.0,-6.106,-6.2538,-6.3751,-6.4604,-6.4623,-6.4718,-6.4907,-6.4907,-6.4907,-6.4907,-6.4907,-6.4907,-6.4907,-6.4907,-6.4813,-6.4623,-6.4623,0.0,0.0,-6.3638,-6.324,-6.2936,-6.161,-6.0984,-6.0757,-6.0132,-5.9885,-5.9885,-5.9885,-5.9885,-5.9885,-5.9885,-5.9885,-5.9885,-5.9885,-5.9885,-5.9885,-5.9885,-5.9885,-5.9885,-5.9885,-5.9885,-5.9885,-5.9885,-5.9885,-5.9885,-5.9885,-5.9885,-5.9885,-5.9885,-5.9374,-5.8672,-5.782,-5.7005,-5.6171,-5.5318,-5.5015,-5.4901,-5.4901,-5.4901,-5.4901,-5.4901,-5.4901,-5.4901,-5.4901,-5.4901,-5.4901,-5.4901,-5.4901,-5.4901,-5.4901,-5.4901,-5.4901,-5.4901,-5.4901,-5.4901,-5.4901,-5.4901,-5.4901,-5.4901,-5.4901,-5.4901,-4.7794,-4.8333,-4.8723,-4.7906,-4.6494,-4.424,-4.0207,0.0,0.0,-3.0263,-2.9064,-2.8819,-2.9529,-3.1298,0.0,0.0,0.0,0.0,0.0,0.0,0.0,0.0,0.0,0.0,0.0,0.0,0.0,0.0,0.0,0.0,-6.106,-6.2008,-6.2899,-6.3694,-6.3732,-6.4111,-6.4888,-6.4907,-6.4907,-6.4907,-6.4907,-6.4907,-6.4907,-6.4907,-6.4471,-6.3732,-6.3732,0.0,0.0,-6.2557,-6.2046,-6.1307,-6.1155,-6.0643,-5.9999,-5.9923,-5.9885,-5.9885,-5.9885,-5.9885,-5.9885,-5.9885,-5.9885,-5.9885,-5.9885,-5.9885,-5.9885,-5.9885,-5.9885,-5.9885,-5.9885,-5.9885,-5.9885,-5.9885,-5.9885,-5.9885,-5.9885,-5.9885,-5.9885,-5.9885,-5.9828,-5.9525,-5.871,-5.7858,-5.7005,-5.619,-5.5413,-5.4901,-5.4901,-5.4901,-5.4901,-5.4901,-5.4901,-5.4901,-5.4901,-5.4901,-5.4901,-5.4901,-5.4901,-5.4901,-5.4901,-5.4901,-5.4901,-5.4901,-5.4901,-5.4901,-5.4901,-5.4901,-5.4901,-5.4901,-5.4901,-5.4901,-4.7163,-4.7924,-4.798,-4.7181,-4.5797,-4.345,-3.8835,0.0,-3.2079,-2.8838,-2.79,-2.7786,-2.8177,-3.0018,-3.2411,0.0,0.0,0.0,0.0,0.0,0.0,0.0,0.0,0.0,0.0,0.0,0.0,0.0,0.0,0.0,-6.0359,-6.1174,-6.2008,-6.2861,-6.2899,-6.305,-6.3391,-6.341,-6.341,-6.341,-6.341,-6.341,-6.341,-6.341,-6.3221,-6.2899,-6.2899,0.0,0.0,-6.1837,-6.1401,-6.1041,-6.0568,-6.017,-5.9885,-5.9885,-5.9885,-5.9885,-5.9885,-5.9885,-5.9885,-5.9885,-5.9885,-5.9885,-5.9885,-5.9885,-5.9885,-5.9885,-5.9885,-5.9885,-5.9885,-5.9885,-5.9885,-5.9885,-5.9885,-5.9885,-5.9885,-5.9885,-5.9885,-5.9885,-5.9885,-5.9639,-5.8824,-5.7971,-5.7118,-5.6323,-5.547,-5.4901,-5.4901,-5.4901,-5.4901,-5.4901,-5.4901,-5.4901,-5.4901,-5.4901,-5.4901,-5.4901,-5.4901,-5.4901,-5.4901,-5.4901,-5.4901,-5.4901,-5.4901,-5.4901,-5.4901,-5.4901,-5.4901,-5.4901,-5.4901,-5.4901,-4.5972,-4.709,-4.7257,-4.6438,-4.4909,-4.238,0.0,0.0,-3.0979,-2.8212,-2.7457,-2.7363,-2.7608,-2.9298,-3.1297,-3.3242,0.0,-3.703,0.0,0.0,0.0,0.0,0.0,0.0,0.0,0.0,0.0,0.0,0.0,0.0,0.0,-6.0435,-6.1136,-6.1989,-6.2027,-6.214,-6.2406,-6.2406,-6.2406,-6.2406,-6.2406,-6.2406,-6.2406,-6.2406,-6.2273,-6.2027,-6.2027,0.0,0.0,-6.1003,-6.0738,-6.0681,-6.0113,-5.9885,-5.9885,-5.9885,-5.9885,-5.9885,-5.9885,-5.9885,-5.9885,-5.9885,-5.9885,-5.9885,-5.9885,-5.9885,-5.9885,-5.9885,-5.9885,-5.9885,-5.9885,-5.9885,-5.9885,-5.9885,-5.9885,-5.9885,-5.9885,-5.9885,-5.9885,-5.9885,-5.9885,-5.9715,-5.9146,-5.835,-5.7497,-5.6683,-5.583,-5.5185,-5.4939,-5.4901,-5.4901,-5.4901,-5.4901,-5.4901,-5.4901,-5.4901,-5.4901,-5.4901,-5.4901,-5.4901,-5.4901,-5.4901,-5.4901,-5.4901,-5.4901,-5.4901,-5.4901,-5.4901,-5.4901,-5.4901,-5.4901,-5.5034,-4.4027,-4.5687,-4.6701,-4.5913,-4.3849,-4.1173,0.0,-3.3994,-3.0563,-2.902,-2.8048,-2.7725,-2.8525,-2.9358,-3.0741,-3.3297,-3.5097,0.0,0.0,0.0,0.0,0.0,0.0,0.0,0.0,0.0,0.0,0.0,0.0,0.0,0.0,-5.9904,-6.0264,-6.1079,-6.1098,-6.1534,-6.2406,-6.2406,-6.2406,-6.2406,-6.2406,-6.2406,-6.2406,-6.2406,-6.1932,0.0,0.0,0.0,0.0,-5.9904,-5.9904,-5.9904,-5.9885,-5.9885,-5.9885,-5.9885,-5.9885,-5.9885,-5.9885,-5.9885,-5.9885,-5.9885,-5.9885,-5.9885,-5.9885,-5.9885,-5.9885,-5.9885,-5.9885,-5.9885,-5.9885,-5.9885,-5.9885,-5.9885,-5.9885,-5.9885,-5.9885,-5.9885,-5.9885,-5.9885,-5.9885,-5.9885,-5.9885,-5.9203,-5.8388,-5.7516,-5.6702,-5.5868,-5.5015,-5.4901,-5.4901,-5.4901,-5.4901,-5.4901,-5.4901,-5.4901,-5.4901,-5.4901,-5.4901,-5.4901,-5.4901,-5.4901,-5.4901,-5.4901,-5.4901,-5.4901,-5.4901,-5.4901,-5.4901,-5.4901,-5.4901,-5.5356,-3.9492,-4.0974,-4.1646,-4.0776,-4.0046,-3.8677,-3.5423,-3.2845,-3.0669,-2.9036,-2.8066,-2.7759,-2.8559,-2.9358,-3.1118,-3.4813,-3.5836,0.0,0.0,0.0,0.0,0.0,0.0,0.0,0.0,0.0,0.0,0.0,0.0,0.0,0.0,-5.9885,-6.0018,-6.0264,-6.0264,-6.0397,-6.0681,-6.0681,-6.0681,-6.0681,-6.0681,-6.0681,-6.0681,-6.0681,-6.053,0.0,0.0,0.0,0.0,-5.9885,-5.9885,-5.9885,-5.9885,-5.9885,-5.9885,-5.9885,-5.9885,-5.9885,-5.9885,-5.9885,-5.9885,-5.9885,-5.9885,-5.9885,-5.9885,-5.9885,-5.9885,-5.9885,-5.9885,-5.9885,-5.9885,-5.9885,-5.9885,-5.9885,-5.9885,-5.9885,-5.9885,-5.9885,-5.9885,-5.9885,-5.9885,-5.9885,-5.9885,-5.9222,-5.8597,-5.8331,-5.7554,-5.672,-5.5887,-5.5792,-5.5564,-5.4958,-5.4901,-5.4901,-5.4901,-5.4901,-5.4901,-5.4901,-5.4901,-5.4901,-5.4901,-5.4901,-5.4901,-5.4901,-5.4901,-5.4901,-5.4901,-5.4901,-5.5204,-5.5792,-5.5792,-5.655,0.0,-3.7554,-3.8206,-3.7962,-3.748,-3.6375,-3.3695,-3.1616,-2.9867,-2.854,-2.7839,-2.7759,-2.8559,-2.9358,-3.0985,-3.4245,-3.5306,0.0,0.0,0.0,0.0,0.0,0.0,0.0,0.0,0.0,0.0,0.0,0.0,0.0,0.0,-5.9885,-5.9885,-5.9885,-5.9885,-5.9885,-5.9885,-5.9885,-5.9885,-5.9885,-5.9885,-5.9885,-5.9885,-5.9885,-5.9885,0.0,0.0,0.0,0.0,-5.9885,-5.9885,-5.9885,-5.9885,-5.9885,-5.9885,-5.9885,-5.9885,-5.9885,-5.9885,-5.9885,-5.9885,-5.9885,-5.9885,-5.9885,-5.9885,-5.9885,-5.9885,-5.9885,-5.9885,-5.9885,-5.9885,-5.9885,-5.9885,-5.9885,-5.9885,-5.9885,-5.9885,-5.9885,-5.9885,-5.9885,-5.9885,-5.9885,-5.9885,-5.9468,-5.9051,-5.8748,-5.8237,-5.7479,-5.6341,-5.619,-5.5868,-5.4996,-5.4901,-5.4901,-5.4901,-5.4901,-5.4901,-5.4901,-5.4901,-5.4901,-5.4901,-5.4901,-5.4901,-5.4901,-5.4901,-5.4901,-5.4901,-5.5223,-5.5678,-5.6209,-5.6512,-5.7384,0.0,-3.4907,-3.5817,-3.6519,-3.5571,-3.4036,-3.2425,-3.0284,0.0,-2.7646,-2.7494,-2.7797,-2.8787,-2.9529,-3.0646,-3.271,0.0,0.0,0.0,0.0,0.0,0.0,0.0,0.0,0.0,0.0,0.0,0.0,0.0,0.0,0.0,-5.9885,-5.9885,-5.9885,-5.9885,-5.9885,-5.9885,-5.9885,-5.9885,-5.9885,-5.9885,-5.9885,-5.9885,-5.9885,-5.9885,0.0,0.0,0.0,0.0,-5.9885,-5.9885,-5.9885,-5.9885,-5.9885,-5.9885,-5.9885,-5.9885,-5.9885,-5.9885,-5.9885,-5.9885,-5.9885,-5.9885,-5.9885,-5.9885,-5.9885,-5.9885,-5.9885,-5.9885,-5.9885,-5.9885,-5.9885,-5.9885,-5.9885,-5.9885,-5.9885,-5.9885,-5.9885,-5.9885,-5.9885,-5.9885,-5.9885,-5.9885,-5.9885,-5.9639,-5.89,-5.8786,-5.8199,-5.6588,-5.6323,-5.5943,-5.5091,-5.4939,-5.4901,-5.4901,-5.4901,-5.4901,-5.4901,-5.4901,-5.4901,-5.4901,-5.4901,-5.4901,-5.4901,-5.4901,-5.4939,-5.4996,-5.5811,-5.6247,-5.6398,-5.7137,-5.7952,-2.7638,0.0,-3.036,-2.994,-2.9981,-2.9886,0.0,-2.8214,-2.774,-2.7551,0.0,-2.8328,-3.1042,-3.1193,-3.271,0.0,0.0,0.0,0.0,0.0,0.0,0.0,0.0,0.0,0.0,0.0,0.0,0.0,0.0,0.0,0.0,-5.9885,-5.9885,-5.9885,-5.9885,-5.9885,-5.9885,-5.9885,-5.9885,-5.9885,-5.9885,-5.9885,-5.9885,-5.9885,-5.9885,0.0,0.0,0.0,-5.9885,-5.9885,-5.9885,-5.9885,-5.9885,-5.9885,-5.9885,-5.9885,-5.9885,-5.9885,-5.9885,-5.9885,-5.9885,-5.9885,-5.9885,-5.9885,-5.9885,-5.9885,-5.9885,-5.9885,-5.9885,-5.9885,-5.9885,-5.9885,-5.9885,-5.9885,-5.9885,-5.9885,-5.9885,-5.9885,-5.9885,-5.9885,-5.9885,-5.9885,-5.9885,-5.9885,-5.9828,-5.9639,-5.962,-5.9241,-5.8237,-5.7516,-5.6796,-5.5981,-5.5299,-5.4901,-5.4901,-5.4901,-5.4901,-5.4901,-5.4901,-5.4901,-5.4901,-5.4901,-5.4901,-5.4901,-5.4901,-5.5223,-5.5887,-5.6095,-5.6853,-5.8104,-5.8312,-5.8824,-2.5456,-2.7411,-2.9279,-2.9204,-2.9526,-2.9639,-2.8825,0.0,0.0,0.0,0.0,0.0,-3.0833,0.0,0.0,0.0,0.0,0.0,0.0,0.0,0.0,0.0,0.0,0.0,0.0,0.0,0.0,0.0,0.0,0.0,0.0,-5.9885,-5.9885,-5.9885,-5.9885,-5.9885,-5.9885,-5.9885,-5.9885,-5.9885,-5.9885,-5.9885,-5.9885,-5.9885,-5.9885,0.0,0.0,0.0,-5.9885,-5.9885,-5.9885,-5.9885,-5.9885,-5.9885,-5.9885,-5.9885,-5.9885,-5.9885,-5.9885,-5.9885,-5.9885,-5.9885,-5.9885,-5.9885,-5.9885,-5.9885,-5.9885,-5.9885,-5.9885,-5.9885,-5.9885,-5.9885,-5.9885,-5.9885,-5.9885,-5.9885,-5.9885,-5.9885,-5.9885,-5.9885,-5.9885,-5.9885,-5.9885,-5.9885,-5.9885,-5.9885,-5.9885,-5.9601,-5.8786,-5.8274,-5.7668,-5.6834,-5.6323,-5.5906,-5.5527,-5.5508,-5.5337,-5.4939,-5.4901,-5.4901,-5.4901,-5.4901,-5.4901,-5.4901,-5.5299,-5.5735,-5.619,-5.6967,-5.7801,-5.871,-5.907,-5.9468,-2.5437,-2.7915,-3.0379,-3.0416,-3.072,-3.0795,-2.9981,0.0,0.0,0.0,0.0,0.0,0.0,0.0,0.0,0.0,0.0,0.0,0.0,0.0,0.0,0.0,0.0,0.0,0.0,0.0,0.0,0.0,0.0,0.0,0.0,-5.9885,-5.9885,-5.9885,-5.9885,-5.9885,-5.9885,-5.9885,-5.9885,-5.9885,-5.9885,-5.9885,-5.9885,-5.9885,-5.9885,-5.9885,0.0,0.0,-5.9885,-5.9885,-5.9885,-5.9885,-5.9885,-5.9885,-5.9885,-5.9885,-5.9885,-5.9885,-5.9885,-5.9885,-5.9885,-5.9885,-5.9885,-5.9885,-5.9885,-5.9885,-5.9885,-5.9885,-5.9885,-5.9885,-5.9885,-5.9885,-5.9885,-5.9885,-5.9885,-5.9885,-5.9885,-5.9885,-5.9885,-5.9885,-5.9885,-5.9885,-5.9885,-5.9885,-5.9885,-5.9885,-5.9885,-5.9639,-5.8957,-5.8767,-5.8407,-5.7668,-5.7479,-5.7118,-5.6436,-5.6379,-5.6076,-5.5337,-5.5166,-5.5148,-5.528,-5.528,-5.528,-5.528,-5.6,-5.6455,-5.6569,-5.8009,-5.8748,-5.89,-5.9563,-5.9885,-2.7559,-3.0037,-3.1231,-2.782,-2.8559,-2.9888,-2.9074,0.0,0.0,0.0,0.0,0.0,0.0,0.0,0.0,0.0,0.0,0.0,0.0,0.0,0.0,0.0,0.0,0.0,0.0,0.0,0.0,0.0,0.0,0.0,0.0,-5.9885,-5.9885,-5.9885,-5.9885,-5.9885,-5.9885,-5.9885,-5.9885,-5.9885,-5.9885,-5.9885,-5.9885,-5.9885,-5.9885,-5.9885,0.0,-5.9885,-5.9885,-5.9885,-5.9885,-5.9885,-5.9885,-5.9885,-5.9885,-5.9885,-5.9885,-5.9885,-5.9885,-5.9885,-5.9885,-5.9885,-5.9885,-5.9885,-5.9885,-5.9885,-5.9885,-5.9885,-5.9885,-5.9885,-5.9885,-5.9885,-5.9885,-5.9885,-5.9885,-5.9885,-5.9885,-5.9885,-5.9885,-5.9885,-5.9885,-5.9885,-5.9885,-5.9885,-5.9885,-5.9885,-5.9885,-5.9847,-5.9715,-5.9108,-5.8635,-5.8502,-5.7839,-5.7346,-5.7232,-5.7213,-5.7156,-5.7024,-5.6379,-5.6304,-5.6986,-5.7024,-5.7024,-5.7024,-5.7156,-5.7573,-5.8312,-5.8559,-5.9051,-5.9715,-5.9828,-5.9885,-2.638,-2.8521,-3.0075,-2.8616,-3.0795,-3.3089,-3.2236,0.0,0.0,0.0,0.0,0.0,0.0,0.0,0.0,0.0,0.0,0.0,0.0,0.0,0.0,0.0,0.0,0.0,0.0,0.0,0.0,0.0,0.0,0.0,0.0,0.0,-5.8748,-5.9222,-5.9241,-5.9449,-5.9885,-5.9885,-5.9885,-5.9885,-5.9885,-5.9885,-5.9885,-5.9885,-5.9885,-5.9885,0.0,-5.9885,-5.9885,-5.9885,-5.9885,-5.9885,-5.9885,-5.9885,-5.9885,-5.9885,-5.9885,-5.9885,-5.9885,-5.9885,-5.9885,-5.9885,-5.9885,-5.9885,-5.9885,-5.9885,-5.9885,-5.9885,-5.9885,-5.9885,-5.9885,-5.9885,-5.9885,-5.9885,-5.9885,-5.9885,-5.9885,-5.9885,-5.9885,-5.9885,-5.9885,-5.9885,-5.9885,-5.9885,-5.9885,-5.9885,-5.9885,-5.9885,-5.9885,-5.9563,-5.9336,-5.9336,-5.8976,-5.8559,-5.8142,-5.8085,-5.7895,-5.7422,-5.7043,-5.7005,-5.7384,-5.7403,-5.7403,-5.7403,-5.7858,-5.8293,-5.8691,-5.9127,-5.9525,-5.9885,-5.9885,-5.9885,-2.5698,-2.7384,-2.9225,-3.0303,-3.2956,-3.5344,-3.5457,0.0,0.0,0.0,0.0,0.0,0.0,0.0,0.0,0.0,0.0,0.0,0.0,0.0,0.0,0.0,0.0,0.0,0.0,0.0,0.0,0.0,0.0,0.0,0.0,0.0,-5.7706,-5.8369,-5.8388,-5.8691,-5.9298,-5.9298,-5.9506,-5.9885,-5.9885,-5.9885,-5.9885,-5.9885,-5.9885,-5.9885,-5.9885,-5.9885,-5.9885,-5.9885,-5.9885,-5.9885,-5.9885,-5.9885,-5.9885,-5.9885,-5.9885,-5.9885,-5.9885,-5.9885,-5.9885,-5.9885,-5.9885,-5.9885,-5.9885,-5.9885,-5.9885,-5.9885,-5.9885,-5.9885,-5.9885,-5.9885,-5.9885,-5.9885,-5.9885,-5.9885,-5.9885,-5.9885,-5.9885,-5.9885,-5.9885,-5.9885,-5.9885,-5.9885,-5.9885,-5.9885,-5.9885,-5.9885,-5.9885,-5.9885,-5.9885,-5.9885,-5.9885,-5.9639,-5.9014,-5.8976,-5.8691,-5.8028,-5.799,-5.799,-5.799,-5.799,-5.799,-5.799,-5.8635,-5.8976,-5.8976,-5.9582,-5.9885,-5.9885,-5.9885,-5.9885,-2.782,-2.9112,-3.0191,-3.1819,-3.2463,0.0,-3.6519,-3.6538,0.0,0.0,0.0,0.0,0.0,0.0,0.0,0.0,0.0,0.0,0.0,0.0,0.0,0.0,0.0,0.0,0.0,0.0,0.0,0.0,0.0,0.0,0.0,0.0,0.0,-5.7479,-5.7479,-5.7516,-5.7573,-5.7573,-5.835,-5.9885,-5.9885,-5.9885,-5.9885,-5.9885,-5.9885,-5.9885,-5.9885,-5.9885,-5.9885,-5.9885,-5.9885,-5.9885,-5.9885,-5.9885,-5.9885,-5.9885,-5.9885,-5.9885,-5.9885,-5.9885,-5.9885,-5.9885,-5.9885,-5.9885,-5.9885,-5.9885,-5.9885,-5.9885,-5.9885,-5.9885,-5.9885,-5.9885,-5.9885,-5.9885,-5.9885,-5.9885,-5.9885,-5.9885,-5.9885,-5.9885,-5.9885,-5.9885,-5.9885,-5.9885,-5.9885,-5.9885,-5.9885,-5.9885,-5.9885,-5.9885,-5.9885,-5.9885,-5.9885,-5.9866,-5.9809,-5.9809,-5.9791,-5.9715,-5.9715,-5.9715,-5.9715,-5.9715,-5.9715,-5.9715,-5.9772,-5.9809,-5.9809,-5.9866,-5.9885,-5.9885,-5.9885,-5.9885,-2.6133,-2.8142,-3.0246,-3.1383,-3.2804,0.0,0.0,-3.8774,-4.0479,0.0,0.0,0.0,0.0,0.0,0.0,0.0,0.0,0.0,0.0,0.0,0.0,0.0,0.0,0.0,0.0,0.0,0.0,0.0,0.0,0.0,0.0,0.0,0.0,-5.6645,-5.6645,-5.6891,-5.7403,-5.7403,-5.7725,-5.835,-5.835,-5.835,-5.835,-5.835,-5.835,-5.835,-5.835,-5.835,-5.8388,-5.8919,-5.9146,-5.9184,-5.9696,-5.9885,-5.9885,-5.9885,-5.9885,-5.9885,-5.9885,-5.9885,-5.9885,-5.9885,-5.9885,-5.9885,-5.9885,-5.9885,-5.9885,-5.9885,-5.9885,-5.9885,-5.9885,-5.9885,-5.9885,-5.9885,-5.9885,-5.9885,-5.9885,-5.9885,-5.9885,-5.9885,-5.9885,-5.9885,-5.9885,-5.9885,-5.9885,-5.9885,-5.9885,-5.9885,-5.9885,-5.9885,-5.9885,-5.9885,-5.9885,-5.9885,-5.9885,-5.9885,-5.9885,-5.9885,-5.9885,-5.9885,-5.9885,-5.9885,-5.9885,-5.9885,-5.9885,-5.9885,-5.9885,-5.9885,-5.9885,-5.9885,-5.9885,-5.9885,-2.5389,-2.7441,-2.9848,-3.0928,0.0,0.0,-3.8092,-4.0366,-4.2488,0.0,0.0,0.0,0.0,0.0,0.0,0.0,0.0,0.0,0.0,0.0,0.0,0.0,0.0,0.0,0.0,0.0,0.0,0.0,0.0,0.0,0.0,0.0,0.0,0.0,-5.5792,-5.6057,-5.6607,-5.6607,-5.6607,-5.6607,-5.6607,-5.6891,-5.7403,-5.7403,-5.7403,-5.7403,-5.7403,-5.7403,-5.7441,-5.8028,-5.8293,-5.8331,-5.89,-5.9108,-5.9127,-5.9412,-5.9506,-5.9544,-5.9809,-5.9885,-5.9885,-5.9885,-5.9885,-5.9885,-5.9885,-5.9885,-5.9885,-5.9885,-5.9885,-5.9885,-5.9885,-5.9885,-5.9885,-5.9885,-5.9885,-5.9885,-5.9885,-5.9885,-5.9885,-5.9885,-5.9885,-5.9885,-5.9885,-5.9885,-5.9885,-5.9885,-5.9885,-5.9885,-5.9885,-5.9885,-5.9885,-5.9885,-5.9885,-5.9885,-5.9885,-5.9885,-5.9885,-5.9885,-5.9885,-5.9885,-5.9885,-5.9885,-5.9885,-5.9885,-5.9885,-5.9885,-5.9885,-5.9885,-5.9885,-5.9885,-5.9885,-5.9885,-2.6205,-2.7441,-2.9131,0.0,0.0,0.0,0.0,-4.1237,0.0,0.0,0.0,0.0,0.0,0.0,0.0,0.0,0.0,0.0,0.0,0.0,0.0,0.0,0.0,0.0,0.0,0.0,0.0,0.0,0.0,0.0,0.0,0.0,0.0,-5.4901,-5.4901,-5.4901,-5.4901,-5.4901,-5.4901,-5.4901,-5.4901,-5.5773,-5.7384,-5.7384,-5.7384,-5.7384,-5.7384,-5.7384,-5.7384,-5.7384,-5.7384,-5.7403,-5.7403,-5.7403,-5.7497,-5.8369,-5.8691,-5.8786,-5.9601,-5.9866,-5.9866,-5.9866,-5.9866,-5.9885,-5.9885,-5.9885,-5.9885,-5.9885,-5.9885,-5.9885,-5.9885,-5.9885,-5.9885,-5.9885,-5.9885,-5.9885,-5.9885,-5.9885,-5.9885,-5.9885,-5.9885,-5.9885,-5.9885,-5.9885,-5.9885,-5.9885,-5.9885,-5.9885,-5.9885,-5.9885,-5.9885,-5.9885,-5.9885,-5.9885,-5.9885,-5.9885,-5.9885,-5.9885,-5.9885,-5.9885,-5.9885,-5.9885,-5.9885,-5.9885,-5.9885,-5.9885,-5.9885,-5.9885,-5.9885,-5.9885,-5.9885,-5.9885,-2.6205,-2.8275,0.0,0.0,0.0,0.0,0.0,0.0,0.0,0.0,0.0,0.0,0.0,0.0,0.0,0.0,0.0,0.0,0.0,0.0,0.0,0.0,0.0,0.0,0.0,0.0,0.0,0.0,0.0,0.0,0.0,0.0,0.0,-5.4901,-5.4901,-5.4901,-5.4901,-5.4901,-5.4901,-5.4901,-5.4901,-5.5166,-5.564,-5.564,-5.564,-5.564,-5.564,-5.564,-5.5697,-5.6304,-5.6891,-5.7403,-5.7403,-5.7403,-5.7422,-5.7687,-5.7782,-5.782,-5.8047,-5.8142,-5.8142,-5.8142,-5.8559,-5.9051,-5.9051,-5.9449,-5.9885,-5.9885,-5.9885,-5.9885,-5.9885,-5.9885,-5.9885,-5.9885,-5.9885,-5.9885,-5.9885,-5.9885,-5.9885,-5.9885,-5.9885,-5.9885,-5.9885,-5.9885,-5.9885,-5.9885,-5.9885,-5.9885,-5.9885,-5.9885,-5.9885,-5.9885,-5.9885,-5.9885,-5.9885,-5.9885,-5.9885,-5.9885,-5.9885,-5.9885,-5.9885,-5.9885,-5.9885,-5.9885,-5.9885,-5.9885,-5.9885,-5.9885,-5.9885,-5.9885,-5.9885,-5.9885,-2.7422,0.0,0.0,0.0,0.0,0.0,0.0,0.0,0.0,0.0,0.0,0.0,0.0,0.0,0.0,0.0,0.0,0.0,0.0,0.0,0.0,0.0,0.0,0.0,0.0,0.0,0.0,0.0,0.0,0.0,0.0,0.0,-5.4427,-5.4427,-5.4731,-5.4901,-5.4901,-5.4901,-5.4901,-5.4901,-5.4901,-5.4901,-5.4901,-5.4901,-5.4901,-5.4901,-5.4901,-5.4901,-5.4939,-5.547,-5.5962,-5.6417,-5.6417,-5.6417,-5.6455,-5.6796,-5.691,-5.6967,-5.7289,-5.7403,-5.7403,-5.7403,-5.7763,-5.818,-5.818,-5.8521,-5.89,-5.89,-5.89,-5.89,-5.89,-5.9146,-5.9487,-5.9809,-5.9885,-5.9885,-5.9885,-5.9885,-5.9885,-5.9885,-5.9885,-5.9885,-5.9885,-5.9885,-5.9885,-5.9885,-5.9885,-5.9885,-5.9885,-5.9885,-5.9885,-5.9885,-5.9885,-5.9885,-5.9885,-5.9885,-5.9885,-5.9885,-5.9885,-5.9885,-5.9885,-5.9885,-5.9885,-5.9885,-5.9885,-5.9885,-5.9885,-5.9885,-5.9885,-5.9885,-5.9885,-5.9885,-2.9298,0.0,0.0,0.0,0.0,0.0,0.0,0.0,0.0,0.0,0.0,0.0,0.0,0.0,0.0,0.0,0.0,0.0,0.0,0.0,0.0,0.0,0.0,0.0,0.0,0.0,0.0,0.0,0.0,0.0,0.0,0.0,-5.3575,-5.3575,-5.4295,-5.4674,-5.4674,-5.4674,-5.4674,-5.4674,-5.4674,-5.4712,-5.4787,-5.4863,-5.4901,-5.4901,-5.4901,-5.4901,-5.4901,-5.4901,-5.4901,-5.4901,-5.4901,-5.4901,-5.4996,-5.5792,-5.6076,-5.619,-5.691,-5.7175,-5.7175,-5.7175,-5.7232,-5.7289,-5.7289,-5.7346,-5.7403,-5.7403,-5.7403,-5.7403,-5.7403,-5.799,-5.8767,-5.9487,-5.9715,-5.9791,-5.9791,-5.9791,-5.9809,-5.9885,-5.9885,-5.9885,-5.9885,-5.9885,-5.9885,-5.9885,-5.9885,-5.9885,-5.9885,-5.9885,-5.9885,-5.9885,-5.9885,-5.9885,-5.9885,-5.9885,-5.9885,-5.9885,-5.9885,-5.9885,-5.9885,-5.9885,-5.9885,-5.9885,-5.9885,-5.9885,-5.9885,-5.9885,-5.9885,-5.9885,-5.9885,-5.9885,0.0,0.0,0.0,0.0,0.0,0.0,0.0,0.0,0.0,0.0,0.0,0.0,0.0,0.0,0.0,0.0,0.0,0.0,0.0,0.0,0.0,0.0,0.0,0.0,0.0,0.0,0.0,0.0,0.0,0.0,0.0,-5.2589,-5.2684,-5.2684,-5.2854,-5.2949,-5.2949,-5.2949,-5.2949,0.0,-5.2949,-5.3309,-5.3992,-5.4617,-5.4901,-5.4901,-5.4901,-5.4901,-5.4901,-5.4901,-5.4901,-5.4901,-5.4901,-5.4901,-5.492,-5.511,-5.5185,-5.5204,-5.5375,-5.5451,-5.5451,-5.5451,-5.5906,-5.6455,-5.6455,-5.6891,-5.7403,-5.7403,-5.7403,-5.7403,-5.7403,-5.7535,-5.7725,-5.7895,-5.8445,-5.8957,-5.8957,-5.8957,-5.9127,-5.9772,-5.9885,-5.9885,-5.9885,-5.9885,-5.9885,-5.9885,-5.9885,-5.9885,-5.9885,-5.9885,-5.9885,-5.9885,-5.9885,-5.9885,-5.9885,-5.9885,-5.9885,-5.9885,-5.9885,-5.9885,-5.9885,-5.9885,-5.9885,-5.9885,-5.9885,-5.9885,-5.9885,-5.9885,-5.9885,-5.9885,-5.9885,-5.9885,0.0,0.0,0.0,0.0,0.0,0.0,0.0,0.0,0.0,0.0,0.0,0.0,0.0,0.0,0.0,0.0,0.0,0.0,0.0,0.0,0.0,0.0,0.0,0.0,0.0,0.0,0.0,0.0,0.0,0.0,0.0,-5.1604,-5.1831,-5.1831,-5.221,-5.24,-5.24,-5.24,-5.24,-5.24,-5.24,-5.2646,-5.312,-5.4352,-5.4901,-5.4901,-5.4901,-5.4901,-5.4901,-5.4901,-5.4901,-5.4901,-5.4901,-5.4901,-5.4901,-5.4901,-5.4901,-5.4901,-5.4901,-5.4901,-5.4901,-5.4901,-5.5204,-5.5583,-5.5583,-5.5868,-5.6209,-5.6209,-5.6209,-5.6209,-5.6209,-5.6512,-5.672,-5.6304,-5.7156,-5.8066,-5.8066,-5.8066,-5.8199,-5.8616,-5.9033,-5.9317,-5.9317,-5.9639,-5.9885,-5.9885,-5.9885,-5.9885,-5.9885,-5.9885,-5.9885,-5.9885,-5.9885,-5.9885,-5.9885,-5.9885,-5.9885,-5.9885,-5.9885,-5.9885,-5.9885,-5.9885,-5.9885,-5.9885,-5.9885,-5.9885,-5.9885,-5.9885,-5.9885,-5.9885,-5.9885,-5.9885,0.0,0.0,0.0,0.0,0.0,0.0,0.0,0.0,0.0,0.0,0.0,0.0,0.0,0.0,0.0,0.0,0.0,0.0,0.0,0.0,0.0,0.0,0.0,0.0,0.0,0.0,0.0,0.0,0.0,0.0,-4.9898,-5.058,-5.0978,-5.0978,-5.1623,-5.1983,-5.1983,-5.1983,-5.1983,-5.1983,-5.2134,-5.2191,-5.2248,-5.3783,-5.456,-5.4693,-5.4693,-5.4769,-5.4901,-5.4901,-5.4901,-5.4901,-5.4901,-5.4901,-5.4901,-5.4901,-5.4901,-5.4901,-5.4901,-5.4901,-5.4901,-5.4901,-5.4901,-5.4901,-5.4901,-5.4901,-5.4901,-5.4901,-5.4901,-5.4901,-5.4901,-5.5432,-5.5792,-5.5072,-5.5962,-5.7005,-5.7156,-5.7194,-5.7232,-5.7365,-5.8085,-5.8729,-5.8881,-5.9449,-5.9885,-5.9885,-5.9885,-5.9885,-5.9885,-5.9885,-5.9885,-5.9885,-5.9885,-5.9885,-5.9885,-5.9885,-5.9885,-5.9885,-5.9885,-5.9885,-5.9885,-5.9885,-5.9885,-5.9885,-5.9885,-5.9885,-5.9885,-5.9885,-5.9885,-5.9885,-5.9885,-5.9885,0.0,0.0,0.0,0.0,0.0,0.0,0.0,0.0,0.0,0.0,0.0,0.0,0.0,0.0,0.0,0.0,0.0,0.0,0.0,0.0,0.0,0.0,0.0,0.0,0.0,0.0,0.0,0.0,0.0,0.0,-4.9898,-4.9993,-5.0069,-5.0069,-5.0163,-5.022,-5.022,-5.022,-5.022,-5.0239,-5.0997,-5.1376,-5.1395,-5.2324,-5.3158,-5.3859,-5.3859,-5.4257,-5.4901,-5.4901,-5.4901,-5.4901,-5.4901,-5.4901,-5.4901,-5.4901,-5.4901,-5.4901,-5.4901,-5.4901,-5.4901,-5.4901,-5.4901,-5.4901,-5.4901,-5.4901,-5.4901,-5.4901,-5.4901,-5.4901,-5.4901,-5.4996,-5.5034,-5.4939,-5.5072,-5.5451,-5.619,-5.636,-5.6569,-5.7251,-5.8085,-5.8919,-5.962,-5.9828,-5.9885,-5.9885,-5.9885,-5.9885,-5.9885,-5.9885,-5.9885,-5.9885,-5.9885,-5.9885,-5.9885,-5.9885,-5.9885,-5.9885,-5.9885,-5.9885,-5.9885,-5.9885,-5.9885,-5.9885,-5.9885,-5.9885,-5.9885,-5.9885,-5.9885,-5.9885,-5.9885,-5.9885,0.0,0.0,0.0,0.0,0.0,0.0,0.0,0.0,0.0,0.0,0.0,0.0,0.0,0.0,0.0,0.0,0.0,0.0,0.0,0.0,0.0,0.0,0.0,0.0,0.0,0.0,0.0,0.0,0.0,-4.9898,-4.9898,-4.9898,-4.9898,-4.9898,-4.9898,-4.9898,-4.9898,-4.9898,-4.9898,-4.9898,-5.0277,-5.0467,-5.0486,-5.0846,-5.1717,-5.2968,-5.2968,-5.3177,-5.3537,-5.4029,-5.4238,-5.4276,-5.4731,-5.4901,-5.4901,-5.4901,-5.4901,-5.4901,-5.4901,-5.4901,-5.4901,-5.4901,-5.4901,-5.4901,-5.4901,-5.4901,-5.4901,-5.4901,-5.4901,-5.4901,-5.4901,-5.4901,-5.4901,-5.4901,-5.4901,-5.4996,-5.5394,-5.547,-5.5716,-5.655,-5.7043,-5.7554,-5.835,-5.89,-5.9222,-5.9222,-5.9601,-5.9885,-5.9885,-5.9885,-5.9885,-5.9885,-5.9885,-5.9885,-5.9885,-5.9885,-5.9885,-5.9885,-5.9885,-5.9885,-5.9885,-5.9885,-5.9885,-5.9885,-5.9885,-5.9885,-5.9885,-5.9885,-5.9885,-5.9885,-5.9885,-5.9885,0.0,0.0,0.0,0.0,0.0,0.0,0.0,0.0,0.0,0.0,0.0,0.0,0.0,0.0,0.0,0.0,0.0,0.0,0.0,0.0,0.0,0.0,0.0,0.0,0.0,0.0,0.0,0.0,0.0,-4.9898,-4.9898,-4.9898,-4.9898,-4.9898,-4.9898,-4.9898,-4.9898,-4.9898,-4.9898,-4.9898,-4.9898,-4.9898,-4.9898,-4.9898,-5.058,-5.1793,-5.2002,-5.221,-5.2456,-5.3101,-5.3499,-5.3764,-5.4371,-5.4731,-5.4901,-5.4901,-5.4901,-5.4901,-5.4901,-5.4901,-5.4901,-5.4901,-5.4901,-5.4901,-5.4901,-5.4901,-5.4901,-5.4901,-5.4901,-5.4901,-5.4901,-5.4901,-5.4901,-5.4901,-5.4901,-5.4901,-5.4901,-5.4901,-5.5166,-5.6019,-5.619,-5.6455,-5.7251,-5.7933,-5.8426,-5.8653,-5.9203,-5.9658,-5.9866,-5.9885,-5.9885,-5.9885,-5.9885,-5.9885,-5.9885,-5.9885,-5.9885,-5.9885,-5.9885,-5.9885,-5.9885,-5.9885,-5.9885,-5.9885,-5.9885,-5.9885,-5.9885,-5.9885,-5.9885,-5.9885,-5.9885,-5.9885,0.0,0.0,0.0,0.0,0.0,0.0,0.0,0.0,0.0,0.0,0.0,0.0,0.0,0.0,0.0,0.0,0.0,0.0,0.0,0.0,0.0,0.0,0.0,0.0,0.0,0.0,0.0,0.0,0.0,-4.9898,-4.9898,-4.9898,-4.9898,-4.9898,-4.9898,-4.9898,-4.9898,-4.9898,-4.9898,-4.9898,-4.9898,-4.9898,-4.9898,-4.9898,-4.9936,-5.0069,-5.0903,-5.1698,-5.24,-5.2456,-5.2949,-5.3707,-5.3745,-5.4238,-5.4901,-5.4901,-5.4901,-5.4901,-5.4901,-5.4901,-5.4901,-5.4901,-5.4901,-5.4901,-5.4901,-5.4901,-5.4901,-5.4901,-5.4901,-5.4901,-5.4901,-5.4901,-5.4901,-5.4901,-5.4901,-5.4901,-5.4901,-5.4901,-5.5166,-5.6019,-5.619,-5.6455,-5.7251,-5.7441,-5.7744,-5.8578,-5.8729,-5.9033,-5.9791,-5.9885,-5.9885,-5.9885,-5.9885,-5.9885,-5.9885,-5.9885,-5.9885,-5.9885,-5.9885,-5.9885,-5.9885,-5.9885,-5.9885,-5.9885,-5.9885,-5.9885,-5.9885,-5.9885,-5.9885,-5.9885,-5.9885,-5.9885,0.0,0.0,0.0,0.0,0.0,0.0,0.0,0.0,0.0,0.0,0.0,0.0,0.0,0.0,0.0,0.0,0.0,0.0,0.0,0.0,0.0,0.0,0.0,0.0,0.0,0.0,0.0,0.0,0.0,0.0,-4.9898,-4.9898,-4.9898,-4.9898,-4.9898,-4.9898,-4.9898,-4.9898,-4.9898,-4.9898,-4.9898,-4.9898,-4.9898,-4.9898,-4.9898,-4.9917,-5.022,-5.0523,-5.0827,-5.1414,-5.1812,-5.221,-5.329,-5.3878,-5.42,-5.4712,-5.4901,-5.4901,-5.4901,-5.4901,-5.4901,-5.4901,-5.4901,-5.4901,-5.4901,-5.4901,-5.4901,-5.4901,-5.4901,-5.4901,-5.4901,-5.4901,-5.4901,-5.4901,-5.4901,-5.4901,-5.4901,-5.4901,-5.4996,-5.5318,-5.5375,-5.547,-5.5754,-5.6266,-5.6739,-5.7043,-5.7516,-5.8161,-5.9014,-5.9127,-5.9317,-5.9828,-5.9885,-5.9885,-5.9885,-5.9885,-5.9885,-5.9885,-5.9885,-5.9885,-5.9885,-5.9393,-5.9127,-5.9127,-5.8578,-5.8805,-5.9885,-5.9885,-5.9885,-5.9885,-5.9885,-5.9885,0.0,0.0,0.0,0.0,0.0,0.0,0.0,0.0,0.0,0.0,0.0,0.0,0.0,0.0,0.0,0.0,0.0,0.0,0.0,0.0,0.0,0.0,0.0,0.0,0.0,0.0,0.0,0.0,0.0,0.0,-4.9045,-4.933,-4.9614,-4.9879,-4.9898,-4.9898,-4.9898,-4.9898,-4.9898,-4.9898,-4.9898,-4.9898,-4.9898,-4.9898,-4.9898,-4.9898,-4.9898,-4.9898,-4.9936,-5.0523,-5.094,-5.1319,-5.2438,-5.3025,-5.3328,-5.3859,-5.4257,-5.4503,-5.4503,-5.4674,-5.4901,-5.4901,-5.4901,-5.4901,-5.4901,-5.4901,-5.4901,-5.4901,-5.4901,-5.4901,-5.4901,-5.4901,-5.4901,-5.4901,-5.4901,-5.4901,-5.4901,-5.4901,-5.4901,-5.4901,-5.4901,-5.4901,-5.4901,-5.5375,-5.5849,-5.6152,-5.6645,-5.7289,-5.8142,-5.8256,-5.8578,-5.9412,-5.9487,-5.9601,-5.9866,-5.9639,-5.9487,-5.9487,-5.9222,-5.9051,-5.9051,-5.854,-5.8256,-5.8256,-5.7687,-5.8085,-5.9487,-5.9487,-5.9639,-5.9885,-5.9885,-5.9885,0.0,0.0,0.0,0.0,0.0,0.0,0.0,0.0,0.0,0.0,0.0,0.0,0.0,0.0,0.0,0.0,0.0,0.0,0.0,0.0,0.0,0.0,0.0,0.0,0.0,0.0,0.0,0.0,0.0,-4.7397,-4.7397,-4.8193,-4.9007,-4.9784,-4.9841,-4.9841,-4.9841,-4.9879,-4.9898,-4.9898,-4.9898,-4.9898,-4.9898,-4.9898,-4.9898,-4.9898,-4.9898,-4.9898,-4.9898,-4.9898,-5.0391,-5.1168,-5.1206,-5.1679,-5.2381,-5.24,-5.2949,-5.3669,-5.3669,-5.42,-5.4863,-5.4863,-5.4882,-5.4901,-5.4901,-5.4901,-5.4901,-5.4901,-5.4901,-5.4901,-5.4901,-5.4901,-5.4901,-5.4901,-5.4901,-5.4901,-5.4901,-5.4901,-5.4901,-5.4901,-5.4901,-5.4901,-5.4901,-5.4901,-5.5185,-5.6019,-5.6152,-5.6455,-5.7251,-5.7365,-5.7687,-5.8559,-5.8653,-5.8976,-5.9753,-5.9108,-5.8653,-5.8653,-5.7858,-5.7403,-5.7403,-5.7384,-5.7365,-5.7365,-5.7346,-5.7763,-5.8616,-5.8672,-5.9108,-5.9885,-5.9885,-5.9885,-2.2305,0.0,0.0,0.0,0.0,0.0,0.0,0.0,0.0,0.0,0.0,0.0,0.0,0.0,0.0,0.0,0.0,0.0,0.0,0.0,0.0,0.0,0.0,0.0,0.0,0.0,0.0,0.0,-4.7074,-4.7397,-4.7397,-4.7624,-4.7851,-4.8079,-4.8685,-4.9026,-4.9026,-4.9595,-4.9898,-4.9898,-4.9898,-4.9898,-4.9898,-4.9898,-4.9898,-4.9898,-4.9898,-4.9898,-4.9898,-4.9898,-5.0031,-5.0315,-5.0959,-5.1338,-5.1604,-5.2191,-5.2551,-5.276,-5.276,-5.3328,-5.4029,-5.4029,-5.4427,-5.4901,-5.4901,-5.4901,-5.4901,-5.4901,-5.4901,-5.4901,-5.4901,-5.4901,-5.4901,-5.4901,-5.4901,-5.4901,-5.4901,-5.4901,-5.4901,-5.4901,-5.4901,-5.4901,-5.4901,-5.4901,-5.4977,-5.5223,-5.5261,-5.5564,-5.6417,-5.6531,-5.6853,-5.7668,-5.7763,-5.7839,-5.8066,-5.7876,-5.7763,-5.7763,-5.7535,-5.7403,-5.7403,-5.6834,-5.6531,-5.6531,-5.5906,-5.6019,-5.6891,-5.8104,-5.9108,-5.9885,-5.9885,-5.9885,-2.3234,0.0,0.0,0.0,0.0,0.0,0.0,0.0,0.0,0.0,0.0,0.0,0.0,0.0,0.0,0.0,0.0,0.0,0.0,0.0,0.0,0.0,0.0,0.0,0.0,0.0,0.0,-4.5462,-4.6019,-4.6525,-4.6885,-4.6904,-4.6985,-4.72,-4.7818,-4.8083,-4.7956,-4.8537,-4.9026,-4.9386,-4.9386,-4.9576,-4.9898,-4.9898,-4.9898,-4.9898,-4.9898,-4.9898,-4.9898,-4.9898,-4.9898,-4.9936,-5.0467,-5.0656,-5.0713,-5.1187,-5.1585,-5.1907,-5.1907,-5.2456,-5.3158,-5.3158,-5.3726,-5.4408,-5.4408,-5.4636,-5.4901,-5.4901,-5.4901,-5.4901,-5.4901,-5.4901,-5.4901,-5.4901,-5.4901,-5.4901,-5.4901,-5.4901,-5.4901,-5.4901,-5.4901,-5.4901,-5.4901,-5.4901,-5.4901,-5.4901,-5.4901,-5.5091,-5.5583,-5.5659,-5.5981,-5.6815,-5.6891,-5.7043,-5.7365,-5.7081,-5.6891,-5.6891,-5.6569,-5.636,-5.636,-5.5906,-5.5659,-5.5659,-5.5166,-5.5337,-5.619,-5.7516,-5.8748,-5.9885,-5.9885,-5.9885,-2.4466,-2.5338,0.0,0.0,0.0,0.0,-2.9943,-3.0132,0.0,0.0,0.0,0.0,0.0,0.0,0.0,0.0,0.0,0.0,0.0,0.0,0.0,0.0,0.0,0.0,0.0,-4.4681,-4.4707,-4.4411,-4.4681,-4.5168,-4.5944,-4.6051,-4.6225,-4.6609,-4.7011,-4.7041,-4.6719,-4.7116,-4.7723,-4.8507,-4.8553,-4.8969,-4.9765,-4.9765,-4.9803,-4.9898,-4.9898,-4.9898,-4.9898,-4.9898,-4.9898,-4.9898,-4.9898,-4.9898,-4.9898,-4.9898,-5.0391,-5.1073,-5.1073,-5.1604,-5.2286,-5.2286,-5.2854,-5.3556,-5.3556,-5.4067,-5.4636,-5.475,-5.4769,-5.4787,-5.4882,-5.4901,-5.4901,-5.4901,-5.4901,-5.4901,-5.4901,-5.4901,-5.4901,-5.4901,-5.4901,-5.4901,-5.4901,-5.4901,-5.4901,-5.4901,-5.4901,-5.4901,-5.4901,-5.4901,-5.5204,-5.5962,-5.6057,-5.6341,-5.7062,-5.6474,-5.6057,-5.6057,-5.5337,-5.4901,-5.4901,-5.4901,-5.4901,-5.4901,-5.4901,-5.5337,-5.619,-5.7099,-5.8312,-5.9772,-5.9847,-5.9885,-2.7767,-2.7956,-2.8104,-2.7627,0.0,0.0,0.0,-2.7631,0.0,0.0,0.0,0.0,0.0,0.0,0.0,0.0,0.0,0.0,0.0,0.0,0.0,0.0,0.0,0.0,0.0,-4.461,-4.4457,-4.4383,-4.4457,-4.456,-4.4756,-4.4997,-4.5073,-4.4899,-4.5632,-4.5875,-4.5525,-4.6502,-4.709,-4.7259,-4.7519,-4.8098,-4.8913,-4.8913,-4.9273,-4.9898,-4.9898,-4.9898,-4.9898,-4.9898,-4.9898,-4.9898,-4.9898,-4.9898,-4.9898,-4.9898,-4.9993,-5.0144,-5.0144,-5.0713,-5.1433,-5.1433,-5.2002,-5.2665,-5.2665,-5.276,-5.3044,-5.3745,-5.3935,-5.4086,-5.4731,-5.4901,-5.4901,-5.4901,-5.4901,-5.4901,-5.4901,-5.4901,-5.4901,-5.4901,-5.4901,-5.4901,-5.4901,-5.4901,-5.4901,-5.4901,-5.4901,-5.4901,-5.4901,-5.4901,-5.4977,-5.5148,-5.5148,-5.5223,-5.5375,-5.5242,-5.5148,-5.5148,-5.4996,-5.4901,-5.4901,-5.4901,-5.4901,-5.4901,-5.4901,-5.5337,-5.619,-5.7706,-5.8597,-5.8938,-5.9582,-5.9885,-2.8806,-2.8915,-2.9207,-2.8843,0.0,0.0,0.0,0.0,-2.828,0.0,0.0,0.0,0.0,0.0,0.0,0.0,0.0,0.0,0.0,0.0,0.0,0.0,0.0,0.0,0.0,-4.3801,-4.3896,-4.4117,-4.4154,-4.4154,-4.4154,-4.4289,-4.4184,-4.3849,-4.4346,-4.4506,-4.4269,-4.4965,-4.5672,-4.6308,-4.6468,-4.7076,-4.806,-4.8496,-4.8913,-4.9311,-4.9728,-4.9898,-4.9898,-4.9898,-4.9898,-4.9898,-4.9898,-4.9898,-4.9898,-4.9898,-4.9898,-4.9898,-4.9898,-5.0182,-5.0542,-5.0542,-5.113,-5.1812,-5.1812,-5.2096,-5.2494,-5.293,-5.3366,-5.3783,-5.42,-5.4598,-5.4901,-5.4901,-5.4901,-5.4901,-5.4901,-5.4901,-5.4901,-5.4901,-5.4901,-5.4901,-5.4901,-5.4901,-5.4901,-5.4901,-5.4901,-5.4901,-5.4901,-5.4901,-5.4901,-5.4901,-5.4901,-5.4901,-5.4901,-5.4901,-5.4901,-5.4901,-5.4901,-5.4901,-5.4901,-5.4901,-5.4901,-5.4901,-5.4901,-5.5129,-5.5546,-5.6834,-5.7876,-5.871,-5.9108,-5.9506,0.0,0.0,0.0,0.0,0.0,-3.0675,0.0,0.0,0.0,-2.9851,0.0,0.0,0.0,0.0,0.0,0.0,0.0,0.0,0.0,0.0,0.0,0.0,0.0,0.0,0.0,-4.2165,-4.2416,-4.3198,-4.3026,-4.3095,-4.3558,-4.3725,-4.3642,-4.3303,-4.3437,-4.3403,-4.316,-4.3508,-4.4183,-4.5241,-4.5358,-4.6007,-4.7091,-4.7863,-4.8382,-4.8723,-4.934,-4.9719,-4.9871,-4.9871,-4.9871,-4.9871,-4.9898,-4.9898,-4.9898,-4.9898,-4.9898,-4.9898,-4.9898,-4.9898,-4.9898,-4.9898,-5.0372,-5.0959,-5.0959,-5.1414,-5.1964,-5.2134,-5.2684,-5.329,-5.3631,-5.4181,-5.4712,-5.4863,-5.4901,-5.4901,-5.4901,-5.4901,-5.4901,-5.4901,-5.4901,-5.4901,-5.4901,-5.4901,-5.4901,-5.4901,-5.4901,-5.4901,-5.4901,-5.4901,-5.4901,-5.4901,-5.4901,-5.4901,-5.4901,-5.4901,-5.4901,-5.4901,-5.4901,-5.4901,-5.4901,-5.4901,-5.4901,-5.4901,-5.4901,-5.4901,-5.4901,-5.5602,-5.672,-5.8218,-5.8369,-5.8881,0.0,0.0,0.0,0.0,-3.2631,0.0,0.0,0.0,-2.9982,-2.8231,0.0,0.0,0.0,0.0,0.0,0.0,0.0,0.0,0.0,0.0,0.0,0.0,0.0,0.0,0.0,0.0,-3.8921,-4.0742,-3.9896,-4.0197,-4.2261,-4.3301,-4.3642,-4.3303,-4.3195,-4.2977,-4.267,-4.3032,-4.3303,-4.3571,-4.4184,-4.4956,-4.5914,-4.6289,-4.7283,-4.8704,-4.8607,-4.9004,-4.9721,-4.9721,-4.9721,-4.975,-4.9843,-4.9898,-4.9898,-4.9898,-4.9898,-4.9898,-4.9898,-4.9898,-4.9898,-4.9898,-4.9955,-5.005,-5.005,-5.0107,-5.0353,-5.113,-5.1414,-5.1831,-5.3309,-5.3764,-5.4029,-5.4731,-5.4901,-5.4901,-5.4901,-5.4901,-5.4901,-5.4901,-5.4901,-5.4901,-5.4901,-5.4901,-5.4901,-5.4901,-5.4901,-5.4901,-5.4901,-5.4901,-5.4901,-5.4901,-5.4901,-5.4901,-5.4901,-5.4901,-5.4901,-5.4901,-5.4901,-5.4901,-5.4901,-5.4901,-5.4901,-5.4901,-5.4901,-5.4901,-5.4901,-5.4996,-5.5546,-5.6493,-5.7213,-5.8009,0.0,0.0,0.0,0.0,0.0,0.0,-3.0169,0.0,-2.9269,0.0,0.0,0.0,0.0,0.0,0.0,0.0,0.0,0.0,0.0,0.0,0.0,0.0,0.0,0.0,0.0,0.0,0.0,0.0,0.0,-3.8715,-4.105,-4.194,-4.2523,-4.2824,-4.2691,-4.2631,-4.2566,-4.2844,-4.3142,-4.3422,-4.3992,-4.4418,-4.4755,-4.5738,-4.6441,-4.692,-4.8077,-4.8794,-4.9153,-4.9626,-4.9816,-4.9816,-4.9871,-4.9898,-4.9898,-4.9898,-4.9898,-4.9898,-4.9898,-4.9898,-4.9898,-4.9898,-4.9898,-4.9898,-4.9898,-4.9898,-4.9974,-5.0334,-5.0808,-5.1376,-5.2077,-5.2608,-5.3158,-5.401,-5.42,-5.4333,-5.4806,-5.4901,-5.4901,-5.4901,-5.4901,-5.4901,-5.4901,-5.4901,-5.4901,-5.4901,-5.4901,-5.4901,-5.4901,-5.4901,-5.4901,-5.4901,-5.4901,-5.4901,-5.4901,-5.4901,-5.4901,-5.4901,-5.4901,-5.4901,-5.4901,-5.4901,-5.4901,-5.4901,-5.4901,-5.4901,-5.4901,-5.4901,-5.5091,-5.547,-5.6304,-5.7137,-3.297,0.0,0.0,0.0,0.0,0.0,0.0,0.0,0.0,0.0,0.0,0.0,0.0,0.0,0.0,0.0,0.0,0.0,0.0,0.0,0.0,0.0,0.0,0.0,0.0,0.0,0.0,0.0,0.0,-3.6606,-3.959,-4.0579,-4.142,-4.2145,-4.2262,-4.2346,-4.2445,-4.2709,-4.2995,-4.3353,-4.3868,-4.4084,-4.4095,-4.5243,-4.5738,-4.5716,-4.7248,-4.8115,-4.856,-4.9145,-4.9533,-4.9769,-4.9824,-4.9871,-4.9898,-4.9898,-4.9898,-4.9898,-4.9898,-4.9898,-4.9898,-4.9898,-4.9898,-4.9898,-4.9898,-4.9898,-4.9898,-4.9898,-5.0353,-5.0903,-5.1149,-5.1642,-5.2305,-5.3139,-5.3347,-5.3575,-5.4389,-5.4579,-5.4636,-5.4863,-5.4901,-5.4901,-5.4901,-5.4901,-5.4901,-5.4901,-5.4901,-5.4901,-5.4901,-5.4901,-5.4901,-5.4901,-5.4901,-5.4901,-5.4901,-5.4901,-5.4901,-5.4901,-5.4901,-5.4901,-5.4901,-5.4901,-5.4901,-5.4901,-5.4901,-5.4901,-5.4901,-5.4901,-5.4901,-5.492,-5.5546,-5.6285,0.0,0.0,0.0,-3.1895,0.0,0.0,0.0,0.0,-3.1066,0.0,0.0,0.0,0.0,0.0,-2.9765,-2.825,0.0,0.0,0.0,0.0,0.0,0.0,0.0,0.0,0.0,0.0,0.0,0.0,0.0,0.0,-3.7821,-3.9445,-4.0594,-4.1343,-4.1976,-4.2287,-4.2287,-4.2573,-4.2788,-4.292,-4.3526,-4.3949,-4.4192,-4.4578,-4.5202,-4.5995,-4.5848,-4.6641,-4.8015,-4.8034,-4.8596,-4.9446,-4.9615,-4.9807,-4.9898,-4.9898,-4.9898,-4.9898,-4.9898,-4.9898,-4.9898,-4.9898,-4.9898,-4.9898,-4.9898,-4.9898,-4.9898,-4.9898,-4.9917,-5.0126,-5.0978,-5.1225,-5.1452,-5.2267,-5.2456,-5.2684,-5.3556,-5.3745,-5.3973,-5.475,-5.4901,-5.4901,-5.4901,-5.4901,-5.4901,-5.4901,-5.4901,-5.4901,-5.4901,-5.4901,-5.4901,-5.4901,-5.4901,-5.4901,-5.4901,-5.4901,-5.4901,-5.4901,-5.4901,-5.4901,-5.4901,-5.4901,-5.4901,-5.4901,-5.4901,-5.4901,-5.4901,-5.4901,-5.4901,-5.4901,-5.4939,-5.5413,0.0,0.0,-3.6322,-3.4154,0.0,0.0,0.0,0.0,0.0,0.0,0.0,0.0,0.0,0.0,-2.9661,-2.8584,-2.7455,0.0,0.0,0.0,0.0,0.0,0.0,0.0,0.0,0.0,0.0,0.0,-3.1888,0.0,0.0,-3.9031,-4.0462,-4.1171,-4.1917,-4.2287,-4.2287,-4.2573,-4.2826,-4.3087,-4.356,-4.3791,-4.3841,-4.4317,-4.4627,-4.471,-4.5529,-4.6168,-4.6704,-4.7814,-4.8464,-4.8805,-4.9437,-4.9788,-4.9898,-4.9898,-4.9898,-4.9898,-4.9898,-4.9898,-4.9898,-4.9898,-4.9898,-4.9898,-4.9898,-4.9898,-4.9898,-4.9898,-4.9898,-4.9955,-5.0258,-5.0334,-5.0542,-5.1414,-5.1623,-5.1831,-5.2665,-5.329,-5.3783,-5.4048,-5.4541,-5.4901,-5.4901,-5.4901,-5.4901,-5.4901,-5.4901,-5.4901,-5.4901,-5.4901,-5.4901,-5.4901,-5.4901,-5.4901,-5.4901,-5.4901,-5.4901,-5.4901,-5.4901,-5.4901,-5.4901,-5.4901,-5.4901,-5.4901,-5.4901,-5.4901,-5.4901,-5.4901,-5.4901,-5.4901,-5.4901,-5.5072,-3.6136,-3.6808,0.0,-3.5551,-3.5012,0.0,-3.2065,0.0,0.0,0.0,0.0,0.0,0.0,0.0,-3.0216,-2.9132,-2.7615,-2.608,0.0,0.0,0.0,0.0,0.0,0.0,0.0,0.0,-2.7597,-3.0369,0.0,0.0,0.0,0.0,-3.9383,-4.0628,-4.1448,-4.2002,-4.2287,-4.2573,-4.2788,-4.3032,-4.3493,-4.3693,-4.3679,-4.4188,-4.4306,-4.4151,-4.5031,-4.55,-4.5762,-4.6861,-4.7709,-4.839,-4.8945,-4.9467,-4.9898,-4.9898,-4.9898,-4.9898,-4.9898,-4.9898,-4.9898,-4.9898,-4.9898,-4.9898,-4.9898,-4.9898,-4.9898,-4.9898,-4.9898,-4.9898,-4.9898,-4.9898,-5.0031,-5.0599,-5.0751,-5.0959,-5.1793,-5.2419,-5.2911,-5.3177,-5.3916,-5.4465,-5.4465,-5.4712,-5.4901,-5.4901,-5.4901,-5.4901,-5.4901,-5.4901,-5.4901,-5.4901,-5.4901,-5.4901,-5.4901,-5.4901,-5.4901,-5.4901,-5.4901,-5.4901,-5.4901,-5.4901,-5.4901,-5.4901,-5.4901,-5.4901,-5.4901,-5.4901,-5.4901,-5.4901,-5.4901,-5.4901]}]]